GFSMA_925_thetae_000.txt.gz
Theta_e
325 323 321 320 319 320 320 320 319 316 311 309 310 311 310 310 311 310 310 304 304 304 305 307 311 316 319 322 324 325 325 326 326 327 326 327 327 327 327 326 325 324 322
322 319 317 316 316 316 318 318 317 313 311 309 309 310 309 309 310 309 308 308 303 304 304 305 306 309 317 320 320 322 323 324 325 326 326 326 326 327 327 326 325 323 323
318 318 316 316 316 316 318 319 318 314 312 309 309 309 309 309 308 308 307 307 307 304 304 304 305 307 308 312 315 317 320 322 323 324 325 326 326 326 327 327 326 325 324
319 318 316 316 316 316 316 316 316 315 313 310 309 309 308 308 307 307 307 306 307 307 306 303 303 305 306 307 309 312 314 316 319 322 323 323 324 325 326 326 328 326 325
316 316 315 315 316 316 315 315 315 314 313 311 309 309 309 308 307 307 307 307 306 306 306 305 301 302 304 305 305 306 311 315 317 318 319 321 322 322 323 325 328 327 326
313 314 314 315 316 316 315 314 315 314 313 311 310 308 308 309 308 307 307 306 305 307 306 307 307 307 303 301 302 303 307 309 312 317 317 318 321 322 322 322 323 326 327
312 312 312 313 313 314 314 315 315 315 315 313 311 310 309 309 309 308 307 307 306 306 307 307 305 304 304 301 300 299 301 307 308 310 314 315 314 320 323 324 322 322 322
308 308 309 310 310 311 311 313 314 314 315 314 313 311 313 310 310 309 308 307 306 306 307 307 304 302 302 302 302 299 296 300 303 307 308 313 310 309 309 316 321 323 322
306 306 307 308 308 308 308 309 310 311 312 313 313 312 313 313 312 309 308 307 306 306 306 304 301 300 300 301 300 301 300 300 301 304 304 310 310 309 308 307 309 315 320
305 305 305 306 306 306 306 306 306 307 308 310 310 311 311 311 314 312 309 307 306 306 305 303 301 301 300 300 298 297 297 299 301 302 302 302 307 309 309 310 312 314 318
304 304 304 304 305 305 305 305 306 306 307 308 308 309 309 309 308 309 311 308 305 304 302 301 301 301 301 300 299 300 298 300 302 302 301 301 302 309 310 310 311 311 311
303 303 303 303 304 303 303 303 303 303 303 303 303 302 303 301 303 305 307 307 308 303 301 301 300 300 300 300 299 296 298 300 299 301 301 302 305 309 308 307 308 310 310
301 302 302 302 302 302 301 301 301 301 299 299 298 297 295 295 295 296 299 301 302 302 301 300 300 299 299 299 298 298 296 296 296 297 297 298 300 300 302 306 308 308 308
301 302 301 301 301 301 301 301 299 297 297 297 297 295 295 295 293 292 292 295 297 299 300 300 300 298 298 297 297 295 295 296 296 296 296 297 299 299 301 303 303 300 298
300 300 300 299 297 297 297 296 296 295 295 294 294 294 294 294 293 293 293 293 294 298 297 298 298 298 297 296 296 295 296 296 296 294 294 295 296 297 295 296 296 297 297
300 298 297 297 296 296 296 295 295 294 294 293 292 292 292 293 293 293 293 292 292 293 294 293 293 294 294 294 294 293 293 294 294 293 292 293 294 294 294 294 295 295 296
297 297 296 296 296 295 294 293 293 293 293 293 292 292 291 291 291 291 291 291 291 291 293 292 292 292 292 293 293 293 293 293 293 294 293 293 292 291 292 292 294 295 295
297 296 296 295 294 294 293 292 292 292 291 291 291 291 290 289 289 289 290 290 290 290 291 292 291 291 292 292 292 292 293 293 293 293 292 293 293 292 290 290 290 292 295
295 295 295 294 294 293 293 291 290 290 290 290 290 289 289 289 289 289 289 289 289 289 289 289 290 290 290 291 291 291 292 292 292 292 292 291 292 291 292 292 291 291 291
293 293 292 292 291 290 289 289 289 289 289 288 288 287 287 287 287 287 287 287 287 287 287 288 288 289 289 289 289 290 290 290 291 291 291 290 290 291 291 291 291 290 290
289 288 288 288 288 288 287 287 287 287 288 287 287 287 287 286 285 285 284 285 285 286 287 288 289 289 289 289 289 290 290 290 290 290 291 291 291 291 290 290 289 290 290
288 288 287 287 287 287 286 285 285 286 286 286 286 286 286 285 284 284 283 283 283 284 286 287 287 287 288 288 288 288 288 288 289 289 289 290 290 291 291 291 291 292 292
287 287 287 287 287 286 284 283 282 283 284 284 285 285 284 284 283 284 284 284 283 283 283 283 284 285 286 286 287 287 287 287 287 287 288 289 289 290 290 291 290 290 290
287 287 286 286 285 285 283 281 281 281 283 284 284 283 283 283 283 283 283 283 283 283 284 284 284 284 284 285 285 286 286 287 287 287 287 288 288 288 288 289 289 289 290
286 286 285 285 284 284 282 280 280 281 282 282 282 282 282 282 282 282 283 283 283 284 284 284 283 283 283 283 284 284 286 286 287 287 286 287 287 287 287 288 288 288 289
286 285 285 284 283 282 281 280 279 280 281 281 282 282 282 282 282 282 282 283 283 283 284 284 284 285 284 284 284 284 285 286 286 287 286 286 287 287 288 288 288 288 289

GFSMA_925_thetae_003.txt.gz
Theta_e
324 322 320 319 317 317 318 319 318 318 316 312 310 312 311 311 311 311 311 310 304 304 305 307 310 314 317 319 323 325 325 326 326 328 327 326 326 327 327 327 326 326 326
322 320 318 317 317 317 317 317 318 318 315 312 311 311 312 310 310 311 310 310 307 303 304 305 305 308 312 316 318 320 323 324 325 325 326 326 326 327 327 327 327 326 325
320 320 319 318 317 317 317 317 318 318 317 315 312 311 311 311 310 310 310 309 308 304 303 304 305 305 306 309 311 315 318 320 322 323 324 326 326 326 326 327 327 326 325
320 320 318 318 317 318 318 317 317 317 317 316 314 312 311 311 310 310 310 309 308 309 306 302 303 303 304 305 306 307 311 314 317 320 322 323 324 325 326 326 326 327 326
317 317 317 317 317 318 318 318 317 317 317 316 316 314 312 311 311 310 310 309 309 308 309 308 303 302 302 302 303 304 305 307 314 317 318 319 321 322 323 324 326 326 326
317 317 317 317 317 317 317 317 319 318 318 317 316 315 315 312 311 311 311 309 309 309 308 309 305 303 303 302 301 301 303 308 309 311 318 318 318 321 322 322 323 324 327
314 313 313 313 314 314 315 315 316 316 317 316 318 318 317 314 313 311 312 311 310 309 308 309 309 308 306 304 302 301 300 304 308 309 311 315 317 317 319 322 323 321 322
312 311 311 311 310 311 311 312 313 315 315 315 316 317 318 316 315 314 312 312 311 310 309 309 309 308 307 305 304 303 301 299 299 303 308 310 314 313 313 317 321 324 322
310 309 308 308 309 309 309 310 310 310 312 312 312 314 316 316 316 313 315 313 312 311 309 309 309 307 305 304 304 302 301 300 298 298 305 307 310 311 310 309 310 313 318
307 306 307 307 307 307 307 307 306 308 308 309 309 309 310 312 315 315 313 313 311 310 310 309 308 305 303 303 304 303 303 302 299 299 300 306 305 310 311 311 310 310 309
306 305 305 305 305 305 305 306 306 306 305 306 306 307 307 307 308 308 311 312 311 310 308 308 307 304 304 303 303 302 301 298 297 299 301 302 304 303 309 311 312 313 309
304 304 303 304 304 304 304 304 304 304 303 302 302 301 301 301 301 301 303 306 308 308 308 306 303 303 304 303 303 302 300 299 300 301 301 301 301 302 309 312 311 310 311
303 302 303 303 302 302 302 303 303 301 299 299 298 299 298 297 297 297 296 297 300 301 302 303 302 302 302 302 302 300 298 296 298 297 298 300 301 301 303 306 309 310 311
302 302 302 302 301 301 300 300 300 300 298 298 297 296 296 296 296 295 295 295 298 298 298 299 300 301 301 300 301 299 299 297 296 296 296 297 297 299 300 301 303 305 307
300 300 300 300 299 298 298 298 298 297 297 297 296 296 295 295 295 295 294 295 295 297 298 299 298 300 300 300 299 298 298 298 296 296 295 295 296 297 296 298 299 301 301
299 299 299 298 298 297 296 295 295 296 296 295 295 294 294 294 294 294 294 295 295 295 296 295 295 295 295 296 297 297 297 296 296 296 294 294 292 293 294 293 294 294 295
298 298 298 297 297 296 295 295 295 295 295 295 294 294 293 293 293 292 292 292 292 293 294 293 293 294 294 294 295 295 295 295 295 294 294 293 292 291 292 291 293 294 295
297 296 296 295 295 295 294 294 293 293 292 292 292 292 292 292 292 291 291 291 291 291 291 293 292 293 293 293 294 294 294 295 294 294 294 294 293 292 291 291 291 291 291
295 294 294 294 293 292 292 291 291 291 291 291 290 290 290 290 289 290 290 290 290 290 290 291 291 291 292 292 292 293 293 293 293 293 293 292 293 293 293 293 292 291 291
292 291 290 290 289 289 289 289 289 289 288 288 289 289 289 289 288 288 289 289 289 289 289 289 290 290 290 290 291 292 292 292 293 292 292 292 292 292 292 291 291 291 291
290 289 289 289 289 289 288 288 287 287 287 287 287 288 288 288 288 287 286 286 286 286 287 288 289 290 291 291 291 291 292 292 292 292 292 292 293 292 291 290 290 291 291
289 289 289 289 288 288 286 285 284 284 284 284 285 286 286 287 287 286 285 285 284 284 285 286 287 289 289 289 289 290 290 290 291 290 290 291 291 291 292 292 293 292 291
289 289 288 288 288 287 285 284 282 283 282 283 284 285 286 286 285 285 285 285 285 284 284 284 284 284 285 286 287 288 288 289 289 289 289 290 290 291 291 291 291 291 290
289 288 288 288 287 286 285 283 281 281 282 282 283 284 284 284 284 284 284 284 284 283 284 284 284 284 284 285 285 286 287 287 288 288 288 289 289 290 289 289 289 289 289
289 288 288 287 286 285 284 282 281 280 281 281 282 282 283 283 282 282 282 283 283 283 284 284 284 284 284 284 284 285 286 287 288 287 287 288 288 289 289 289 288 288 288
289 288 287 286 285 284 284 282 281 280 280 281 281 281 282 282 282 282 283 283 284 284 284 284 284 285 285 285 285 284 284 285 286 287 287 288 288 288 289 289 288 288 289

GFSMA_925_thetae_006.txt.gz
Theta_e
323 321 320 318 317 317 317 317 317 318 318 316 313 311 311 312 311 310 311 312 311 309 305 308 313 313 317 319 320 323 325 325 326 328 322 328 327 326 326 326 327 327 326
322 320 319 319 318 318 317 317 317 318 319 318 316 313 312 311 311 311 311 312 311 310 306 305 309 312 311 314 317 319 322 324 325 325 327 328 327 326 326 327 327 327 326
320 320 320 319 319 318 318 317 318 318 317 318 317 316 314 312 312 311 310 311 311 309 308 304 304 310 311 307 310 315 318 320 322 323 324 326 327 325 326 326 327 327 326
319 319 319 318 318 318 318 319 318 318 319 318 317 317 316 314 312 312 311 310 310 309 308 307 303 304 304 304 305 305 309 314 317 320 322 323 325 326 326 326 326 326 327
317 317 317 317 317 317 318 319 319 319 320 319 319 318 316 316 314 312 312 311 310 309 310 309 307 304 303 303 303 304 304 305 308 315 318 319 321 322 325 326 326 326 326
316 314 314 314 314 316 315 316 317 315 315 315 317 317 317 316 316 315 313 312 311 310 309 309 309 305 302 302 302 303 305 304 305 307 311 318 318 319 321 322 324 323 326
313 312 311 311 310 311 312 311 311 311 312 313 314 316 314 314 316 317 315 314 312 311 310 309 309 308 305 303 302 302 304 307 308 309 310 312 317 318 318 320 322 322 323
311 310 309 309 310 309 309 309 310 310 309 309 312 312 311 311 312 312 313 314 314 312 311 310 309 309 308 309 306 303 303 305 304 306 302 305 311 315 315 315 317 321 322
311 308 307 307 307 307 307 307 308 308 309 307 307 309 309 309 309 309 311 311 311 312 313 312 310 309 310 309 306 304 303 302 301 300 300 300 304 308 312 312 311 312 317
307 306 305 305 305 305 305 306 306 306 306 307 306 306 304 303 305 306 308 308 308 310 311 312 311 310 310 308 305 304 303 303 300 300 299 301 305 304 312 312 309 309 310
305 304 304 303 304 303 304 305 304 304 305 304 303 301 301 299 300 300 302 300 301 303 305 309 308 309 306 305 304 303 304 303 302 300 299 305 306 304 304 311 311 311 308
303 303 302 302 303 303 302 304 303 303 302 301 300 300 299 299 298 297 298 297 298 299 301 301 305 304 304 304 304 304 303 301 301 299 300 304 304 306 302 307 309 311 312
303 302 302 301 302 302 301 300 299 301 300 299 299 298 297 297 297 296 295 295 296 296 297 298 300 300 301 302 302 302 302 301 301 300 298 301 303 303 302 304 310 311 310
301 300 301 301 300 299 298 298 298 298 298 298 298 297 297 296 296 296 295 294 294 295 296 298 298 298 299 301 301 300 300 297 297 297 298 298 298 299 300 302 304 307 309
300 299 299 299 298 298 298 297 296 296 296 296 295 296 296 296 295 295 295 295 295 295 294 294 297 296 297 297 298 299 299 299 298 297 296 296 296 297 296 296 299 302 304
298 298 298 297 297 297 296 295 295 295 295 295 295 295 295 295 294 294 294 294 295 295 295 295 295 294 294 295 297 297 298 298 297 296 296 296 295 295 295 295 293 294 295
296 296 295 295 295 295 295 293 292 293 293 292 293 293 293 293 293 293 293 292 292 293 293 293 293 293 293 293 295 295 295 295 296 295 295 294 294 294 294 293 293 293 293
296 295 294 294 294 293 292 292 292 293 292 292 292 291 292 292 291 290 290 291 291 291 292 291 291 292 291 291 292 292 293 295 295 296 296 295 294 294 293 293 292 291 291
294 293 291 291 290 290 290 290 290 290 289 288 288 288 289 290 290 289 289 289 289 290 289 289 290 290 290 290 290 291 291 292 293 294 293 294 293 293 293 292 292 292 292
291 291 290 290 290 290 289 289 288 288 287 286 286 286 286 287 288 289 289 289 288 287 286 287 287 288 289 289 290 290 290 290 291 291 292 292 293 293 292 292 292 292 291
290 290 289 289 289 289 288 286 286 285 285 285 284 284 285 286 286 287 287 287 287 286 286 286 286 286 288 289 290 290 290 291 291 292 292 292 292 292 293 292 292 291 291
290 289 290 289 289 289 287 285 285 284 283 283 283 283 283 284 285 286 286 286 285 285 285 284 284 285 285 286 287 287 288 289 287 289 290 290 290 291 291 291 292 293 292
290 290 289 289 288 288 286 285 283 282 282 281 281 282 283 284 284 285 285 285 285 285 285 284 284 284 284 284 284 285 286 287 288 288 288 289 289 289 289 290 291 290 290
290 290 289 288 288 287 286 284 283 282 281 280 281 280 281 282 283 283 283 283 283 283 284 284 284 284 284 284 284 285 286 286 286 286 287 288 288 288 288 289 289 289 288
290 289 289 288 287 286 285 284 283 281 281 280 280 281 281 282 281 282 282 283 283 283 283 283 284 284 284 284 284 284 284 285 285 286 287 287 287 287 288 288 287 288 287
289 288 288 286 286 284 285 283 282 281 280 280 280 280 280 281 281 281 281 283 283 283 283 283 282 282 282 283 283 285 285 284 284 284 285 286 287 287 287 288 288 287 287

GFSMA_925_thetae_009.txt.gz
Theta_e
322 320 319 318 318 318 317 317 317 317 317 318 317 316 313 313 312 311 310 310 311 311 311 310 305 307 311 316 318 320 323 324 325 327 325 327 328 327 327 327 327 327 325
321 320 319 319 318 319 319 318 317 317 318 318 318 318 317 314 313 312 311 310 310 311 311 310 308 305 308 311 313 314 318 321 323 325 325 327 326 326 326 326 326 327 327
320 319 319 319 317 317 318 317 317 318 318 317 318 318 318 317 316 313 312 311 310 310 310 309 309 307 305 308 313 309 311 317 320 323 324 325 328 328 327 326 326 326 327
319 317 316 315 316 316 316 316 317 318 318 318 317 317 317 317 316 315 313 312 311 310 310 309 309 308 307 304 306 313 308 309 314 319 321 324 325 326 327 326 326 326 326
316 314 312 311 312 312 312 313 313 311 311 310 311 312 314 315 316 315 315 315 313 311 310 310 309 309 308 305 303 310 313 313 309 311 316 320 321 323 325 326 326 326 327
313 312 311 311 310 309 310 310 309 309 309 310 310 310 312 312 314 312 313 312 314 314 312 310 309 309 308 307 305 307 312 312 312 313 313 315 317 319 320 322 324 326 326
312 312 311 309 309 309 307 307 307 305 307 308 308 308 308 308 309 309 309 311 311 312 313 312 310 309 309 308 307 303 307 310 311 311 312 313 314 318 318 319 321 322 324
312 309 307 306 306 306 305 305 304 306 307 306 307 307 305 307 307 307 307 307 308 307 309 310 311 309 309 309 307 306 304 307 310 310 311 311 309 316 317 317 318 319 322
307 305 304 304 303 305 304 303 303 305 305 305 306 305 303 304 301 304 303 305 301 303 303 302 308 310 309 309 309 308 304 304 305 309 310 310 309 307 313 314 314 313 314
304 303 303 302 302 302 303 303 303 305 304 304 304 303 301 299 300 299 299 298 300 297 297 298 301 305 308 309 308 307 308 305 303 304 304 307 308 310 311 314 311 310 309
302 302 302 301 301 302 302 302 303 302 302 302 301 300 300 299 298 297 296 296 296 296 296 297 297 299 305 305 305 306 305 305 304 301 300 301 306 308 309 313 313 310 309
302 301 301 301 302 302 301 300 300 301 301 300 300 299 298 298 297 296 296 295 295 295 294 294 297 298 300 303 304 303 303 303 303 301 301 299 300 306 308 308 310 311 311
301 301 299 299 299 298 298 298 298 298 298 298 298 297 297 297 296 296 296 295 294 294 294 294 295 297 297 299 301 301 301 301 301 300 300 299 299 302 305 306 308 308 309
300 298 298 298 298 297 297 297 296 296 296 296 296 296 295 295 296 296 296 294 294 294 294 294 294 296 295 296 298 299 298 300 302 301 299 298 299 300 301 301 303 307 310
297 296 297 296 294 294 294 295 294 293 293 294 293 294 295 295 294 294 294 295 294 294 293 294 294 293 293 294 296 296 297 297 297 298 297 297 297 297 297 297 298 301 304
295 294 294 295 295 295 294 294 293 292 292 292 292 292 292 293 293 292 292 291 292 293 293 293 293 293 293 292 294 295 295 295 296 298 296 295 295 296 296 296 296 295 295
295 295 294 293 292 291 290 290 290 290 291 291 290 289 288 288 290 291 291 291 291 291 291 291 290 290 291 291 291 292 293 294 295 296 296 296 295 295 294 294 294 294 294
294 293 291 290 290 289 289 290 289 289 288 287 287 286 286 286 286 287 288 289 289 289 289 289 288 288 288 289 289 289 290 291 292 294 295 295 295 295 294 294 293 293 292
292 291 290 290 289 289 289 289 288 287 286 286 285 285 285 284 284 285 287 287 288 288 288 287 286 287 287 287 288 288 289 290 290 291 292 294 294 294 294 294 293 293 292
291 290 289 289 289 289 289 288 287 286 286 285 284 284 283 283 283 284 285 286 287 288 287 286 285 285 285 286 287 288 288 289 290 290 290 291 291 292 293 293 293 293 292
291 290 289 289 289 289 288 287 286 285 284 283 282 281 281 282 283 284 285 286 286 286 286 285 285 284 284 285 285 286 286 286 287 289 290 290 290 291 291 292 293 293 292
290 290 289 289 289 288 287 286 285 284 283 282 281 280 280 281 282 282 283 284 285 285 285 284 284 283 284 284 284 284 284 285 285 288 288 288 289 289 289 290 290 291 292
290 290 290 288 288 287 286 285 284 284 283 282 281 280 280 280 280 281 282 283 282 283 284 284 285 284 284 283 283 283 283 284 285 286 286 287 288 288 288 289 289 290 291
290 290 289 288 288 286 284 285 284 283 282 281 280 280 280 280 281 281 281 282 282 282 282 282 283 283 283 284 284 284 284 285 285 285 285 285 286 286 287 287 288 289 289
289 289 288 287 284 284 285 284 283 282 281 280 279 279 279 279 280 281 281 281 282 282 282 283 283 284 284 284 284 284 284 284 283 283 284 285 286 286 287 287 287 287 287
289 287 286 284 284 284 282 282 282 280 279 279 278 278 279 280 280 280 280 280 280 280 280 281 282 282 281 281 281 281 283 284 284 283 284 283 284 285 286 286 286 287 287

GFSMA_925_thetae_012.txt.gz
Theta_e
321 320 319 319 318 319 318 319 318 317 317 318 318 318 318 318 316 314 313 312 311 310 309 309 310 310 308 308 312 314 317 319 320 322 324 326 326 327 328 327 326 327 327
320 319 319 319 317 317 317 316 317 317 316 318 318 318 318 318 317 314 312 312 311 310 310 310 310 309 308 308 308 314 315 314 316 318 322 324 324 324 327 327 326 325 327
320 319 317 315 313 313 314 314 315 316 315 313 311 310 311 311 313 315 315 315 313 311 310 310 310 310 308 308 308 307 314 318 315 315 317 321 324 324 326 327 327 326 324
318 316 312 311 311 311 311 311 311 311 310 309 309 309 310 310 312 311 311 314 314 313 311 311 310 310 309 309 309 308 306 313 317 319 315 317 320 324 325 326 327 326 325
315 314 313 313 311 310 309 309 308 307 306 305 306 306 307 307 308 310 309 310 310 311 312 312 311 310 310 309 309 308 307 307 314 316 317 315 316 319 323 325 327 326 326
312 312 311 310 309 309 308 307 306 306 304 304 304 303 303 302 302 308 308 307 307 308 310 310 310 309 309 309 309 308 308 311 314 315 315 316 316 316 319 321 323 325 325
311 311 308 307 306 306 305 304 304 303 303 303 305 304 304 303 307 305 305 304 304 302 304 306 305 310 310 309 309 308 308 313 313 313 313 313 314 312 315 318 319 321 323
306 306 304 303 303 303 303 303 303 304 304 304 305 305 302 303 303 303 303 302 302 299 298 297 298 301 307 309 308 308 310 311 312 313 312 311 311 311 310 317 318 319 320
304 303 302 302 301 301 302 302 302 302 304 304 304 304 301 301 299 301 300 300 299 298 296 296 296 297 298 301 308 309 307 308 307 309 311 311 311 311 310 313 317 317 316
302 302 301 301 300 301 302 302 302 302 302 302 302 302 301 300 300 299 299 298 297 296 295 295 294 296 298 300 304 306 309 307 307 307 308 310 310 311 310 312 314 314 313
301 301 300 300 300 300 300 299 299 300 300 300 300 300 299 299 298 296 296 295 295 295 294 294 294 296 298 298 302 304 306 307 307 306 306 307 308 308 309 311 312 314 313
301 301 300 298 297 297 297 297 297 297 297 296 297 297 296 297 296 296 295 295 294 294 294 294 294 294 297 296 297 300 302 303 304 304 304 302 304 307 308 309 310 313 313
300 299 296 295 295 294 294 294 294 294 293 293 294 295 294 295 295 295 295 296 294 293 293 293 293 293 294 293 295 296 297 301 302 302 301 302 304 304 305 307 308 309 310
298 295 293 293 293 293 293 293 292 292 292 292 292 292 292 292 294 293 294 293 293 294 293 293 293 293 292 293 294 294 296 297 298 300 300 299 300 302 303 304 305 307 310
297 294 293 293 293 293 292 292 291 290 290 291 291 292 291 290 290 291 292 291 290 291 292 293 292 292 291 291 291 294 294 293 295 296 297 298 298 299 297 298 299 300 303
296 294 293 293 292 290 290 289 289 289 290 291 290 288 287 286 286 285 288 290 291 290 291 290 290 290 289 289 290 290 293 293 293 293 295 297 298 298 297 297 296 296 296
295 293 294 292 290 290 289 289 289 289 289 288 287 286 286 286 285 285 284 284 287 290 291 290 290 289 289 289 289 289 289 292 291 292 293 294 295 295 295 295 295 295 294
294 292 291 290 289 289 289 289 289 288 287 286 286 285 285 285 284 284 283 284 286 286 288 288 287 287 287 287 287 287 288 288 291 290 292 292 294 294 294 294 294 293 293
292 293 291 289 289 289 289 288 288 286 286 286 285 284 283 282 281 282 282 283 284 285 286 287 286 286 286 286 285 285 287 288 289 290 290 292 291 294 295 294 294 293 293
293 294 290 289 289 289 289 287 287 286 285 284 283 282 281 280 280 281 282 283 284 285 285 286 286 285 285 285 284 285 286 286 287 288 289 290 291 291 292 293 293 293 293
294 291 289 289 289 289 288 287 286 285 284 283 283 282 281 280 280 281 282 282 284 285 285 285 284 284 284 284 284 284 284 283 284 286 288 289 289 290 291 291 292 292 293
290 292 290 289 288 287 286 286 285 284 284 283 282 281 280 280 280 280 281 282 282 283 283 284 284 283 283 283 284 283 283 283 283 284 286 286 287 288 288 289 290 290 291
292 290 289 288 287 286 285 284 284 284 283 282 281 280 279 279 279 280 280 281 281 282 282 282 283 284 284 284 283 283 283 283 283 284 285 286 285 285 286 287 288 289 290
291 288 288 286 285 284 284 284 283 282 281 280 279 278 279 279 279 279 281 281 281 281 282 282 282 282 282 283 283 283 283 283 283 284 284 284 285 285 285 285 286 287 288
288 288 286 284 283 283 282 282 281 279 278 278 278 278 278 278 279 280 280 280 280 280 280 281 283 283 283 283 283 284 283 284 283 283 283 283 283 284 284 285 286 286 286
288 286 284 282 281 280 280 280 279 278 277 277 277 277 277 278 279 280 281 280 279 279 279 279 280 280 280 281 280 281 281 282 283 283 283 283 283 283 284 284 284 285 286

GFSMA_925_thetae_015.txt.gz
Theta_e
322 319 318 318 318 317 317 316 315 315 315 314 316 317 316 315 316 317 316 315 313 313 312 311 311 312 316 315 312 310 308 308 311 313 316 320 323 324 324 326 327 327 327
320 319 318 318 315 313 312 312 311 312 314 313 313 312 311 310 310 312 313 313 314 314 313 311 311 311 311 311 310 310 311 309 307 308 309 313 318 322 324 324 327 326 326
320 319 316 312 311 311 311 311 310 310 310 309 308 308 307 308 310 310 311 311 312 312 312 312 312 310 310 310 310 310 310 312 312 307 306 307 313 318 323 324 323 326 326
317 313 312 312 311 311 310 309 308 307 306 305 305 303 302 302 302 302 303 307 308 309 310 310 311 312 311 310 313 311 309 314 317 315 311 306 307 311 317 322 323 325 326
313 312 311 311 310 309 308 306 305 304 304 304 303 302 301 300 301 302 307 306 306 306 307 307 307 309 311 311 310 312 315 314 315 317 317 314 308 307 309 315 321 323 324
312 311 310 308 307 306 305 304 303 303 302 303 302 302 301 300 301 305 303 303 303 303 302 301 301 301 302 308 311 310 313 315 315 315 316 315 314 310 306 308 313 319 322
308 307 306 304 303 302 302 301 301 301 301 302 303 302 302 302 302 302 302 301 301 300 299 298 298 297 298 298 304 309 310 314 315 315 314 315 315 313 309 307 308 314 318
306 304 303 302 302 301 300 301 302 302 302 302 303 302 300 302 301 302 300 300 299 298 297 297 296 295 295 296 298 301 306 309 310 314 314 314 314 313 311 309 308 311 316
303 303 302 301 300 300 300 300 300 300 300 300 301 302 300 299 298 300 299 299 297 296 296 295 294 294 294 296 297 299 302 304 308 308 310 314 313 314 312 310 308 312 315
301 301 300 300 300 299 299 298 298 298 299 299 299 300 299 299 299 298 297 297 296 295 295 294 294 294 295 297 297 299 302 303 304 306 308 308 311 311 312 312 310 312 315
301 303 304 301 299 297 296 295 295 296 296 296 296 296 296 296 296 296 296 294 295 295 295 294 294 294 294 296 294 296 299 299 302 303 305 307 309 310 312 311 310 312 313
305 303 301 297 295 293 292 293 293 293 293 292 293 294 294 294 294 294 295 294 294 294 294 294 293 293 293 293 293 294 296 296 297 301 302 303 306 308 308 308 309 311 313
303 301 297 294 293 292 292 292 292 291 291 291 291 292 292 292 292 293 293 293 293 292 293 293 293 293 293 292 292 293 294 295 294 297 299 301 302 304 307 308 309 310 310
301 299 295 293 292 292 291 291 291 290 289 290 290 291 291 291 291 291 290 290 290 290 291 291 292 291 291 290 290 291 295 293 293 293 297 298 300 302 303 305 307 308 308
298 295 294 293 293 293 291 291 290 290 290 290 290 290 290 288 286 286 285 288 290 289 288 290 291 289 289 290 289 289 291 295 294 292 294 296 297 300 298 296 300 303 307
297 295 294 294 293 291 290 289 289 289 289 289 289 288 287 286 286 286 285 285 284 289 289 289 290 290 289 289 289 289 289 289 293 292 291 294 295 297 299 297 295 295 298
295 295 293 293 292 290 289 289 289 288 288 288 287 286 286 285 285 284 283 283 283 284 286 286 287 288 289 288 288 288 288 288 289 292 291 291 292 294 296 296 297 295 293
296 294 292 293 292 289 289 289 288 288 288 286 285 285 284 283 282 281 280 281 282 282 284 284 285 287 288 288 287 287 286 287 288 289 290 290 290 291 292 294 294 294 295
295 293 294 293 290 289 289 289 288 287 286 285 285 284 283 282 281 280 280 280 281 282 283 283 284 285 286 286 286 286 285 285 285 288 289 291 290 291 291 293 294 294 293
294 294 294 292 289 290 289 288 287 286 285 285 283 283 282 281 280 280 280 280 282 282 283 284 284 284 285 286 285 284 284 284 284 285 287 288 290 291 292 292 293 294 293
294 294 291 290 291 289 288 287 286 285 284 284 283 282 281 280 281 280 280 281 281 281 283 283 284 284 284 284 284 284 284 283 283 283 284 287 288 289 290 290 292 292 293
294 291 292 290 287 287 286 285 285 285 284 283 282 281 280 279 279 279 280 280 281 281 282 282 282 283 283 283 283 283 283 282 281 283 285 285 285 286 287 288 290 290 291
292 291 288 287 286 285 284 284 284 283 281 280 279 278 278 278 278 278 279 280 280 281 281 282 282 282 282 282 283 283 283 282 282 283 283 284 285 285 285 285 286 288 290
291 288 287 286 285 283 282 282 281 280 279 278 277 277 278 278 278 279 279 279 280 280 280 280 281 282 282 282 282 283 283 283 283 283 283 283 284 283 284 285 285 286 288
288 287 285 284 283 281 280 280 280 278 277 277 277 277 278 278 278 280 280 280 281 280 280 280 280 281 281 283 283 283 283 282 283 283 283 283 283 283 283 283 284 286 286
287 286 284 282 281 280 279 279 279 277 277 277 277 276 277 278 279 279 280 280 280 279 280 280 280 279 279 280 281 281 281 281 281 281 282 283 283 283 283 284 284 284 285

GFSMA_925_thetae_018.txt.gz
Theta_e
321 319 318 318 317 315 313 312 312 311 311 311 312 311 310 309 309 310 311 312 313 313 314 314 313 314 316 317 319 317 312 310 309 308 307 307 310 317 322 323 323 325 327
319 319 318 315 312 311 311 310 310 310 309 308 308 306 305 304 305 305 307 309 311 311 313 313 313 313 313 312 312 314 318 315 311 311 310 306 307 309 315 321 324 324 326
319 318 313 311 311 311 310 309 308 307 306 305 304 303 302 302 301 300 301 302 304 307 309 310 310 310 312 312 311 311 313 317 317 314 313 311 308 306 309 314 321 324 323
313 312 312 311 310 309 308 306 305 304 303 303 302 302 301 300 299 300 303 305 305 306 306 306 307 307 308 309 311 312 312 315 315 317 317 315 312 309 306 307 311 320 323
312 312 311 310 308 306 305 304 302 301 300 300 300 299 299 298 298 301 303 302 301 302 302 302 301 301 301 302 304 308 312 314 316 317 317 317 316 314 309 307 306 307 319
311 310 307 305 304 302 301 301 300 300 300 302 300 301 299 298 302 301 301 300 300 300 300 299 298 298 298 297 297 299 305 312 314 316 317 316 317 316 314 310 308 306 306
308 305 304 302 301 301 300 300 299 299 299 300 301 300 298 301 299 299 299 299 300 299 298 298 296 295 296 296 296 296 300 303 308 311 313 317 316 316 315 314 311 309 306
304 303 302 301 301 302 303 301 299 299 300 300 300 300 298 299 300 300 297 299 297 297 297 296 295 294 294 294 294 295 297 302 300 305 308 310 313 314 315 314 313 310 308
302 302 302 304 305 301 300 298 297 297 298 298 298 300 298 297 297 298 298 296 297 296 296 295 294 294 293 294 295 296 297 299 301 302 305 307 309 311 314 314 313 311 309
303 304 305 304 301 299 298 296 295 294 295 296 295 297 295 296 296 296 296 295 295 295 294 294 294 294 293 293 296 294 295 297 299 300 302 305 307 310 311 313 313 312 308
303 303 303 302 299 297 294 293 292 292 292 292 292 293 294 294 293 295 294 294 293 293 293 292 292 294 293 293 292 292 293 295 296 296 299 302 304 307 309 312 312 313 311
302 302 301 297 294 293 292 291 291 290 291 290 291 291 293 293 293 292 292 292 292 292 290 291 292 293 293 292 291 291 293 295 295 294 294 298 301 303 306 310 311 311 310
301 301 299 295 293 292 291 291 290 290 289 289 290 290 290 291 291 292 291 290 290 289 291 289 288 291 291 291 289 290 291 294 293 293 292 293 298 301 302 305 308 309 310
301 300 297 294 294 293 292 292 291 290 289 289 289 289 290 290 290 288 291 289 288 288 287 288 288 288 289 289 290 289 289 294 295 294 292 291 294 298 301 301 305 307 307
299 298 295 295 294 293 293 292 291 289 289 289 288 289 289 289 287 286 285 285 286 286 285 286 287 288 288 288 289 289 289 289 289 293 293 290 292 295 299 299 298 304 307
297 297 296 295 293 293 292 291 290 289 288 288 288 288 287 286 285 285 284 283 283 283 284 284 285 286 287 289 289 289 288 288 288 288 292 291 290 293 296 298 297 299 303
296 297 296 294 293 293 292 290 289 288 288 288 287 286 286 285 284 283 282 281 280 281 282 282 283 284 284 284 288 288 287 287 287 288 290 290 290 290 293 296 298 295 297
294 295 295 293 292 293 291 289 289 288 288 287 285 285 285 284 283 282 281 280 280 280 281 281 282 283 283 284 287 287 287 287 286 286 287 289 290 290 291 294 294 296 295
294 293 292 293 293 291 289 289 288 288 286 285 285 284 283 283 282 281 280 280 280 280 280 282 283 283 283 284 285 286 286 285 285 284 285 288 290 290 289 292 292 292 294
294 293 294 294 290 290 290 288 287 286 285 285 284 283 283 282 281 281 280 280 280 280 280 281 281 283 283 284 284 284 285 284 284 284 284 286 288 290 290 290 291 292 293
294 293 293 291 291 290 288 286 286 285 284 284 283 282 281 280 281 280 280 280 280 280 281 281 281 282 283 283 284 284 284 284 283 283 283 283 287 289 290 290 290 292 293
293 292 291 290 287 287 285 285 284 284 283 281 280 278 277 278 278 279 279 279 280 280 281 281 281 281 281 282 283 282 282 282 283 283 284 284 284 285 286 287 290 291 292
291 291 289 286 286 285 283 282 282 281 280 279 278 277 277 277 277 278 278 279 280 280 280 280 280 281 281 281 282 282 282 282 282 282 282 283 283 284 285 286 286 289 291
291 290 286 285 284 283 281 281 281 280 278 277 277 277 277 277 277 278 279 279 279 279 280 280 280 280 280 281 281 281 281 282 282 282 282 283 283 283 283 283 285 287 290
288 287 286 284 283 281 280 279 279 278 277 277 277 276 277 277 277 279 279 280 279 280 280 280 280 280 280 280 281 282 281 282 282 282 282 283 283 283 283 283 283 285 286
288 286 285 283 282 281 279 279 279 278 277 277 277 276 276 277 278 279 279 278 279 279 279 280 280 280 280 279 279 280 281 281 281 281 282 282 283 283 282 283 283 283 285

GFSMA_925_thetae_021.txt.gz
Theta_e
320 318 318 317 315 312 311 311 310 310 309 308 308 307 305 304 303 305 306 306 307 309 311 312 313 313 313 314 315 313 312 316 320 317 313 312 309 309 310 319 321 323 324
319 318 316 312 311 311 311 310 309 308 307 306 305 304 303 304 302 301 303 304 301 302 306 309 309 310 310 312 314 316 314 311 312 317 316 315 313 309 308 308 315 322 323
318 314 313 312 312 312 310 308 307 306 305 305 305 304 303 303 302 299 300 300 303 304 305 305 304 304 305 306 308 311 315 317 315 314 316 317 315 314 311 307 308 314 322
314 313 312 311 309 307 305 305 304 304 304 303 303 303 303 302 302 303 305 304 303 303 302 302 302 301 301 301 302 304 308 311 316 317 317 315 317 315 314 311 307 307 312
312 312 311 308 305 304 303 302 302 301 302 302 302 302 302 300 301 303 304 302 301 300 300 300 299 298 298 297 297 300 304 306 310 315 317 318 317 318 316 315 312 308 306
309 308 306 304 303 302 301 302 302 302 302 302 300 301 300 299 302 303 302 301 300 300 299 298 298 297 296 294 294 296 302 304 306 309 311 314 316 317 317 317 315 312 308
305 305 303 302 302 304 303 301 301 301 300 300 298 298 298 301 302 301 300 299 299 299 298 298 297 297 296 296 295 295 301 302 303 305 307 309 311 313 316 317 317 315 312
304 303 303 304 304 302 300 299 298 299 299 299 297 297 299 298 300 299 298 298 297 297 297 297 296 296 296 295 296 295 297 298 301 302 304 306 308 310 312 314 315 316 314
304 303 302 303 301 299 300 298 298 297 296 296 296 297 298 298 296 295 296 296 296 296 296 296 295 295 295 295 295 296 297 294 298 300 301 303 305 307 309 312 315 315 315
303 302 302 302 300 298 296 296 295 294 294 293 293 295 294 295 295 295 294 294 293 293 294 293 293 294 294 295 294 294 293 292 294 298 299 301 302 304 307 310 312 314 315
301 301 301 301 299 296 293 291 292 293 293 292 292 292 292 292 292 294 293 292 291 291 292 291 291 291 293 294 293 292 291 292 294 296 297 297 300 301 304 307 310 313 313
301 301 301 300 297 293 292 292 290 290 292 292 291 291 291 291 291 291 292 291 291 290 289 290 290 290 290 292 291 291 290 289 294 295 294 295 296 298 302 303 306 310 313
302 301 300 299 294 294 295 292 293 293 292 291 291 291 291 291 291 290 290 290 290 289 289 289 289 289 288 289 290 290 291 290 291 295 294 293 291 294 298 301 302 305 310
300 299 299 298 294 297 294 293 294 294 293 292 291 291 290 290 291 290 289 289 290 289 288 288 287 287 288 288 289 288 289 289 289 289 291 293 292 290 294 298 299 302 305
293 296 298 296 296 294 294 294 294 294 293 291 290 290 290 289 289 288 287 287 287 288 289 287 286 286 286 286 287 288 289 290 288 288 289 290 292 290 290 294 298 300 302
292 293 296 296 296 294 294 293 293 292 291 290 290 290 289 288 287 287 286 286 285 285 287 285 284 284 284 284 285 286 287 289 288 287 288 289 291 289 289 291 294 298 299
293 294 295 295 294 293 293 293 292 290 289 289 289 288 287 286 286 286 285 284 283 283 284 283 283 282 283 283 284 285 285 287 288 288 287 289 289 289 289 290 293 297 298
292 293 294 294 293 292 293 291 289 289 289 288 287 286 286 285 285 284 284 283 283 282 282 282 282 282 283 284 284 284 285 287 288 288 286 285 287 289 290 290 291 295 296
293 294 293 293 294 293 290 289 289 288 286 286 286 285 285 284 284 283 282 282 282 281 281 281 282 282 282 282 284 285 285 286 287 286 285 285 285 288 290 290 290 293 296
293 294 294 293 291 289 289 288 288 286 286 286 285 284 283 282 282 281 281 281 281 281 281 281 281 281 282 282 283 284 285 286 286 286 285 284 284 288 290 290 290 292 293
293 292 292 291 291 288 286 287 287 286 285 284 282 281 280 279 279 279 280 280 280 280 280 281 281 281 281 282 282 283 284 284 286 285 285 285 286 288 289 289 290 291 293
292 291 290 289 287 286 285 285 284 283 282 281 280 280 279 278 279 279 278 279 279 280 281 281 281 283 283 282 282 282 284 283 286 285 285 285 285 286 287 287 289 290 291
290 291 290 287 286 284 283 282 281 282 280 280 279 279 279 278 278 278 279 279 280 280 280 280 281 281 281 281 281 282 283 283 283 284 284 284 285 285 285 286 286 288 290
290 290 287 286 284 283 282 281 280 280 279 279 278 278 278 278 278 278 280 280 280 280 280 281 281 281 281 281 281 282 282 282 283 283 283 284 284 284 285 285 285 286 288
289 287 286 285 283 282 281 280 280 280 279 279 278 278 278 278 278 278 279 279 279 279 280 279 280 281 281 281 281 281 282 283 283 283 283 283 283 284 285 285 285 285 287
287 286 284 284 283 282 281 279 279 280 279 279 279 278 277 277 277 278 278 278 278 279 278 279 280 280 281 281 280 280 281 282 283 284 283 283 284 284 285 285 285 285 286

GFSMA_925_thetae_024.txt.gz
Theta_e
326 323 322 320 319 318 317 316 316 315 313 312 311 310 309 309 308 308 307 307 305 301 302 306 309 312 313 313 314 316 318 318 317 319 317 313 312 310 308 309 316 322 323
324 322 320 318 317 316 316 315 314 312 311 311 310 309 309 308 308 307 307 307 307 305 304 304 304 305 306 308 308 309 312 315 318 319 319 318 314 313 312 308 308 312 320
320 319 317 317 316 314 313 312 311 310 309 309 308 308 307 308 307 307 307 307 307 307 304 303 302 301 302 302 303 305 307 309 312 316 318 319 318 316 313 312 309 307 310
314 316 315 314 312 310 310 309 309 308 308 308 307 307 306 307 306 306 306 308 307 306 305 303 301 299 299 299 301 302 304 306 308 310 314 317 318 318 317 314 313 309 307
311 310 311 310 309 308 308 307 308 308 308 307 307 305 304 304 303 301 304 306 305 304 303 302 300 299 299 299 300 300 302 303 306 308 310 312 314 317 319 319 316 314 310
311 310 309 308 307 308 308 308 307 307 305 305 303 301 301 300 300 302 304 303 302 302 301 301 300 299 298 298 298 299 301 302 304 305 306 308 310 312 315 318 318 316 314
308 308 307 308 308 307 306 305 304 303 302 302 302 300 300 300 302 303 302 301 301 300 300 299 299 298 298 298 298 298 299 301 301 302 303 304 306 308 310 313 316 317 316
307 307 306 306 305 303 304 304 303 302 301 300 300 299 301 300 299 301 298 299 298 298 298 297 297 297 297 297 297 297 297 298 298 299 301 302 303 304 307 309 312 315 316
306 305 304 303 302 301 301 302 301 300 299 298 297 297 300 300 297 296 297 296 297 296 295 295 295 295 295 295 296 297 296 295 295 296 299 300 301 302 304 306 309 312 315
304 303 303 303 302 301 301 300 298 298 297 297 296 296 295 295 297 297 295 295 294 294 294 293 294 293 293 293 295 295 294 292 291 294 298 298 298 300 302 303 305 309 312
304 304 303 303 303 302 300 298 297 297 296 296 295 294 294 294 293 294 295 294 293 293 293 292 291 291 291 292 292 293 292 291 290 294 297 297 297 297 299 301 304 305 308
303 303 303 302 302 301 299 298 298 297 296 294 293 293 293 293 293 292 293 292 292 291 291 291 290 291 290 290 290 290 291 290 290 291 293 296 296 295 296 298 300 303 305
299 299 299 298 299 300 298 298 297 297 296 294 293 293 292 292 291 291 291 291 291 290 290 290 290 290 290 289 289 289 290 289 288 290 290 292 294 295 294 295 298 301 303
296 296 296 297 299 299 298 297 297 296 295 294 293 293 292 291 291 290 290 290 291 290 290 289 289 289 288 288 288 287 288 288 289 290 290 289 290 291 292 290 292 295 299
295 295 295 296 297 298 298 297 296 296 295 294 293 292 291 291 290 290 289 289 289 292 291 288 288 287 287 287 286 286 286 287 288 289 289 289 289 289 290 289 289 290 294
295 294 294 295 296 296 296 296 295 295 294 293 292 291 291 290 290 289 289 288 288 288 291 287 287 286 286 286 285 285 286 286 286 287 287 288 288 290 290 289 289 289 291
295 294 294 295 295 295 295 295 295 295 293 292 291 291 291 290 289 288 288 287 287 287 287 286 286 285 285 285 285 285 286 286 287 287 288 288 287 287 288 288 289 289 290
295 294 295 294 294 294 295 295 294 292 292 291 291 290 290 289 288 287 287 286 286 285 285 285 284 284 284 284 284 285 285 286 287 287 289 288 287 286 286 288 289 289 289
294 294 294 294 294 294 293 292 292 291 290 290 290 289 288 287 286 285 285 285 284 283 284 284 284 283 283 283 284 284 285 286 286 287 287 287 286 285 285 287 289 290 290
294 294 294 293 293 292 292 291 290 290 290 289 288 287 285 284 284 283 282 283 283 283 283 282 282 283 283 283 283 284 285 285 286 287 287 287 286 286 285 286 289 289 290
294 293 293 293 292 291 290 290 290 289 288 287 285 284 283 282 280 280 280 281 281 281 282 282 283 283 283 283 284 284 284 284 285 285 287 287 287 287 288 289 289 290 290
293 293 293 292 291 289 286 285 284 286 286 285 284 283 283 282 281 280 280 280 279 280 281 282 282 283 283 283 283 283 283 284 286 285 287 287 287 287 287 288 289 289 290
293 292 293 291 290 289 285 283 283 284 284 283 283 282 282 281 281 280 280 280 281 281 281 281 281 283 283 283 283 283 283 283 284 285 285 286 286 286 286 287 287 287 287
292 292 292 290 289 287 284 283 282 284 283 283 282 282 282 281 280 279 279 280 280 281 280 281 281 281 281 281 282 282 282 283 283 284 284 285 285 285 286 286 286 286 286
291 291 291 290 288 287 283 282 281 283 283 283 282 281 280 279 279 278 278 279 279 280 280 280 279 280 280 281 281 281 282 282 284 284 284 284 285 284 285 286 287 286 285
290 290 289 289 286 286 283 281 280 283 283 282 282 281 279 278 277 277 277 278 279 279 279 279 280 280 281 282 282 282 282 282 283 284 285 284 285 285 286 286 287 287 287

GFSMA_925_thetae_027.txt.gz
Theta_e
327 325 324 322 321 320 320 320 319 318 316 315 314 313 312 312 311 311 310 309 308 307 306 305 310 311 311 310 310 311 311 313 316 319 318 320 320 317 314 310 308 313 321
323 324 322 320 320 320 320 318 317 314 313 312 312 311 311 310 310 310 310 309 309 307 307 305 304 305 307 307 306 307 308 309 311 313 317 319 319 319 318 316 313 309 308
321 320 319 319 319 315 313 313 312 311 312 311 311 310 310 309 308 308 308 307 308 309 307 304 303 302 303 303 304 304 305 306 308 309 311 314 317 318 318 318 318 315 309
319 317 318 316 312 312 312 312 311 311 311 311 310 310 308 305 304 305 304 303 307 308 306 304 302 301 301 301 301 302 303 304 305 307 309 311 312 314 316 318 318 318 316
314 314 314 313 312 312 311 311 311 311 310 309 307 305 304 302 303 302 303 303 306 305 304 303 302 301 300 300 300 300 301 303 304 305 306 308 309 310 312 314 317 319 319
314 314 313 312 312 311 311 311 310 308 306 305 303 303 303 302 301 302 305 305 304 303 303 302 301 300 300 300 299 300 300 301 302 303 303 304 305 307 308 310 312 315 318
312 312 312 311 310 309 308 308 306 304 303 302 302 302 301 300 301 301 302 303 301 301 300 300 299 299 299 298 298 299 299 299 300 299 300 301 302 303 304 306 308 310 314
311 310 310 309 307 306 304 303 304 303 302 301 300 300 301 299 300 300 299 299 299 298 299 298 297 297 297 296 297 297 298 297 297 297 297 299 300 301 302 303 305 307 310
309 308 307 306 304 304 303 302 302 302 301 300 300 299 300 299 298 297 297 297 297 297 297 296 296 295 295 294 295 295 295 294 295 294 295 297 299 299 300 301 303 305 306
307 305 304 304 304 303 303 302 301 300 300 299 299 298 298 297 297 297 295 295 295 295 294 294 294 294 293 293 293 293 294 293 291 292 293 296 298 298 298 299 300 302 304
305 305 304 304 304 303 302 301 300 300 300 299 298 297 295 295 295 295 296 294 294 293 293 293 293 293 292 292 292 292 291 290 291 291 292 293 295 297 297 297 298 299 301
303 302 301 301 300 300 301 300 300 300 299 298 297 295 295 294 294 294 294 293 294 293 292 292 292 292 291 291 291 291 290 290 290 290 290 290 293 293 296 296 296 296 299
300 299 298 298 298 298 299 300 299 299 298 297 296 296 295 294 294 293 293 292 293 292 292 291 291 291 291 290 290 290 289 288 288 288 289 290 291 292 293 294 294 294 295
298 298 297 297 297 298 298 299 299 298 297 297 297 296 295 294 293 293 292 292 293 292 291 291 290 290 290 289 289 288 288 288 287 287 288 290 291 291 291 293 293 293 293
297 297 297 296 296 296 297 299 298 297 297 296 296 296 294 294 293 292 292 291 291 293 292 290 290 289 289 288 288 288 287 287 287 287 286 286 288 290 290 292 293 292 292
297 297 296 296 296 296 296 296 296 296 296 296 296 294 293 293 293 292 291 290 289 290 292 289 289 288 287 287 287 287 287 287 287 287 287 287 287 288 289 291 291 289 289
297 296 295 295 295 295 295 296 296 296 296 296 294 293 293 292 292 291 290 289 289 289 290 289 288 287 286 286 286 286 286 286 286 287 287 288 287 287 288 288 287 287 288
297 296 295 295 295 295 294 295 294 294 293 293 293 292 292 291 290 289 288 288 287 287 287 287 286 286 285 285 285 285 285 286 286 287 287 287 288 288 287 287 287 286 287
297 296 295 295 294 294 294 293 293 293 292 292 292 291 290 289 288 287 286 286 285 285 285 285 285 285 284 284 285 285 285 285 286 286 287 288 287 288 288 286 286 286 287
296 295 295 294 294 294 293 292 292 292 292 291 290 289 287 286 286 284 283 283 283 283 283 283 283 284 284 284 285 285 285 285 285 285 285 286 288 288 287 286 286 286 286
295 295 294 294 294 293 292 291 291 290 289 289 288 287 286 285 283 282 281 282 282 282 282 282 283 283 284 284 284 284 284 284 285 285 286 287 288 289 288 287 287 288 290
294 294 294 294 293 292 290 288 286 287 287 287 287 286 285 284 284 282 282 281 281 280 281 282 283 283 282 283 284 284 284 284 285 284 285 287 286 288 288 288 289 290 289
294 294 293 293 293 291 289 287 285 285 286 286 286 285 285 284 283 283 282 281 281 281 281 282 282 283 283 282 282 283 283 284 284 284 285 285 286 287 287 287 287 287 286
294 293 293 293 292 290 288 286 284 284 286 286 285 285 284 283 282 280 279 280 280 281 281 281 281 281 281 281 281 282 282 283 283 283 284 285 285 286 286 287 287 287 287
293 293 292 292 291 290 288 286 284 285 286 285 285 284 283 282 281 279 278 279 279 280 281 280 280 280 280 280 281 281 283 283 284 284 284 285 286 286 286 286 286 286 287
293 292 291 291 291 290 287 286 283 284 285 285 284 283 283 280 278 277 277 278 278 280 279 278 279 280 281 282 282 283 283 284 284 284 284 286 286 286 286 287 287 287 288

GFSMA_925_thetae_030.txt.gz
Theta_e
326 326 324 323 321 320 320 319 318 317 315 314 312 311 311 311 310 310 310 310 309 309 307 308 309 309 309 308 307 308 308 309 311 312 314 318 318 319 319 318 315 312 309
322 324 322 319 319 320 319 316 314 312 311 312 312 311 311 310 308 306 306 308 307 307 308 306 305 305 305 304 304 305 306 306 307 308 310 312 314 316 318 319 319 318 315
322 320 319 319 319 316 312 312 312 311 312 312 311 311 309 308 305 303 304 304 304 307 307 306 303 302 303 302 303 303 303 304 306 306 308 309 311 312 313 315 318 319 318
320 318 318 318 315 313 312 312 312 312 311 311 309 307 305 304 303 303 303 303 302 305 307 305 303 301 302 301 302 302 302 303 304 304 305 306 307 308 310 312 313 315 318
315 315 315 314 312 312 312 312 311 310 308 306 304 303 303 303 303 301 301 304 306 305 303 303 301 301 301 301 301 301 301 303 302 303 304 303 304 305 306 307 309 311 313
315 314 313 312 312 312 310 309 308 307 305 303 303 303 302 301 300 301 302 303 302 301 301 300 300 299 299 299 299 300 301 301 302 302 301 300 301 302 302 304 305 306 309
313 312 312 311 310 308 307 304 303 304 304 303 302 301 301 300 299 300 298 298 298 299 299 299 297 297 297 297 297 297 298 300 300 299 298 298 298 299 301 301 302 304 306
312 311 310 308 307 305 304 304 303 303 303 302 301 301 300 299 300 298 297 297 297 297 297 296 296 296 296 295 295 295 296 295 296 296 296 296 296 298 299 300 300 301 303
310 308 306 305 305 305 304 304 303 302 301 300 300 300 299 298 297 297 296 296 295 295 294 294 295 294 294 294 293 293 293 293 293 293 293 294 295 296 299 300 300 300 301
308 306 306 305 305 305 304 303 303 302 300 301 300 299 298 297 296 295 296 295 294 294 294 294 294 293 293 293 293 292 293 292 291 291 292 292 292 293 295 298 299 298 298
306 305 304 302 301 300 300 301 301 301 300 300 299 298 298 296 296 295 293 294 294 293 293 293 292 292 292 292 292 292 292 291 291 291 291 291 291 291 293 295 297 298 298
303 301 300 299 298 298 299 299 300 301 300 299 298 298 297 296 295 295 293 293 293 293 292 292 291 291 291 291 291 290 290 289 288 288 289 290 290 291 291 293 294 296 296
301 299 299 298 297 297 298 299 300 300 299 298 298 297 297 296 295 295 294 293 292 292 292 291 291 291 290 290 290 290 289 289 288 288 289 288 289 289 291 292 292 294 295
299 298 297 297 297 296 296 297 299 299 299 298 297 297 297 296 295 294 294 292 292 291 291 291 291 290 290 289 289 288 288 288 288 287 287 288 288 288 288 289 291 292 294
298 298 297 297 296 296 296 296 296 298 298 297 297 296 296 296 295 294 293 292 292 290 289 290 290 289 289 288 287 287 287 287 287 287 287 287 287 288 288 288 289 290 292
298 298 297 296 296 296 296 295 297 296 296 296 296 296 295 294 293 293 292 292 291 290 289 289 289 288 288 286 286 286 286 286 286 286 286 286 287 287 288 288 288 289 291
298 298 297 296 295 295 295 295 295 294 294 294 294 294 293 292 292 291 291 289 289 288 287 287 287 287 286 286 285 285 285 285 285 285 286 286 286 287 287 287 288 289 288
298 298 297 296 295 295 295 294 294 294 293 293 293 293 292 291 290 289 288 287 286 285 285 285 285 285 285 284 285 285 285 285 285 285 285 286 286 287 287 288 288 287 287
298 298 297 295 295 295 294 294 293 293 293 292 292 291 290 289 287 287 286 284 284 284 284 283 283 283 283 283 284 284 284 285 285 285 285 285 286 286 287 288 288 288 287
297 297 296 295 295 295 294 293 292 292 292 291 290 290 288 287 286 285 284 283 282 282 282 282 282 282 282 283 284 284 284 284 284 285 285 285 285 286 287 288 288 287 286
297 296 295 295 294 294 293 292 290 290 289 288 288 287 287 286 285 284 283 282 282 281 281 281 281 282 282 282 282 284 284 284 283 284 284 285 285 285 286 286 288 287 286
296 295 295 294 294 294 293 291 289 288 287 287 287 286 286 285 284 284 283 282 281 281 281 281 281 282 282 283 283 282 282 282 283 283 284 284 284 285 285 287 288 288 288
294 294 295 294 294 293 292 290 288 287 286 286 286 286 285 285 284 283 282 281 280 280 281 281 282 282 282 281 281 280 281 281 282 282 283 283 283 285 285 286 287 287 287
294 294 294 293 293 293 291 290 288 286 286 286 286 285 285 284 283 282 280 279 279 279 280 280 280 280 280 280 280 281 281 281 282 283 284 283 284 285 285 285 285 285 286
293 294 294 293 292 292 290 289 287 285 285 285 285 285 284 283 282 281 279 277 278 278 279 279 278 279 280 281 281 282 282 282 282 283 284 284 284 285 286 285 286 286 286
293 293 293 292 291 291 290 288 286 285 284 284 285 284 283 282 281 280 278 277 277 278 278 277 278 280 280 281 282 282 283 283 284 284 284 284 284 285 285 286 286 287 287

GFSMA_925_thetae_033.txt.gz
Theta_e
326 325 322 321 320 320 320 318 316 313 312 312 312 311 310 310 308 306 304 304 305 305 310 311 310 308 307 306 305 305 306 306 307 308 309 310 312 313 314 316 318 319 318
321 323 322 320 319 318 316 314 312 311 312 311 311 311 309 308 306 305 303 303 303 303 307 307 306 306 305 304 304 304 304 304 305 306 307 307 309 310 311 312 314 315 317
322 321 319 319 318 314 313 312 312 312 312 311 309 308 306 304 303 303 302 301 302 303 306 305 304 303 303 303 303 303 303 303 303 303 305 306 306 306 307 308 309 311 312
320 319 318 317 313 312 312 312 312 311 310 308 305 303 302 303 302 301 301 302 303 305 307 303 302 303 302 302 302 302 302 303 303 304 304 304 303 303 303 304 306 307 308
317 316 315 312 312 312 311 310 309 307 306 304 303 302 302 301 300 299 299 299 298 300 302 303 299 298 298 300 300 301 302 301 303 303 302 301 300 300 300 302 303 304 306
315 314 312 312 312 311 309 307 304 304 303 303 302 301 300 299 299 298 297 297 297 298 297 297 297 296 296 296 297 298 299 300 300 300 299 299 299 298 299 300 301 302 303
313 313 311 309 308 307 304 304 303 302 303 302 301 299 300 300 299 298 297 296 296 295 295 294 295 295 296 296 295 296 296 297 297 297 297 297 296 296 297 299 301 301 301
312 311 311 309 306 304 304 304 303 303 302 301 300 300 297 298 298 297 296 296 295 294 294 293 293 294 294 294 294 294 293 294 295 294 294 294 294 295 295 296 299 301 301
310 308 305 305 305 305 304 303 303 302 301 301 300 299 296 296 296 296 295 295 295 294 293 293 293 292 292 292 292 292 292 293 293 294 293 293 293 293 293 294 295 298 300
308 306 306 305 305 303 301 300 301 301 301 300 300 299 298 297 294 293 295 294 293 293 293 293 292 292 291 291 292 291 291 292 291 291 292 292 292 292 292 292 293 295 298
307 305 304 302 301 299 298 298 298 299 302 300 299 298 298 297 297 293 291 292 294 293 293 292 292 291 290 290 291 290 290 290 289 290 290 290 291 291 291 291 292 293 295
302 301 300 299 298 297 297 297 298 299 300 300 299 298 298 297 295 294 291 292 292 293 292 292 291 291 290 290 290 289 289 290 289 290 289 289 290 290 290 290 290 292 293
300 299 299 298 297 297 296 296 296 297 299 299 299 298 297 297 297 295 294 293 291 292 292 291 290 290 290 290 289 289 288 288 288 288 289 289 289 289 289 289 289 290 292
300 298 298 297 297 296 296 296 296 296 298 299 298 297 297 296 296 295 294 293 290 290 291 290 289 289 289 289 288 287 287 287 286 286 288 287 288 288 288 288 288 289 290
299 298 297 297 296 296 295 296 295 297 296 295 295 295 295 296 296 294 294 293 292 290 289 289 289 288 287 287 287 286 286 285 286 286 285 286 286 286 287 288 288 289 290
298 298 298 297 296 295 295 296 296 295 294 294 293 293 294 294 293 292 291 291 290 289 287 286 286 285 286 285 285 285 284 285 284 284 285 285 286 286 286 287 288 288 289
298 298 298 297 296 295 295 295 294 294 294 293 293 293 292 292 291 290 288 287 286 285 284 284 284 284 283 283 283 283 283 284 284 284 285 285 285 285 286 286 287 288 288
298 298 298 297 295 295 295 294 294 293 293 293 292 292 291 290 289 287 287 286 285 283 283 282 282 282 282 282 282 282 283 283 284 284 285 284 285 285 285 285 286 286 287
298 298 298 296 295 295 295 294 293 293 292 292 291 290 290 289 287 287 286 285 283 282 282 282 281 281 281 281 282 282 282 283 283 284 283 284 284 284 285 285 286 286 287
297 297 297 296 295 295 295 294 293 292 291 290 289 288 288 287 286 285 284 283 282 282 282 281 280 280 281 281 282 282 283 282 281 281 282 282 283 284 283 284 284 285 286
297 297 296 296 295 294 294 294 293 292 289 289 288 287 286 285 285 285 283 283 282 281 281 281 280 280 281 281 281 282 281 280 280 280 281 283 282 282 282 283 284 285 287
296 296 295 295 295 294 294 293 292 290 289 287 286 286 286 285 285 284 283 282 281 280 280 280 280 280 281 281 281 280 280 279 280 280 282 281 282 283 283 284 285 285 288
294 294 294 294 294 294 294 293 291 290 287 286 286 286 286 285 284 283 283 282 281 279 279 279 279 279 279 279 279 280 280 280 280 281 281 281 282 283 284 284 285 285 286
293 293 293 294 293 293 293 292 291 288 287 286 285 286 285 284 284 283 283 281 280 277 277 279 279 278 278 279 280 281 281 281 281 282 282 282 283 283 284 284 285 285 286
293 293 293 294 293 292 292 291 289 287 286 285 285 285 285 284 283 282 281 281 277 276 277 278 278 279 279 280 281 282 282 282 282 282 283 283 284 284 284 284 286 285 285
292 292 293 292 292 291 291 291 289 287 286 285 284 284 284 283 282 282 281 279 276 277 278 278 278 278 278 280 280 280 281 281 281 282 283 284 284 284 283 284 285 285 285

GFSMA_925_thetae_036.txt.gz
Theta_e
324 322 322 320 319 317 316 314 312 312 311 311 311 310 308 307 305 304 303 302 302 303 310 312 310 308 307 306 305 305 305 306 306 306 307 308 307 308 308 309 310 312 314
324 322 320 319 318 317 315 313 312 311 311 311 310 308 305 303 302 302 302 301 301 304 308 309 307 306 305 305 304 304 304 304 304 305 306 305 305 305 305 305 306 308 309
321 320 318 317 316 313 312 311 311 311 311 309 308 304 302 302 302 300 301 301 303 307 308 305 304 305 304 304 304 303 303 303 304 306 305 304 303 302 302 302 304 305 306
321 319 318 315 313 312 312 312 311 310 308 305 303 302 301 301 299 299 298 298 300 306 304 303 302 302 302 303 303 303 303 302 302 303 303 301 301 301 301 301 301 303 304
318 318 314 312 312 311 310 309 307 305 304 303 302 301 301 300 298 298 297 297 298 301 299 296 296 296 297 299 299 299 300 300 300 301 301 300 299 299 299 299 300 301 302
315 313 312 312 311 311 309 306 303 302 302 302 302 300 299 299 298 297 296 296 295 295 295 294 294 294 295 297 297 297 297 298 298 298 297 297 297 297 297 297 297 299 301
315 312 312 311 310 309 306 303 303 302 302 301 300 299 299 299 298 297 296 295 295 295 294 293 293 293 293 293 294 295 295 295 296 296 295 295 295 295 295 295 295 296 298
313 311 311 310 307 304 304 303 302 302 301 301 300 298 295 297 298 297 296 295 295 294 294 293 293 292 292 292 291 292 293 294 294 294 294 294 294 293 294 294 294 295 295
311 310 308 306 305 305 304 303 302 302 301 300 300 299 296 295 295 296 296 294 294 294 293 292 292 292 291 291 290 291 291 291 292 293 293 293 293 293 293 293 293 293 294
310 307 305 305 305 303 301 299 299 299 300 300 300 299 299 298 294 292 294 295 294 294 293 293 292 292 291 290 290 290 290 289 290 291 291 292 292 292 292 292 292 292 293
308 306 305 304 302 299 297 297 297 297 299 300 299 299 298 297 297 293 292 292 293 293 293 293 292 292 291 290 290 290 289 289 290 291 291 291 291 291 291 291 291 291 291
306 304 301 300 299 297 296 296 296 296 298 299 299 298 298 297 296 295 290 291 291 294 293 292 292 291 290 289 290 289 289 290 288 289 289 289 290 290 290 290 290 291 291
300 299 299 299 297 296 296 295 295 296 296 298 298 298 297 297 297 296 294 293 291 293 292 292 291 289 289 289 288 288 287 287 286 287 288 288 288 288 288 288 289 289 290
300 298 298 297 297 296 295 295 295 295 296 297 296 295 295 295 295 296 294 294 292 289 290 291 290 289 288 286 286 286 286 286 285 286 286 286 286 286 287 287 287 288 289
299 298 298 297 297 296 295 295 295 296 295 294 293 292 293 294 295 294 294 293 291 290 288 289 287 286 285 285 285 285 285 284 285 285 285 285 285 286 287 287 288 288 288
299 298 298 298 297 296 296 295 295 296 294 293 293 293 292 293 292 292 291 290 289 288 285 286 285 284 283 282 282 282 282 283 283 283 284 285 285 286 286 287 287 287 287
299 300 299 298 297 296 295 295 295 294 294 293 292 293 292 291 291 291 289 287 286 285 283 283 283 282 281 280 280 281 281 282 283 283 284 284 285 285 285 286 286 286 287
301 299 298 297 297 296 295 295 295 294 293 293 292 292 291 290 290 288 287 286 285 283 282 282 282 281 280 280 281 281 282 282 282 282 283 283 283 283 284 284 285 284 285
300 298 297 297 296 296 295 295 294 293 293 292 292 291 289 289 289 287 286 284 283 283 282 282 281 281 280 280 280 281 281 281 281 281 280 281 281 282 284 285 284 285 286
298 297 297 297 296 295 295 295 294 293 292 291 290 289 288 287 286 285 285 283 283 282 282 281 280 280 280 280 280 281 281 280 280 279 280 280 281 282 282 282 283 283 285
296 296 296 296 296 295 294 294 294 293 292 290 289 288 286 286 285 285 284 283 283 282 281 280 279 280 280 280 280 280 280 279 279 280 280 281 281 282 282 283 283 283 284
295 295 295 294 294 295 294 294 294 293 291 290 288 286 286 286 285 285 284 283 282 280 279 279 279 279 279 279 278 278 279 279 280 280 281 281 281 282 283 283 283 284 284
294 293 293 293 293 294 294 294 293 292 290 289 287 286 286 285 285 284 283 282 281 281 278 277 278 279 278 278 279 279 279 280 280 281 281 281 282 282 283 283 283 284 285
294 293 293 293 293 293 293 293 293 291 290 288 286 286 285 285 285 284 283 282 281 281 277 277 278 278 278 279 280 280 281 281 281 281 281 281 282 283 284 284 283 285 285
293 292 292 292 293 293 293 292 291 290 289 288 287 286 285 284 284 283 282 281 281 279 277 278 278 278 278 279 279 280 280 280 280 280 281 282 282 282 283 284 284 284 285
292 292 292 292 292 292 292 291 291 289 288 287 286 285 284 284 283 282 281 281 280 278 278 278 278 278 278 278 278 278 279 279 280 280 281 281 282 283 283 284 284 284 284

GFSMA_925_thetae_039.txt.gz
Theta_e
326 325 321 322 320 317 316 313 312 311 311 310 309 308 306 304 303 302 302 301 301 303 309 312 310 308 307 306 306 305 305 305 305 307 306 306 305 305 304 304 305 306 307
323 324 320 318 316 315 313 312 311 311 310 309 307 304 302 302 301 301 300 299 301 305 311 309 307 307 305 305 304 304 304 304 306 306 305 304 304 303 303 302 302 304 305
322 320 318 316 314 313 312 311 311 310 310 307 303 301 301 300 300 299 300 303 305 309 306 305 305 305 304 305 304 304 304 303 303 304 303 302 301 301 301 301 301 302 303
321 319 317 314 312 312 311 311 310 308 305 302 301 301 301 299 298 297 297 299 306 305 303 301 300 299 299 301 301 301 302 301 302 302 302 301 300 299 299 299 299 300 301
319 317 315 313 312 311 310 309 307 304 302 302 302 301 300 299 297 296 296 297 301 302 299 296 296 296 297 298 298 298 299 299 299 300 299 299 298 297 297 297 297 297 298
317 315 313 311 311 310 310 307 303 302 302 302 301 300 299 298 297 297 296 296 295 295 295 294 294 294 295 296 296 296 297 297 297 298 298 297 296 296 295 296 296 296 296
314 312 312 311 311 310 306 303 303 301 301 300 300 300 299 297 297 297 296 295 295 294 293 293 293 293 293 292 292 294 295 295 295 295 295 295 295 295 294 294 295 295 295
313 312 311 310 309 305 304 303 302 301 301 300 300 297 294 297 297 297 295 296 294 294 293 293 292 292 291 291 290 290 292 292 293 293 294 294 294 294 294 294 294 294 294
313 312 311 308 304 304 304 302 301 301 300 300 300 299 295 294 295 297 296 295 294 295 294 292 292 292 291 291 290 290 290 290 291 291 292 293 293 293 293 293 293 294 294
311 309 307 304 305 304 302 299 298 298 298 299 299 299 298 297 294 293 295 294 296 295 293 293 292 292 291 291 290 289 290 289 289 290 291 292 292 292 293 292 292 293 293
309 307 305 305 303 299 297 296 296 296 297 299 300 299 298 297 296 293 292 293 295 294 294 293 293 292 291 290 289 289 289 289 289 291 291 291 291 291 291 291 291 291 292
307 305 304 301 299 297 296 295 295 295 296 298 298 298 297 297 296 295 290 291 291 293 294 294 292 291 289 289 289 289 289 288 287 287 289 289 289 290 290 290 290 290 290
304 301 299 298 298 301 296 295 295 295 295 296 297 297 296 296 296 296 294 292 292 293 292 293 291 290 289 287 287 286 286 286 286 286 287 287 288 288 288 288 288 288 289
302 299 299 299 301 297 296 295 295 295 295 295 295 294 293 292 292 294 294 294 293 293 291 291 290 288 287 286 285 285 284 284 284 284 285 286 285 286 286 287 287 288 289
300 299 299 299 298 297 297 297 295 295 295 295 294 293 292 292 292 293 294 293 291 292 289 289 288 286 285 283 282 281 282 281 283 283 284 284 285 285 286 286 287 287 288
299 302 299 299 299 298 298 296 295 295 295 294 293 293 292 292 291 291 291 291 291 289 286 287 285 284 282 282 280 281 281 281 281 282 283 284 284 285 285 286 286 286 287
303 300 299 300 299 298 296 295 295 295 294 294 293 293 292 292 291 290 290 289 287 286 284 284 283 282 282 281 280 280 280 281 281 281 283 283 283 284 284 284 285 286 286
299 299 301 299 298 296 296 295 295 294 294 294 293 292 292 291 290 290 288 287 286 284 283 282 282 282 281 280 280 280 280 281 281 280 281 281 281 281 282 283 284 285 285
301 300 300 298 297 297 295 295 294 294 294 293 293 292 291 290 289 289 287 286 284 283 282 281 281 281 280 279 279 280 280 280 280 280 280 280 281 281 282 283 284 284 284
300 298 298 297 297 296 295 295 294 294 294 293 292 291 290 289 288 287 285 285 283 283 282 281 281 280 279 279 279 280 279 279 279 279 280 281 281 281 282 282 282 283 283
297 296 296 296 296 295 294 294 294 294 293 292 291 290 289 287 286 285 285 284 283 283 282 280 279 278 278 278 279 278 278 278 279 280 280 281 281 281 282 282 283 283 283
295 296 297 296 295 294 293 294 294 294 293 292 291 289 287 286 286 285 285 284 283 282 281 279 278 278 277 278 278 278 278 278 279 280 280 280 280 281 282 283 283 283 283
298 297 295 293 293 292 293 293 293 293 292 291 290 289 287 286 285 285 284 283 282 281 280 279 276 277 278 278 278 278 279 279 280 280 280 280 280 281 282 282 282 283 284
296 293 293 292 292 292 292 293 293 292 291 290 289 288 286 286 285 284 283 282 282 281 281 278 277 278 278 278 279 279 279 279 279 279 279 280 280 281 281 283 283 283 284
293 292 292 291 292 292 291 292 292 292 291 290 288 288 286 286 285 284 283 282 281 281 280 278 278 278 278 278 278 278 278 279 278 278 279 280 280 280 281 283 283 284 283
293 292 292 292 292 291 291 291 291 291 289 289 289 288 286 285 284 284 283 282 281 281 279 278 279 278 279 278 278 277 277 277 278 278 280 279 280 281 282 283 283 283 283

GFSMA_925_thetae_042.txt.gz
Theta_e
321 318 320 320 319 316 316 314 312 311 310 309 308 306 304 302 301 301 300 299 301 303 309 312 310 308 307 306 305 305 305 305 306 306 305 304 304 303 303 302 303 303 304
325 324 321 318 316 315 313 312 311 310 309 308 305 301 301 300 300 300 298 300 304 308 311 308 307 307 306 305 304 304 304 304 305 304 304 303 302 301 301 301 300 301 302
323 323 319 316 314 314 313 311 310 310 308 304 301 300 300 299 299 299 300 305 308 309 306 306 306 305 305 306 305 304 303 303 303 302 303 302 301 300 299 299 299 299 300
321 319 317 315 314 313 312 311 310 307 303 301 301 300 300 299 298 298 299 306 306 304 303 302 301 300 299 300 300 300 301 301 301 301 301 300 300 298 297 298 298 298 298
320 318 316 315 313 312 310 309 306 303 301 300 300 300 300 298 296 296 296 297 300 301 300 298 296 295 295 298 298 298 298 298 299 299 299 299 298 297 297 296 296 296 297
320 317 316 314 312 310 308 305 303 302 300 300 300 300 299 297 296 296 296 295 296 295 295 294 294 293 294 294 296 296 296 296 297 297 296 297 296 296 296 296 295 295 296
318 316 314 311 309 309 306 303 302 301 300 300 300 299 298 296 297 296 295 296 296 294 293 293 293 293 292 292 292 294 294 294 294 294 295 295 296 296 295 295 295 295 295
316 313 312 310 309 307 304 303 302 301 300 300 299 297 294 296 297 297 296 296 296 293 294 293 293 292 292 291 291 290 292 292 292 293 293 293 294 294 294 294 294 294 295
313 312 311 309 306 304 304 303 301 300 299 299 299 298 295 295 294 296 296 296 294 294 296 295 292 292 291 291 290 290 290 290 291 291 292 292 293 293 293 293 294 294 294
312 310 308 307 304 304 301 298 297 297 296 297 298 299 298 297 295 294 296 296 296 296 295 293 293 292 291 291 290 289 289 290 290 291 291 292 292 292 293 293 293 293 293
310 309 307 305 304 300 297 297 295 295 295 297 299 299 298 297 296 293 292 294 296 296 295 295 294 292 291 290 289 289 289 289 289 289 290 290 290 291 291 291 291 292 292
309 307 305 303 299 298 298 298 295 294 294 296 297 298 298 297 296 295 291 292 291 294 294 292 293 291 290 289 288 287 287 287 287 287 288 289 289 289 290 290 290 290 290
307 305 303 300 299 302 298 299 296 294 294 294 295 297 297 296 295 294 294 293 291 293 293 292 292 290 290 289 286 286 285 285 284 284 285 286 287 288 288 288 288 288 288
307 303 300 299 301 303 303 298 296 295 295 294 295 295 294 293 292 292 293 293 292 292 291 291 291 290 288 286 285 283 282 282 281 282 284 285 285 285 286 286 287 287 288
305 300 299 301 305 304 299 297 297 296 295 295 295 294 293 293 292 292 292 292 291 291 289 290 290 288 287 285 283 282 280 280 281 283 283 283 284 284 285 286 286 287 288
306 302 300 302 303 298 299 298 297 296 295 295 294 294 293 292 292 291 291 291 291 290 288 288 287 285 284 282 282 280 279 280 280 281 282 283 283 283 284 284 285 285 286
303 300 299 302 299 299 297 297 297 295 295 295 294 293 293 292 292 291 291 290 290 289 286 285 284 283 282 282 281 279 279 280 280 280 281 282 282 282 282 282 283 284 284
300 299 301 298 298 297 298 297 295 295 295 294 294 293 293 292 292 291 291 290 288 286 284 283 283 282 282 281 279 278 279 280 280 279 280 281 281 281 282 282 282 283 283
300 302 298 298 299 299 297 296 295 295 294 294 294 293 292 292 291 290 289 288 287 285 284 282 282 281 281 280 278 278 279 279 278 279 279 280 281 281 282 282 283 283 283
300 298 299 298 296 296 296 295 294 295 294 294 294 293 292 292 291 289 288 287 286 284 283 282 281 281 280 279 277 279 278 278 278 279 280 280 280 280 280 281 282 282 283
298 296 296 296 296 296 294 295 295 294 294 294 293 292 292 291 289 287 286 285 285 284 282 282 281 279 278 277 277 278 277 278 278 279 280 280 280 280 280 281 282 282 283
296 298 297 297 296 296 294 293 292 293 294 294 293 292 291 289 288 286 285 285 285 284 282 281 280 279 278 277 278 277 277 278 279 279 280 279 279 279 280 281 282 282 283
298 298 297 296 293 293 292 292 292 293 293 293 292 291 290 289 287 286 285 285 284 283 282 281 280 279 277 277 278 278 278 278 279 279 279 279 279 279 280 281 282 282 283
297 296 295 293 292 292 292 292 291 292 292 292 291 290 289 288 286 286 285 284 283 282 281 280 280 278 278 278 279 278 278 278 278 278 278 278 279 280 280 281 283 283 283
295 294 293 292 291 291 291 291 291 291 291 291 290 289 288 287 289 286 285 284 283 282 281 281 279 278 279 279 279 278 277 277 277 277 277 278 279 279 280 281 283 283 283
292 292 292 292 292 291 291 291 290 290 290 290 290 289 288 288 288 286 284 284 283 282 281 280 278 278 278 278 278 278 277 277 277 277 278 278 278 279 280 281 282 282 282

GFSMA_925_thetae_045.txt.gz
Theta_e
316 317 317 319 319 316 315 313 311 311 310 308 307 305 302 300 300 299 300 299 300 304 312 312 310 309 307 306 305 305 305 306 304 305 305 304 303 302 302 302 301 301 302
318 317 320 319 317 315 313 312 312 310 308 307 305 301 300 299 299 299 305 307 303 307 312 310 309 307 307 306 305 305 305 304 304 304 304 304 302 301 300 300 299 300 300
325 324 320 317 315 313 313 312 311 309 308 303 301 300 299 299 299 298 304 306 308 310 307 307 307 306 306 306 304 303 302 302 302 302 301 302 301 301 299 298 298 299 299
324 323 319 316 314 313 312 311 310 307 303 301 300 300 299 299 298 298 301 305 306 303 304 304 303 301 300 300 300 300 300 300 300 300 301 300 300 299 298 297 297 297 298
322 320 317 315 313 312 311 309 307 303 302 302 301 300 299 298 298 298 299 301 301 300 299 298 295 295 294 296 297 297 298 298 299 299 299 298 298 298 297 297 297 296 296
320 318 315 315 313 312 309 307 304 301 301 301 300 300 299 297 297 297 296 296 296 296 295 294 295 295 293 293 294 296 296 296 297 297 297 297 297 297 297 297 297 296 297
321 317 316 314 312 310 308 305 302 301 301 299 300 301 299 297 297 297 296 296 296 295 294 294 294 294 294 293 292 293 294 294 295 295 295 295 295 295 296 296 296 296 296
319 318 316 313 310 308 305 303 302 302 300 299 301 300 300 299 298 298 296 296 296 294 294 295 295 294 293 293 292 291 292 293 293 294 294 294 294 294 295 295 295 295 296
318 316 313 311 308 307 304 303 302 300 300 300 299 300 300 300 299 298 297 296 296 295 295 296 295 293 292 292 292 291 290 289 292 293 293 293 294 294 294 294 294 295 295
315 313 311 309 307 304 304 302 298 297 298 299 299 299 299 299 300 299 298 297 297 296 296 295 294 293 292 291 291 290 289 289 290 291 291 292 292 292 292 293 293 293 294
313 311 310 308 306 304 302 299 296 295 295 295 298 299 299 299 298 298 298 297 295 295 294 294 295 293 292 291 290 290 289 288 288 288 289 290 290 290 291 291 291 292 292
312 310 309 307 304 302 299 301 301 298 295 296 297 298 298 298 297 297 297 295 295 293 293 293 294 293 290 289 288 288 287 286 286 285 286 287 288 288 289 289 290 290 291
311 309 307 305 302 300 301 301 303 299 295 294 294 297 298 297 296 295 295 294 294 293 293 293 293 292 290 290 288 286 285 284 283 282 283 285 286 286 287 287 288 288 289
312 310 306 303 300 301 302 304 298 295 295 295 295 296 297 296 295 294 294 293 294 292 292 292 292 291 289 288 286 285 284 283 282 281 283 284 284 285 286 286 287 287 288
313 309 304 301 300 302 304 300 296 296 296 295 295 295 295 295 294 294 294 293 293 293 293 291 291 290 288 286 285 284 284 282 280 280 281 282 283 284 284 285 285 286 286
313 308 302 299 300 302 300 298 296 296 296 296 295 295 295 294 294 294 294 293 292 292 292 290 289 288 287 285 284 283 282 280 281 280 280 282 282 283 283 284 284 284 285
307 305 300 299 301 301 298 297 297 297 296 296 295 295 295 294 294 293 293 292 292 291 291 290 288 286 285 284 284 283 281 281 281 281 281 281 282 282 282 282 282 283 283
306 304 300 299 302 299 296 297 298 297 296 295 295 295 294 294 293 293 293 292 291 290 289 289 287 285 284 284 283 282 280 280 281 281 280 281 281 281 282 282 283 283 283
305 301 299 300 298 297 298 298 297 297 295 294 294 294 294 294 293 293 292 291 290 288 287 286 286 285 284 283 282 281 280 281 280 280 280 280 281 281 282 282 282 283 283
302 299 300 299 298 299 299 297 295 294 294 294 294 293 293 293 293 293 292 290 289 287 286 285 285 285 284 283 281 280 281 281 280 280 281 280 280 281 281 281 281 281 283
298 298 298 298 299 300 297 296 295 295 296 295 294 293 293 293 293 292 290 289 288 287 286 286 285 285 284 283 281 280 280 280 280 281 281 281 281 281 282 282 282 282 283
296 296 298 300 299 297 296 296 295 295 293 292 293 293 293 293 292 291 290 288 286 286 286 285 285 284 283 283 280 280 280 280 281 281 281 281 281 281 282 282 282 282 282
299 299 299 297 297 295 294 293 292 291 292 292 292 292 292 292 291 289 287 286 286 285 285 285 284 284 283 281 280 280 280 280 280 280 280 280 280 281 282 282 282 282 283
298 297 296 295 295 293 292 291 291 291 291 290 291 291 291 290 290 289 287 287 286 286 284 283 283 282 282 279 279 280 280 280 280 280 280 280 280 281 281 281 282 283 283
297 296 295 294 292 292 291 291 291 291 290 290 291 291 290 289 289 289 287 287 285 285 283 283 282 281 280 279 279 280 280 280 280 280 279 280 280 280 280 281 283 283 282
293 292 292 291 292 291 291 291 291 290 290 290 290 290 290 289 288 287 288 286 285 285 284 282 281 281 279 280 279 279 280 280 280 280 279 279 279 279 280 281 282 282 283

GFSMA_925_thetae_048.txt.gz
Theta_e
321 321 322 321 320 319 318 316 314 313 312 310 309 307 305 304 304 304 306 300 300 305 316 313 311 310 308 307 306 305 306 306 305 305 305 305 303 302 301 301 300 301 301
322 322 322 321 320 319 317 316 314 313 312 310 308 305 304 303 304 305 306 308 302 306 313 311 310 309 308 306 306 306 305 304 304 303 303 303 303 302 301 300 299 299 300
323 323 321 320 319 318 316 314 313 312 311 308 306 304 303 303 303 304 305 306 308 310 310 308 308 307 306 306 304 303 302 302 302 302 302 302 302 301 300 299 298 298 298
327 324 321 320 318 316 315 314 313 312 310 307 305 304 303 302 302 303 305 304 304 305 306 306 305 304 302 300 300 300 300 300 300 301 301 301 301 301 300 299 298 298 298
324 323 321 319 317 316 315 313 313 311 308 306 305 304 303 302 302 301 303 303 302 301 300 300 299 296 295 295 297 297 298 299 299 299 299 299 299 299 299 299 298 298 298
322 321 320 318 317 316 314 312 311 308 307 306 303 303 304 302 301 301 301 300 299 299 299 298 298 298 296 295 295 296 296 297 297 297 297 297 297 297 297 297 297 297 297
321 320 319 318 316 314 314 312 309 307 306 306 306 306 305 302 301 301 300 300 299 299 298 297 297 297 297 295 294 293 295 296 296 296 296 296 296 296 296 296 297 297 297
321 321 319 317 315 315 312 310 308 308 307 305 306 305 308 305 302 301 301 300 300 299 297 297 297 297 297 296 295 294 292 293 295 295 295 295 295 295 296 296 296 296 296
320 319 317 315 313 313 312 310 309 308 308 305 303 305 307 309 305 303 302 301 300 299 298 298 298 297 296 295 295 295 293 292 291 293 294 294 294 294 294 294 295 295 295
318 317 315 313 312 312 311 309 308 306 305 307 304 303 302 302 305 305 302 300 300 299 299 298 297 296 296 295 294 293 291 290 290 290 292 292 292 293 293 293 293 293 294
317 315 313 312 310 310 310 308 305 305 306 306 303 303 302 303 302 301 301 300 299 298 297 296 295 296 296 295 294 294 291 289 288 287 288 289 289 290 290 291 291 292 292
316 313 312 311 310 310 309 306 305 306 304 302 300 301 302 302 301 301 301 300 299 297 296 295 296 296 295 294 292 290 289 288 287 286 285 286 286 287 288 289 289 290 290
314 313 311 311 310 309 307 305 304 304 303 301 301 301 300 299 299 298 298 298 297 296 296 295 295 294 294 293 293 289 287 286 285 284 283 284 285 286 286 287 288 288 289
316 313 310 309 309 306 303 302 302 305 300 300 300 299 299 299 299 298 297 296 298 297 295 294 294 294 293 291 290 288 287 286 285 284 282 284 284 284 285 286 286 287 287
315 312 310 308 306 303 301 301 304 300 296 299 299 299 299 299 298 297 296 296 296 298 297 294 293 293 292 291 290 288 287 286 285 282 283 283 283 284 284 285 285 286 286
314 311 310 307 304 302 300 303 300 296 298 298 297 299 299 298 297 297 296 296 295 295 296 294 293 292 291 290 288 287 286 285 284 283 282 282 283 283 283 283 284 284 284
314 311 309 306 303 300 301 301 297 297 297 297 298 298 298 297 296 296 296 296 295 294 294 293 292 291 291 289 288 287 286 285 284 283 283 282 282 282 282 282 283 283 283
311 308 305 302 302 300 302 298 297 298 298 297 298 298 298 297 296 296 296 295 294 294 293 293 292 291 290 289 288 286 286 284 283 284 283 282 281 281 282 282 283 283 283
310 304 302 302 299 300 299 299 296 297 298 299 298 297 297 297 296 296 296 295 295 294 293 292 291 290 289 289 287 286 285 284 284 283 282 282 282 282 282 282 282 283 283
304 302 300 299 299 300 298 297 298 298 298 297 296 296 296 297 296 296 296 295 294 293 292 291 290 290 289 288 287 286 285 284 284 284 283 283 283 283 283 283 283 283 283
300 299 298 299 299 298 298 299 298 297 297 297 297 297 296 296 295 295 295 295 294 293 292 291 290 289 289 288 287 286 284 284 284 284 284 284 284 284 284 284 284 283 284
298 299 298 298 299 300 300 298 297 296 296 297 295 295 295 294 294 293 293 293 293 293 292 291 290 289 289 288 286 286 284 284 285 284 284 283 283 284 284 284 284 283 282
299 299 299 300 299 298 297 296 295 294 294 294 294 294 294 293 293 293 293 292 290 289 288 289 289 289 288 287 286 285 283 284 284 283 282 283 283 283 283 284 284 283 283
299 299 299 298 297 297 296 294 292 292 293 293 293 293 293 292 293 293 292 292 291 290 289 288 287 287 286 286 285 283 283 283 283 283 283 283 283 283 283 283 283 283 283
299 298 298 297 296 296 294 292 291 292 293 293 293 292 292 292 292 292 291 291 290 290 290 288 287 286 285 284 283 282 282 283 284 283 283 283 282 282 282 283 284 284 283
296 295 294 294 294 293 293 292 290 291 291 292 292 292 292 291 290 290 289 289 290 290 289 288 285 284 283 283 282 281 282 282 283 284 283 282 282 282 283 282 283 282 283

GFSMA_925_thetae_051.txt.gz
Theta_e
323 323 324 323 322 322 321 321 319 318 316 314 312 310 308 307 306 307 311 304 300 308 317 314 312 310 309 307 306 306 307 306 305 306 304 304 305 303 303 301 301 300 301
323 323 324 323 323 322 322 320 319 318 316 314 311 308 307 306 306 307 308 308 300 309 316 313 311 310 309 307 306 306 305 304 304 304 304 303 303 303 302 300 300 299 299
324 323 324 324 323 323 321 320 319 317 316 312 309 307 306 306 306 306 307 310 309 305 312 310 309 308 307 307 305 304 303 302 302 302 302 302 302 302 302 301 300 299 299
325 325 324 324 323 322 320 319 318 317 316 312 309 308 307 306 305 306 307 306 306 308 305 307 307 306 305 302 301 301 301 300 300 301 301 301 301 301 300 300 300 300 299
329 327 326 324 323 321 320 319 318 317 314 311 309 308 308 307 305 303 306 306 304 303 303 302 299 298 300 299 296 298 299 299 300 300 300 300 299 299 299 299 299 299 299
329 328 326 324 323 321 320 319 318 316 313 311 307 307 309 307 305 304 304 303 302 302 301 301 300 300 298 297 296 296 297 298 299 299 299 298 298 298 298 298 298 298 298
327 326 325 324 322 321 320 318 317 314 311 310 310 310 310 308 306 305 304 304 303 302 302 300 300 299 299 297 297 296 296 297 298 298 298 298 297 297 297 297 297 297 297
326 325 324 323 322 321 319 318 316 313 312 311 311 311 314 311 307 305 305 304 303 303 302 300 299 300 300 299 298 295 294 294 294 295 296 296 296 296 296 296 296 296 297
327 325 324 323 322 319 318 317 315 314 313 310 309 311 313 313 310 307 305 305 303 303 302 301 300 300 299 298 297 297 295 293 293 293 294 294 295 295 295 295 295 295 295
325 323 323 322 320 318 317 316 315 314 312 311 309 309 308 307 308 309 306 305 304 303 302 301 300 299 298 298 297 296 295 294 293 291 292 292 292 293 293 293 293 294 294
324 323 322 320 318 317 315 314 313 313 311 310 311 308 305 306 306 306 307 305 303 302 301 300 299 298 298 298 297 296 294 293 291 290 289 290 290 290 290 290 290 291 291
325 323 320 318 317 315 314 314 312 311 310 310 307 304 306 307 307 306 305 304 303 302 300 299 298 298 298 297 296 294 292 291 289 287 286 287 287 287 288 288 289 289 290
324 322 319 316 315 315 313 313 311 310 308 306 305 305 304 304 302 302 302 302 301 300 299 298 297 297 296 295 295 294 291 289 288 287 286 286 286 286 286 287 287 288 288
325 322 317 315 314 313 312 311 309 307 305 305 303 302 301 300 301 301 301 300 301 299 299 299 297 296 296 295 294 292 291 290 288 287 286 285 285 285 285 285 286 287 287
324 321 317 314 312 312 311 308 306 304 304 301 300 300 300 299 301 301 300 299 299 300 299 298 297 295 295 294 293 292 291 290 288 287 286 284 284 284 285 285 285 285 286
320 317 314 313 311 310 309 305 304 302 300 299 298 298 298 300 301 300 299 299 298 298 299 296 296 295 294 293 293 291 290 289 288 287 286 284 283 284 284 284 284 284 284
319 316 315 312 310 308 305 302 301 299 297 299 298 299 299 300 300 299 298 298 298 297 297 296 295 295 294 293 293 292 290 290 288 287 285 284 283 283 282 283 283 283 283
319 317 314 310 308 305 302 301 299 297 298 298 298 298 299 300 300 299 298 298 298 297 296 296 295 294 293 292 292 291 290 289 288 287 285 285 284 283 282 283 283 283 283
317 313 309 307 304 302 301 300 298 298 299 298 298 298 300 299 299 299 298 298 298 297 296 296 296 294 293 292 291 291 290 289 288 286 285 285 284 284 283 283 283 283 283
309 306 303 302 302 301 299 298 299 300 298 298 298 299 298 298 298 298 298 298 297 297 296 295 295 294 293 292 291 291 290 289 288 286 286 285 285 285 285 284 284 284 284
303 302 301 301 299 299 300 300 299 298 298 297 298 297 298 298 298 297 297 297 297 296 296 295 294 294 293 292 291 290 290 288 288 286 286 286 286 285 285 285 285 285 285
303 301 300 300 300 299 298 299 299 298 297 296 297 298 298 296 296 295 295 295 294 295 296 295 294 294 293 291 291 290 289 288 288 285 286 286 285 285 285 285 285 284 284
303 301 300 300 301 300 299 298 297 296 297 297 296 296 296 295 294 294 294 294 294 294 293 292 292 293 292 291 290 289 288 287 287 285 285 285 285 285 285 285 285 284 283
302 302 300 300 299 298 297 296 294 293 294 294 294 295 295 295 294 294 293 294 294 294 293 292 290 290 290 290 290 288 287 286 285 284 285 286 285 285 284 284 284 284 284
300 300 300 299 298 298 295 294 293 293 293 293 293 294 294 293 293 293 293 293 293 293 292 291 291 290 290 289 287 286 286 285 286 284 285 285 285 284 284 283 284 284 284
299 298 297 296 295 294 294 292 291 291 291 292 292 292 292 292 292 292 292 292 292 291 291 290 291 290 289 288 287 285 285 285 284 285 284 285 285 284 284 283 284 283 284

GFSMA_925_thetae_054.txt.gz
Theta_e
321 319 321 320 320 320 319 319 320 318 316 314 312 310 308 307 307 311 310 304 301 314 316 315 312 310 309 307 306 307 307 306 305 305 304 304 304 304 303 302 301 300 300
323 322 323 323 322 322 322 321 320 318 317 315 311 308 307 307 307 308 311 309 299 308 316 315 313 311 310 308 306 306 305 304 304 303 303 303 303 303 303 302 301 301 300
323 324 324 323 323 322 322 321 319 319 317 314 310 308 307 307 306 307 309 311 308 305 315 312 311 309 308 308 306 305 303 303 302 302 302 302 302 302 302 301 301 301 301
323 323 323 325 324 323 322 321 319 318 317 314 310 308 307 306 306 306 308 308 310 307 305 307 308 307 307 306 304 302 302 301 301 301 302 301 301 301 300 300 300 300 300
324 323 325 324 324 323 322 320 319 318 317 314 311 309 308 307 306 306 307 307 306 305 307 305 301 300 299 299 300 297 298 299 300 300 300 300 300 300 299 299 299 299 299
326 326 326 325 324 323 321 320 319 319 317 314 311 309 310 309 307 305 305 305 304 303 302 302 301 300 300 298 297 297 297 298 299 300 300 299 299 299 298 298 298 298 298
326 325 326 326 324 323 321 320 319 318 315 312 311 309 310 310 308 306 305 305 304 302 302 302 301 300 299 299 300 298 297 298 298 298 298 298 298 298 298 298 298 298 298
327 328 326 325 324 323 322 320 318 317 314 311 311 312 311 311 308 307 305 305 304 303 303 302 300 300 300 300 299 298 297 297 296 296 296 296 296 296 296 296 296 296 296
326 327 326 325 324 323 322 320 318 316 314 313 311 311 312 312 308 307 306 305 304 303 303 303 301 301 301 300 299 298 297 295 294 294 294 295 295 294 294 295 295 295 295
327 327 326 325 323 322 321 320 318 316 315 313 311 310 309 308 306 308 306 305 305 304 303 303 302 301 300 298 298 298 296 295 294 294 293 293 293 293 293 293 292 292 292
327 327 325 324 323 322 320 319 317 316 315 314 312 310 309 307 306 307 305 306 305 304 303 303 302 299 298 298 298 298 297 296 294 292 291 289 290 290 290 290 290 290 291
327 326 325 323 323 321 319 318 316 315 314 312 311 309 307 307 307 308 305 305 305 304 302 300 299 298 298 298 297 297 295 294 293 292 289 288 289 289 288 288 289 289 289
327 326 325 324 321 320 318 317 315 314 312 311 308 308 306 304 302 302 302 302 302 302 301 300 299 298 298 297 296 295 295 294 292 290 288 288 288 288 287 287 287 288 288
327 326 325 323 320 319 317 315 314 314 311 309 309 305 303 302 302 301 302 302 301 301 300 300 299 298 296 296 296 295 294 292 291 290 289 288 287 287 286 286 286 287 287
327 327 324 322 319 317 315 314 313 312 309 308 304 302 302 303 302 300 301 301 301 295 297 299 298 298 296 295 294 294 293 292 291 290 289 288 287 287 286 285 285 285 285
327 325 322 320 318 315 313 312 309 308 306 303 302 301 301 302 301 301 301 301 300 299 296 298 298 297 296 295 294 294 293 292 291 290 289 288 287 285 284 284 284 284 285
325 323 320 317 314 313 311 309 307 304 303 301 300 300 301 301 300 300 301 300 299 299 298 298 297 296 295 295 294 293 293 292 291 290 289 288 287 285 285 284 283 283 284
323 320 317 315 313 310 307 307 304 302 301 298 299 300 300 299 299 300 300 300 299 298 298 297 297 296 295 295 294 293 292 292 291 290 289 288 287 286 285 284 284 284 284
321 319 316 314 311 308 306 304 303 301 299 299 301 300 299 299 299 300 299 299 299 298 298 298 297 296 296 295 294 293 292 291 291 290 289 288 286 286 285 285 285 284 284
315 313 310 309 307 304 303 302 301 300 299 300 300 299 298 299 299 299 298 298 298 298 298 298 297 296 296 295 294 293 292 291 290 290 288 287 286 286 286 286 285 285 285
307 306 305 303 303 303 302 301 299 299 299 299 298 298 298 298 298 298 298 298 297 297 296 296 296 296 295 294 293 293 291 291 290 289 288 286 286 286 286 285 285 285 285
303 302 301 301 299 299 299 299 299 299 298 298 297 297 297 298 298 298 298 297 296 295 295 295 294 294 295 294 294 292 291 290 288 289 287 286 285 286 285 285 285 285 284
303 302 301 300 300 300 299 299 298 297 297 297 297 297 296 296 295 295 295 295 295 294 294 294 293 293 293 293 293 292 291 290 289 288 286 285 285 285 285 285 285 284 284
301 301 301 300 300 299 298 296 295 293 293 294 294 294 294 294 294 294 293 293 293 293 293 294 294 293 293 292 291 290 290 290 288 286 285 284 285 285 285 285 284 284 283
301 300 300 299 299 298 296 294 293 293 292 292 292 292 292 292 291 291 290 290 291 291 292 292 292 292 292 291 290 290 288 287 286 286 285 285 284 285 285 284 283 283 283
300 300 298 296 295 294 292 292 291 291 290 289 288 287 286 287 287 287 286 285 286 288 290 291 291 291 291 290 290 289 289 286 286 285 285 284 284 285 284 283 283 283 283

GFSMA_925_thetae_057.txt.gz
Theta_e
316 316 316 316 315 317 318 317 319 318 316 312 310 308 307 307 308 310 308 301 311 317 316 314 312 310 309 307 307 307 307 306 305 305 304 304 304 304 303 303 302 302 301
317 316 318 317 318 319 319 319 319 318 316 314 311 308 307 307 307 308 309 305 301 310 316 315 313 311 310 307 307 306 305 304 304 303 303 303 303 303 303 302 302 302 302
322 320 322 322 321 321 321 321 319 318 317 314 311 309 306 307 306 307 309 309 308 305 314 315 313 311 310 308 307 305 304 303 302 302 302 302 302 302 302 301 301 301 301
323 324 325 324 323 323 322 321 319 318 316 314 311 308 307 306 306 306 308 309 308 307 311 313 311 309 307 306 305 304 303 302 301 301 301 301 301 301 300 300 300 299 299
323 323 323 323 324 324 323 321 319 319 317 315 312 308 307 307 306 306 307 307 307 306 307 307 307 302 300 299 299 300 298 300 300 301 301 301 300 300 299 299 299 298 298
322 323 322 324 324 323 322 321 320 319 318 316 311 310 308 308 307 306 305 306 306 304 304 303 301 301 300 300 298 298 299 300 300 300 300 300 300 300 299 298 298 298 298
320 323 324 324 325 323 323 321 320 319 318 315 314 309 309 309 308 307 305 305 305 303 302 302 302 301 300 300 299 300 300 299 299 299 298 298 298 297 297 297 297 297 297
324 325 325 325 325 324 323 321 320 319 318 316 311 310 310 310 309 308 305 305 305 304 303 302 302 301 300 300 300 300 300 299 298 297 297 297 296 296 296 295 296 296 296
325 324 324 325 325 325 323 322 320 320 318 315 312 311 309 308 307 308 308 306 305 304 303 303 303 301 300 300 300 299 298 297 297 296 295 294 295 294 294 294 294 294 294
325 326 324 325 325 325 323 323 321 320 318 315 313 311 311 309 306 306 308 307 305 304 304 303 303 302 301 300 298 298 298 297 296 295 295 294 293 292 292 292 292 292 292
324 326 325 326 326 325 323 322 321 320 318 315 313 311 310 309 307 306 305 306 305 305 304 304 303 302 302 300 298 298 298 297 297 296 294 293 291 291 291 291 291 291 291
325 326 326 326 326 325 324 322 321 320 318 316 315 312 310 307 306 307 305 304 304 305 305 304 303 302 302 299 298 298 297 297 296 294 293 292 290 290 290 290 290 289 290
326 327 326 325 325 324 323 322 320 318 317 315 314 310 309 308 308 303 303 302 301 302 302 301 300 300 299 298 298 298 297 296 295 294 293 292 290 290 289 289 288 288 288
325 326 326 326 325 324 323 321 319 317 316 314 310 308 309 305 303 303 303 302 302 301 301 301 300 299 298 298 298 297 296 295 295 293 292 291 290 289 289 288 287 287 287
326 326 327 326 324 323 322 320 318 316 314 310 309 309 307 305 303 304 304 303 301 300 296 300 299 299 298 297 296 296 295 294 294 292 292 291 289 289 288 288 287 286 286
326 327 326 325 323 322 320 318 316 314 311 309 309 306 305 303 303 303 302 302 301 300 298 298 299 298 298 296 295 294 294 294 293 292 291 290 290 289 287 287 286 286 285
328 324 324 324 321 319 317 315 313 310 308 307 304 303 303 302 302 301 300 301 301 300 298 298 298 298 298 296 296 294 294 294 293 292 292 291 289 288 288 287 286 285 284
327 325 321 320 319 317 315 313 310 307 306 305 303 301 301 301 301 300 299 300 301 300 299 297 298 298 297 297 297 296 294 294 293 292 292 291 289 289 288 286 285 285 285
323 321 320 318 316 314 311 309 307 305 304 303 302 300 301 300 299 299 299 299 300 299 299 298 297 297 297 297 297 296 295 294 293 292 291 291 290 289 286 286 285 285 285
321 319 317 314 312 309 307 306 304 303 302 300 299 300 300 299 299 299 299 299 298 298 298 298 297 297 296 296 296 296 295 294 294 292 291 290 289 287 286 285 286 285 285
313 311 310 308 306 305 303 303 302 300 298 299 300 299 299 299 298 298 298 297 298 298 298 297 295 294 293 294 295 295 294 293 292 291 290 289 288 287 286 286 285 285 284
306 305 304 303 302 302 301 300 299 299 299 299 299 298 297 297 297 296 296 296 297 297 296 294 293 293 293 293 294 294 293 291 289 291 290 289 288 287 286 285 285 284 285
302 301 301 300 300 300 300 299 299 299 298 297 296 295 295 294 293 292 292 292 292 292 292 292 291 292 292 292 293 292 292 291 290 291 289 288 286 285 285 285 285 285 285
301 300 300 300 300 300 299 297 296 294 293 293 292 292 292 291 290 289 288 288 287 287 287 288 290 291 291 291 292 291 291 291 291 290 289 285 286 286 285 284 285 285 284
301 301 300 299 299 298 297 295 293 292 292 291 291 290 288 285 284 283 281 280 280 280 281 281 283 284 283 286 289 290 289 289 287 288 287 286 285 285 285 284 284 284 283
301 299 299 298 297 297 294 291 291 291 290 288 285 283 281 280 280 279 281 282 282 283 284 284 283 283 284 285 285 286 289 288 287 285 286 285 286 285 284 284 284 283 283

GFSMA_925_thetae_060.txt.gz
Theta_e
316 316 316 315 316 316 317 318 318 317 315 310 308 307 307 307 309 308 305 308 315 316 315 314 312 310 309 308 308 308 306 305 305 304 304 304 304 304 304 303 303 303 303
315 316 316 316 316 316 317 319 318 317 316 312 309 307 306 307 307 309 308 303 310 315 316 315 313 311 309 308 308 306 305 304 304 303 303 303 303 303 302 302 302 301 301
315 316 316 317 317 318 318 318 319 318 316 314 311 308 307 306 307 307 309 304 305 314 315 315 314 313 311 310 308 306 304 303 302 302 302 303 302 302 301 301 300 300 300
318 317 319 320 319 320 320 319 319 318 317 315 313 309 306 306 306 307 308 307 306 307 308 312 313 311 310 308 308 305 304 302 301 301 301 302 301 301 300 300 300 299 299
322 322 322 323 323 322 322 321 319 318 317 315 313 310 307 306 306 306 307 308 308 308 308 312 312 310 305 300 302 304 301 300 300 301 301 301 301 301 300 300 299 299 299
322 323 323 323 324 324 322 322 320 318 318 317 314 312 307 306 306 306 306 307 307 307 306 307 307 304 301 300 300 302 300 301 300 300 300 300 300 299 299 298 298 298 299
320 323 322 322 323 324 323 322 320 319 319 318 316 309 308 307 307 307 306 306 306 306 305 304 303 302 301 301 300 300 302 302 301 300 299 298 298 297 297 297 297 296 297
321 319 319 322 323 325 324 322 321 320 319 318 313 310 309 309 308 308 306 305 305 305 303 302 302 302 302 301 300 299 302 302 301 299 298 296 296 296 295 295 295 296 296
316 319 320 322 324 324 324 323 322 321 319 318 314 313 307 308 308 309 308 305 305 304 303 302 302 302 302 300 300 300 300 300 300 298 297 296 295 294 294 294 294 294 294
319 319 321 324 324 324 324 324 323 321 320 318 314 311 311 310 306 307 307 307 306 305 304 303 302 302 302 301 300 300 300 299 298 297 297 296 295 293 293 292 293 293 293
318 321 324 325 324 324 324 325 324 322 320 319 317 313 311 309 308 307 306 307 309 308 305 303 303 302 302 302 301 300 299 298 298 297 297 296 294 293 291 293 292 292 292
320 318 323 325 325 324 325 325 324 323 322 319 318 315 314 310 307 307 307 306 304 305 305 305 305 303 303 302 301 300 299 298 298 297 297 295 294 293 293 292 292 291 290
320 319 320 324 324 325 325 325 324 322 321 319 317 316 314 311 309 308 306 303 302 302 303 304 303 302 301 301 299 299 298 298 298 297 296 295 294 293 292 292 291 290 289
321 321 322 325 325 325 326 325 324 322 320 318 317 316 314 310 310 309 308 303 302 302 303 304 304 302 302 302 301 298 298 298 297 296 295 294 294 292 291 291 291 290 289
321 322 323 325 326 325 325 324 322 320 319 318 316 315 310 310 309 308 306 304 304 303 303 302 301 301 299 299 298 297 297 297 297 296 295 294 293 292 291 290 291 290 288
324 325 326 325 326 325 325 323 321 319 317 316 313 309 308 307 305 304 303 303 302 301 302 300 300 300 299 299 298 297 295 295 295 295 294 294 293 292 290 289 289 288 288
324 324 325 325 325 324 322 321 319 317 315 313 308 308 307 305 303 303 302 301 300 300 300 300 299 299 298 298 298 297 295 295 294 294 294 293 293 292 290 289 288 287 286
325 325 325 325 324 323 321 318 316 314 311 308 307 305 304 302 302 301 301 300 300 300 299 298 298 298 298 298 298 298 297 297 297 296 295 293 293 291 290 289 288 287 286
323 325 324 323 321 319 318 315 314 312 309 307 306 304 302 301 301 300 300 299 299 299 299 298 298 298 298 298 297 297 297 296 296 296 296 294 292 292 291 290 288 287 286
325 321 321 320 318 316 314 312 309 307 305 304 302 301 300 300 300 299 299 298 297 297 297 297 296 296 296 296 296 295 295 294 294 294 294 294 293 293 290 290 288 286 286
321 321 317 314 312 310 309 307 306 305 302 301 299 300 300 299 298 297 297 297 297 296 296 295 294 294 293 293 292 293 293 293 293 293 293 293 290 290 290 288 287 287 286
314 314 311 309 307 306 305 304 303 302 299 299 299 299 297 296 296 295 294 292 291 290 290 291 291 291 291 291 291 291 291 290 289 292 291 291 291 290 289 289 287 285 285
309 308 305 305 304 303 302 301 299 299 299 299 297 296 294 292 292 291 291 290 289 286 282 282 286 287 288 288 289 289 290 289 290 291 291 290 291 290 290 287 286 285 284
305 303 302 301 300 299 299 299 299 298 297 294 293 292 291 289 288 286 285 282 281 281 282 283 283 283 283 283 283 284 285 286 288 289 290 289 290 289 289 286 285 285 284
300 300 300 300 299 299 298 297 295 293 292 291 290 288 287 284 282 280 280 281 282 282 283 283 283 284 284 284 284 284 284 285 286 288 288 288 288 287 286 286 286 285 284
301 300 300 299 299 297 296 294 293 292 291 288 286 283 281 280 279 279 282 281 281 282 281 281 281 282 282 282 283 283 284 284 285 286 287 286 286 285 285 286 285 284 284

GFSMA_925_thetae_063.txt.gz
Theta_e
315 314 315 316 315 315 317 318 316 314 311 309 307 307 306 306 307 308 311 315 316 316 315 314 312 311 310 309 309 307 307 306 305 304 304 304 304 304 303 303 302 302 302
315 314 315 316 316 317 318 318 318 316 312 309 308 307 306 307 308 307 307 311 316 315 315 314 313 311 309 309 308 307 305 305 304 303 303 304 303 303 302 302 301 301 301
316 315 315 316 316 317 317 318 318 317 315 311 308 307 306 307 307 308 307 305 309 315 315 315 314 313 311 309 309 307 305 304 303 302 302 303 302 302 301 301 301 300 300
316 316 317 317 317 316 316 318 318 317 315 314 311 308 307 306 307 307 307 307 306 311 315 315 314 314 312 311 309 307 305 303 301 301 302 302 301 301 301 300 300 300 300
316 315 316 317 317 318 318 318 319 318 317 315 314 310 307 306 307 307 307 307 307 307 311 314 314 312 310 308 307 306 305 301 301 301 301 301 301 301 301 300 300 299 299
316 316 319 321 321 319 319 320 320 319 318 317 315 311 308 307 306 306 306 307 308 307 308 309 311 312 310 304 302 304 304 302 302 301 301 300 300 298 298 298 298 298 298
322 322 323 323 324 323 323 323 321 320 317 316 314 311 310 307 306 306 306 306 307 307 307 307 307 307 307 301 301 302 304 303 303 302 300 299 298 296 296 297 296 296 297
321 322 323 323 322 323 323 323 322 320 318 317 316 309 306 308 307 306 306 305 306 306 306 305 305 304 303 301 302 301 302 303 304 303 301 299 297 296 295 295 295 295 295
319 320 319 322 322 322 322 323 322 319 319 318 317 315 307 308 307 308 307 306 305 306 305 305 304 303 302 302 302 301 300 300 302 303 301 300 298 296 295 294 294 294 294
318 316 318 320 321 321 323 323 323 322 320 319 315 314 312 310 308 309 307 308 306 304 304 304 303 302 302 302 301 301 300 300 300 301 301 300 299 297 295 294 294 294 294
317 316 314 317 318 318 322 324 324 323 322 319 317 314 310 309 311 307 310 306 307 306 306 305 304 303 302 302 302 302 301 300 300 299 299 300 300 298 296 295 294 294 294
315 315 314 315 320 321 323 324 324 324 323 321 319 318 316 312 309 307 306 307 308 309 309 309 307 303 303 302 302 301 301 301 300 299 298 299 300 299 297 296 295 294 293
315 315 313 317 319 319 323 324 324 323 322 322 320 318 317 316 315 310 309 307 305 307 307 306 305 304 303 302 302 302 300 299 298 299 298 297 297 298 297 296 295 294 293
315 315 316 320 320 318 319 324 324 323 323 322 321 319 317 315 315 313 310 307 303 302 302 303 305 304 305 304 302 301 301 302 301 299 297 297 297 296 295 295 295 294 293
316 317 319 319 320 321 321 323 324 323 318 321 320 318 316 317 315 312 309 308 306 303 303 303 304 304 303 301 299 299 298 298 297 297 297 297 297 296 295 294 293 293 293
321 322 321 321 320 322 323 324 324 322 321 320 319 317 316 314 311 308 307 306 303 303 302 302 302 302 302 301 300 299 298 297 297 296 296 297 296 295 294 294 293 292 292
325 323 323 324 324 324 324 323 322 322 320 318 315 314 312 309 308 306 304 303 302 301 300 300 300 300 300 300 299 299 298 297 296 296 296 295 295 295 295 293 292 291 290
325 325 323 324 324 324 322 322 321 319 318 314 313 310 308 307 305 303 302 301 300 300 299 299 299 299 299 299 299 299 298 298 297 297 297 296 296 296 295 294 293 291 290
325 324 320 321 322 322 321 320 319 317 315 313 311 308 306 304 302 301 301 300 299 299 299 298 297 297 297 297 296 296 296 296 295 295 294 294 293 293 293 294 293 292 292
326 325 321 320 323 321 318 319 316 313 311 308 307 305 304 302 301 300 300 299 298 297 296 295 294 293 293 293 293 293 293 293 293 292 292 292 292 293 293 293 292 291 292
325 323 321 322 319 317 316 315 313 310 308 305 304 302 300 300 299 298 298 296 296 295 294 293 292 292 292 291 291 290 290 290 290 290 291 291 291 291 292 292 292 291 291
321 321 320 319 314 312 313 312 309 306 304 302 300 299 299 298 297 296 295 294 291 290 288 286 286 285 285 286 287 286 286 286 287 286 289 289 290 291 291 290 290 290 290
315 313 312 311 310 310 308 306 305 303 301 299 299 297 296 293 292 292 291 290 288 285 282 282 282 282 283 283 283 283 283 284 284 283 284 285 287 289 290 290 290 290 289
310 310 308 308 307 304 303 302 300 299 298 298 296 293 292 290 289 289 287 284 282 281 282 282 282 283 283 283 283 283 283 283 283 283 284 285 285 287 288 289 290 290 287
306 305 304 303 303 300 299 298 298 298 295 292 291 290 289 287 284 281 280 281 281 281 281 280 279 279 279 281 281 282 282 283 283 283 283 284 285 286 287 288 289 288 285
303 301 300 299 299 297 298 298 297 294 291 289 287 285 282 281 279 279 281 281 280 280 278 278 277 277 278 278 279 279 280 281 282 283 284 284 284 285 285 286 287 284 285

GFSMA_925_thetae_066.txt.gz
Theta_e
312 312 311 311 312 314 313 312 310 310 309 308 307 307 308 309 311 314 315 316 316 316 315 314 314 313 311 310 309 308 307 306 305 305 305 305 304 304 303 303 302 302 302
313 314 312 312 314 316 316 314 315 313 309 308 307 306 306 308 310 312 314 316 315 316 316 315 313 312 311 310 309 307 306 305 304 304 304 304 303 303 302 302 302 301 301
313 315 315 314 315 317 317 317 315 313 310 307 307 306 306 307 307 308 310 312 315 314 314 315 314 313 311 310 309 307 306 304 303 302 303 303 302 302 301 301 301 301 300
314 315 315 316 316 317 318 318 317 315 312 310 309 307 307 307 307 307 307 307 310 313 314 315 314 314 312 311 311 308 306 304 302 302 302 302 302 301 301 301 301 300 300
315 315 316 315 316 316 317 318 318 318 316 313 312 309 308 306 307 307 307 307 307 308 311 314 315 314 313 313 311 310 307 305 301 302 302 302 301 301 300 299 299 299 299
316 315 315 315 317 317 317 317 318 318 317 316 313 311 309 307 306 306 307 307 307 307 307 311 314 314 313 310 308 306 306 306 303 302 302 301 301 299 297 296 297 298 297
316 316 316 316 317 317 319 319 319 319 318 317 315 312 311 308 307 307 306 306 306 307 307 308 310 312 312 311 306 303 306 306 304 304 303 302 301 298 297 296 294 296 297
316 316 317 320 321 322 321 321 321 321 319 317 314 310 308 310 311 309 307 306 306 306 307 307 309 310 309 307 304 301 304 306 305 305 304 302 301 300 297 296 294 295 295
320 320 320 321 322 322 323 323 323 322 320 318 316 316 308 309 307 309 309 307 306 305 306 307 307 307 307 306 304 302 302 302 303 305 305 304 302 300 299 297 296 295 295
319 319 320 320 320 322 321 322 322 322 321 318 315 315 314 311 308 310 309 308 307 306 305 306 306 305 305 305 304 302 302 301 300 300 303 304 303 301 300 298 296 295 295
316 317 317 316 316 319 319 319 321 322 322 320 318 317 313 310 309 311 311 308 307 308 307 306 306 305 305 304 303 302 301 301 301 300 300 303 304 302 301 300 298 296 296
315 315 316 316 316 315 316 318 319 321 323 322 320 318 317 313 309 309 308 309 310 309 309 308 304 307 310 311 305 302 301 301 301 299 299 300 302 302 302 301 299 298 297
315 315 315 316 316 315 316 317 319 322 322 321 320 319 318 317 316 314 311 308 308 308 308 308 309 309 308 304 302 303 302 302 302 301 300 300 299 300 300 301 300 299 298
315 315 315 315 315 315 314 317 320 321 322 322 318 316 318 319 317 315 314 310 305 305 305 308 306 304 303 304 304 303 302 301 301 301 301 300 300 299 298 298 298 299 298
315 315 315 315 315 315 317 319 321 321 322 322 319 316 316 318 315 314 314 312 310 306 304 303 304 305 304 303 302 301 299 300 299 298 297 297 297 297 297 297 297 296 296
316 316 315 315 316 318 319 321 321 322 322 321 322 319 318 317 314 314 312 309 308 306 303 303 303 303 303 302 301 300 300 299 299 298 297 296 295 295 296 296 296 296 296
316 317 317 318 319 322 323 321 322 322 322 321 321 320 317 316 313 311 308 306 305 303 301 301 301 300 300 300 300 300 299 298 298 298 297 297 297 297 297 296 296 296 296
316 317 316 317 321 324 323 323 323 321 321 320 320 316 314 312 309 307 306 304 303 301 300 299 299 299 298 298 297 296 296 296 295 295 295 295 295 294 294 293 293 293 293
316 318 320 321 323 324 322 322 323 322 322 319 317 314 312 310 307 304 303 302 301 299 299 298 297 296 294 294 293 293 293 293 292 292 292 292 292 292 291 291 291 291 292
321 322 322 323 322 321 320 320 321 319 319 316 313 311 309 306 305 303 301 300 299 298 296 295 294 294 293 293 292 291 289 288 287 285 285 284 284 285 287 288 290 291 291
322 323 322 322 322 319 319 320 319 316 313 309 308 306 305 303 301 300 300 298 297 296 295 294 291 290 289 287 285 286 284 283 283 283 284 285 286 286 285 285 285 287 290
322 322 322 322 322 317 316 319 316 311 308 306 302 301 300 300 299 299 298 296 294 292 291 288 286 283 282 283 283 283 283 283 283 283 284 283 283 283 283 284 284 285 288
321 321 320 317 317 317 315 311 310 307 305 302 300 299 298 296 296 294 293 291 289 287 284 283 282 282 282 282 282 282 282 281 282 282 282 283 283 283 283 284 284 285 287
317 313 312 311 311 309 306 305 305 304 301 299 298 297 296 292 291 290 288 286 283 282 281 281 281 281 281 280 282 282 282 281 281 281 282 283 283 283 283 284 284 285 286
309 308 307 306 307 302 302 303 302 300 298 295 294 292 291 288 287 286 283 281 281 281 280 279 278 278 278 278 279 280 280 280 280 280 280 281 282 283 284 284 284 284 285
304 303 302 302 302 299 299 299 299 297 294 290 287 286 284 284 281 280 281 281 280 280 279 278 278 277 277 277 277 277 277 278 278 279 281 280 280 281 283 284 284 285 286

GFSMA_925_thetae_069.txt.gz
Theta_e
313 313 312 312 313 316 317 317 314 312 309 309 308 308 310 315 317 317 317 316 316 316 316 316 314 313 311 310 309 308 307 307 307 306 306 306 305 304 304 303 303 303 303
309 312 312 312 312 313 312 312 311 311 310 308 308 308 309 312 315 317 317 316 316 316 315 316 315 314 312 310 309 308 307 306 305 305 305 305 304 303 303 302 302 302 302
309 312 312 313 314 311 311 311 310 309 308 307 307 307 308 309 310 314 316 317 316 316 316 315 314 314 312 311 310 308 306 305 304 304 305 304 303 303 302 302 301 301 301
311 310 311 313 316 314 314 313 311 310 308 307 307 306 306 307 308 309 312 315 316 316 315 315 314 314 312 312 311 309 307 305 303 303 304 303 303 302 302 301 300 300 300
313 312 311 314 317 317 316 316 316 314 310 308 309 307 307 307 307 307 307 309 311 314 315 315 314 314 313 313 313 312 309 306 303 303 304 303 302 302 300 298 297 297 299
314 314 314 314 316 318 317 317 318 315 314 311 308 308 308 308 306 307 306 306 306 308 311 315 316 315 314 313 313 312 310 309 304 303 304 303 303 301 298 297 297 295 297
314 315 315 315 316 316 317 318 318 317 317 315 313 311 310 309 307 306 306 306 307 306 306 307 314 315 315 314 312 310 308 308 307 305 304 304 303 302 299 297 297 294 294
315 314 315 315 315 315 317 318 317 318 318 317 316 314 318 315 312 310 307 307 306 306 306 307 307 309 311 312 312 310 307 307 308 307 306 305 304 303 301 299 298 296 295
317 316 315 315 316 317 317 318 319 319 320 318 316 319 317 321 315 311 311 310 307 306 306 306 307 307 308 309 309 308 306 302 306 307 307 307 305 304 303 301 299 298 297
317 316 316 317 318 320 320 319 319 322 322 320 316 316 317 315 320 320 312 310 309 308 308 306 306 306 307 308 307 308 306 303 301 302 304 305 306 306 304 302 301 299 298
317 317 317 317 319 318 320 320 320 321 321 321 319 317 315 313 313 316 321 314 310 311 311 311 310 306 306 307 305 305 305 304 302 301 301 302 304 305 306 304 303 301 299
319 319 317 317 318 317 318 318 319 320 320 321 320 318 317 317 314 311 313 314 313 313 314 313 310 311 306 305 305 308 310 306 302 301 301 300 301 303 304 305 305 304 302
316 316 317 317 317 317 316 315 316 316 319 320 320 319 320 319 316 314 313 313 312 311 311 311 310 309 306 305 308 306 302 302 303 303 301 301 300 301 301 302 302 303 303
316 315 315 315 316 316 316 316 315 315 316 319 320 321 320 319 317 315 315 312 308 308 308 309 308 308 308 306 303 304 304 303 302 302 301 300 301 300 300 300 300 300 300
315 315 315 315 315 315 315 315 315 317 318 320 320 321 320 318 316 317 316 313 313 309 308 309 307 305 303 303 303 302 301 300 300 300 299 298 297 297 297 296 296 297 298
316 315 315 315 315 315 315 315 316 318 320 320 320 321 318 316 319 316 316 313 312 311 310 307 305 302 302 302 302 301 300 299 299 299 298 298 298 297 297 297 298 297 296
315 316 316 316 316 316 316 316 317 320 321 321 320 320 319 319 319 317 313 312 310 308 307 303 303 302 302 301 299 299 298 298 298 298 297 296 296 295 295 295 295 295 294
316 316 315 315 316 317 317 316 319 322 321 320 320 320 319 317 314 312 311 309 306 305 303 302 301 301 299 298 298 297 296 295 295 295 294 293 293 293 292 292 292 292 292
317 317 317 316 317 317 317 316 321 321 322 321 320 320 317 314 310 309 308 306 304 303 301 300 298 298 297 295 295 295 294 293 292 290 288 286 285 284 284 284 284 284 285
316 317 317 316 318 319 318 319 319 321 321 319 317 316 314 312 310 309 306 304 302 300 299 297 296 295 295 295 293 292 291 289 287 286 285 285 285 285 284 284 283 284 284
316 317 317 319 320 321 321 321 321 320 318 315 312 312 309 309 309 307 305 301 300 298 296 295 295 293 293 292 290 288 286 286 286 285 286 286 285 285 285 285 285 285 284
318 320 321 321 321 321 321 321 320 318 315 310 308 307 305 304 303 302 301 300 299 297 295 294 293 291 289 286 285 285 285 285 286 285 284 284 284 285 285 285 284 283 284
319 321 321 321 321 321 320 319 316 316 311 307 306 303 300 300 300 299 298 296 293 292 290 288 288 286 285 284 284 284 284 284 284 284 283 283 284 284 284 284 284 283 284
321 320 321 321 319 318 316 311 311 308 305 303 302 301 299 296 295 295 292 289 287 285 284 283 283 283 283 283 283 283 283 283 282 282 282 283 283 283 284 284 284 283 284
320 318 316 314 312 310 306 305 306 303 300 297 296 296 295 292 290 290 288 285 284 283 281 280 279 278 278 278 279 281 281 281 281 281 281 281 282 282 282 283 284 285 284
313 310 307 306 305 303 300 302 303 299 295 291 290 289 289 289 289 285 284 284 283 282 280 279 278 278 278 278 277 278 278 279 279 280 282 280 280 281 282 282 283 284 285

GFSMA_925_thetae_072.txt.gz
Theta_e
321 322 324 325 324 324 322 320 319 318 316 316 317 318 318 319 319 318 317 317 317 317 317 316 314 313 312 311 310 309 309 308 308 308 307 307 306 305 304 304 304 303 303
319 318 320 323 324 324 323 320 317 316 315 315 316 316 317 318 319 319 318 317 316 317 318 317 315 314 312 311 310 308 308 307 307 307 306 306 305 304 304 303 303 302 302
318 318 317 318 319 320 319 318 317 315 314 314 315 315 316 317 318 319 319 318 316 316 316 317 316 315 313 311 310 308 307 306 306 306 306 306 305 304 303 302 301 301 301
315 315 317 317 317 318 316 316 315 314 313 313 313 313 314 315 316 317 318 318 318 317 316 315 315 315 314 313 312 310 308 306 305 305 306 305 304 304 303 302 300 299 300
313 316 317 317 318 316 315 316 315 314 313 312 312 311 310 311 313 314 316 317 318 317 317 316 315 314 313 313 313 312 310 308 305 304 305 305 304 303 303 300 298 297 296
312 316 317 319 319 318 318 317 317 316 315 314 313 312 312 312 312 311 311 313 315 316 317 317 316 315 314 313 313 314 313 311 309 305 305 305 304 304 302 299 298 297 295
317 317 316 319 320 319 320 320 320 319 317 316 315 315 314 314 313 313 312 311 311 311 314 316 316 317 316 315 313 314 313 312 311 308 306 306 305 305 304 301 299 298 296
318 319 317 318 320 321 322 321 321 320 321 318 319 321 323 319 316 315 314 313 313 312 311 312 314 315 315 317 315 314 313 311 310 310 308 307 306 305 305 303 302 300 298
318 318 314 314 316 319 321 321 321 322 322 320 320 322 324 325 323 320 317 315 313 312 312 310 309 309 313 314 313 313 312 311 308 309 309 308 308 307 306 305 303 302 300
318 316 315 315 316 316 320 321 320 322 323 323 320 320 322 322 323 323 318 317 315 313 310 309 310 310 310 310 312 311 311 309 308 304 306 308 308 309 308 307 305 304 302
318 317 315 315 315 315 316 318 319 321 323 321 322 322 320 320 320 321 324 321 315 312 310 309 308 309 308 309 311 311 307 307 307 306 304 301 305 306 306 307 308 306 305
319 317 316 316 316 316 319 318 319 319 319 321 320 322 323 323 322 321 323 322 321 318 313 314 314 311 309 309 309 308 307 304 305 308 306 303 301 301 305 305 306 307 307
319 317 317 316 317 316 317 317 319 319 321 320 321 322 323 323 323 322 318 317 318 316 314 314 314 313 311 309 309 306 305 306 306 303 302 302 301 300 300 302 303 304 305
318 318 317 316 316 317 316 317 320 321 320 322 322 322 322 322 322 321 318 315 314 313 313 313 312 312 310 310 309 307 305 304 304 303 302 302 302 301 301 300 300 301 302
319 319 318 319 318 319 320 320 321 321 321 322 322 322 322 323 323 321 318 317 316 315 312 314 312 309 308 306 304 304 304 303 302 301 300 300 300 299 298 297 297 297 297
319 319 319 319 319 319 319 320 320 320 320 321 321 322 322 324 322 319 319 316 316 315 316 314 310 308 306 304 302 303 303 302 302 301 300 299 299 299 298 298 298 298 298
320 319 319 319 319 318 319 319 319 320 320 321 321 322 322 323 319 318 317 316 313 313 313 307 307 305 303 303 302 303 302 301 302 300 299 298 297 297 296 296 295 295 295
321 320 320 319 318 318 319 319 320 320 320 321 322 322 321 321 319 318 317 315 311 311 310 307 304 303 303 303 303 301 300 300 299 298 297 295 293 293 292 291 290 289 287
321 321 320 320 319 319 319 319 320 321 321 321 321 320 320 319 317 317 313 310 308 308 307 306 304 303 304 299 298 298 298 298 296 294 292 288 286 286 285 285 285 284 284
319 319 319 319 319 319 319 319 320 320 318 315 316 319 320 319 318 313 311 307 306 305 304 304 305 299 298 297 297 297 296 295 293 290 289 288 287 287 287 286 286 285 285
319 319 319 320 320 320 319 318 318 318 317 318 318 318 320 318 315 314 309 306 305 304 301 302 298 297 297 296 295 295 292 291 290 289 289 289 288 288 288 288 287 287 286
320 320 320 320 320 319 319 319 320 319 320 320 317 316 314 311 310 307 306 306 303 300 298 297 296 296 296 295 292 291 289 289 290 289 289 288 287 287 288 288 287 286 284
320 320 319 319 320 321 321 320 321 320 319 318 314 312 308 305 304 302 301 301 300 299 298 296 295 293 292 290 289 288 288 288 288 288 287 287 287 287 287 286 286 285 284
320 320 321 321 322 322 320 320 321 317 314 310 307 305 304 299 299 300 298 296 294 292 291 290 288 288 287 287 286 286 287 286 286 286 285 286 286 286 286 285 284 284 284
321 321 321 321 320 320 319 317 314 310 306 301 299 298 299 298 296 297 296 290 286 286 285 285 284 284 282 281 281 283 284 285 285 285 285 284 285 285 284 284 285 285 285
320 320 317 315 314 312 310 309 308 304 297 293 293 292 294 294 292 291 290 288 285 283 282 281 281 280 279 281 278 279 281 282 283 284 284 283 283 282 284 284 284 283 285

GFSMA_925_thetae_075.txt.gz
Theta_e
326 326 327 325 320 321 320 317 320 320 319 319 319 320 320 320 320 319 318 317 318 318 317 316 315 314 313 312 311 310 310 310 309 309 308 307 306 306 305 305 304 304 304
325 326 326 325 323 323 321 320 320 319 318 318 319 320 320 321 320 319 319 318 317 317 317 317 316 315 313 311 310 310 309 309 309 308 308 307 305 304 304 303 303 303 303
324 325 325 325 324 324 322 321 319 318 317 317 318 319 319 320 321 320 319 318 317 317 317 316 316 315 314 312 310 309 308 308 308 308 308 307 305 304 303 302 301 301 301
321 324 325 325 325 324 323 320 318 317 317 317 317 318 318 319 319 320 320 319 318 317 317 317 317 316 314 313 312 310 309 307 307 308 308 307 306 305 304 302 301 299 299
321 320 320 321 322 322 320 319 317 316 316 316 316 316 316 317 318 319 319 320 319 318 318 315 316 316 315 314 314 313 311 309 307 307 307 307 306 305 305 304 302 300 298
320 318 318 319 319 319 318 318 318 318 317 316 314 314 314 314 315 316 317 318 319 319 319 319 316 315 314 313 314 315 314 312 310 308 307 307 306 306 305 304 303 300 299
319 319 319 320 319 317 317 319 319 319 318 317 316 316 316 316 316 315 314 315 317 318 318 318 319 318 316 314 312 314 315 316 314 312 309 308 307 306 306 305 304 302 301
319 318 319 321 320 319 320 321 321 321 320 318 318 319 321 318 317 317 317 315 314 314 315 317 318 318 318 317 315 313 315 316 315 314 313 309 308 308 307 306 305 304 303
318 317 318 320 321 322 322 322 323 323 323 321 321 322 325 325 323 320 318 317 316 316 315 314 314 316 316 317 317 317 315 313 314 312 311 312 309 309 308 308 307 306 304
317 319 321 321 321 322 323 324 324 324 322 321 321 322 323 324 323 325 321 320 319 317 316 316 314 312 313 314 314 315 315 314 312 312 310 310 311 310 310 309 309 308 307
320 319 320 318 317 319 321 322 323 323 323 320 319 322 322 323 323 322 322 322 320 319 317 316 313 311 312 311 311 313 312 313 312 310 310 307 307 308 309 309 309 309 309
318 320 319 317 315 316 316 318 319 318 319 321 319 321 320 322 322 323 324 323 322 320 317 314 313 313 316 317 311 310 312 313 311 310 308 308 306 305 305 306 307 307 307
318 319 319 317 315 317 317 317 318 317 318 318 319 320 321 322 323 322 323 324 324 323 320 315 315 317 317 317 312 312 311 310 309 307 305 306 308 306 302 302 303 305 305
319 319 319 318 315 316 317 318 318 318 318 318 320 322 321 321 322 322 322 323 323 319 318 318 317 315 316 316 312 312 309 308 305 305 306 304 303 303 303 303 302 301 301
321 320 318 317 316 316 318 319 319 318 318 319 320 321 321 322 322 322 323 323 322 322 319 318 316 315 315 315 312 310 309 307 306 305 304 303 302 301 300 299 299 299 298
322 321 320 319 318 318 319 320 320 319 318 319 321 323 323 323 322 323 323 323 321 319 320 317 316 316 313 311 309 308 306 306 305 303 303 302 301 300 299 299 299 298 298
323 323 322 321 320 319 320 320 320 320 320 321 321 322 322 322 323 323 323 322 321 319 317 316 315 314 310 307 305 305 305 305 304 304 303 301 300 299 299 298 297 296 295
324 323 323 322 322 321 321 321 321 321 321 321 322 322 322 322 322 322 322 321 318 317 316 315 310 309 307 305 303 304 305 305 304 303 302 300 298 297 295 294 293 292 290
324 323 323 323 322 322 322 322 322 322 322 321 322 322 322 322 323 322 321 318 317 316 315 313 307 306 304 304 305 304 303 301 301 300 298 297 293 289 288 287 286 286 285
325 324 324 323 322 322 322 322 322 321 322 321 322 322 322 323 321 319 318 318 317 312 310 309 306 304 304 303 301 300 300 298 298 297 295 291 290 289 288 288 288 288 288
324 324 324 324 324 323 322 322 322 321 321 321 321 322 322 321 318 316 316 316 313 310 307 306 305 303 302 300 300 299 297 297 296 294 292 292 291 291 290 290 289 289 289
323 323 323 323 324 323 323 322 322 320 320 320 320 319 318 316 316 319 317 318 315 309 306 305 302 301 300 299 297 296 294 293 293 292 291 291 291 290 289 289 290 289 287
323 323 323 322 322 323 322 321 321 319 318 319 319 318 317 317 317 315 310 309 306 305 304 301 299 298 297 296 294 292 291 290 291 291 290 290 289 289 289 289 289 288 287
324 324 324 324 323 323 323 322 321 319 318 320 319 318 316 312 308 307 304 302 299 298 296 295 296 294 292 291 290 289 289 290 290 289 288 288 288 288 288 288 288 286 285
325 324 324 323 323 322 322 322 321 320 318 314 311 308 306 303 299 299 300 296 293 292 293 292 290 288 287 287 287 287 287 287 288 288 287 287 287 287 287 286 285 286 285
325 324 321 321 322 322 321 321 320 316 306 300 297 295 294 295 292 294 295 292 288 285 285 284 284 283 281 281 280 281 284 285 285 286 286 286 285 285 285 285 285 285 284

GFSMA_925_thetae_081.txt.gz
Theta_e
326 326 325 319 317 314 312 311 311 315 319 320 320 321 320 320 318 317 317 317 318 318 318 318 317 315 314 314 313 313 312 312 311 310 308 309 308 307 306 305 306 307 307
327 326 322 316 314 311 310 315 314 316 318 319 320 320 320 319 318 316 317 317 317 318 318 317 317 316 314 313 313 313 312 312 310 310 307 305 302 301 300 300 301 303 303
327 325 318 314 311 309 316 320 319 317 317 320 320 321 320 319 318 315 317 316 317 317 317 317 316 316 315 314 313 312 313 312 311 310 309 305 303 302 301 300 300 300 301
327 326 316 318 313 309 318 320 320 320 319 319 320 321 320 319 319 317 316 316 317 317 317 316 316 316 315 314 313 312 312 311 311 311 310 308 305 303 302 301 300 300 300
324 325 318 321 317 314 318 321 320 319 319 319 320 320 321 319 319 319 316 315 316 316 316 316 316 316 315 314 314 313 312 311 311 311 310 310 309 307 305 304 303 301 301
323 324 320 322 320 318 317 320 319 318 319 319 319 319 320 321 320 319 319 317 315 315 316 316 316 315 315 314 314 315 314 313 311 311 311 311 310 309 308 307 305 304 302
324 324 323 322 324 321 321 319 318 318 318 319 318 318 318 319 320 320 319 319 318 317 316 315 315 315 316 315 314 315 316 316 315 312 311 311 311 310 309 308 307 307 306
323 323 324 322 323 323 322 319 319 318 317 317 316 315 314 314 316 318 318 319 319 318 318 318 317 317 315 315 315 314 315 317 318 316 314 312 311 310 310 309 308 308 308
317 316 319 318 322 323 319 318 318 317 316 316 316 316 318 317 316 315 315 315 317 319 319 319 319 319 318 317 317 317 314 313 316 317 317 316 314 312 311 311 310 309 309
317 320 320 321 321 321 319 318 317 317 317 317 317 317 320 321 318 319 317 316 316 314 316 317 318 318 318 318 319 319 318 317 315 314 316 317 317 314 314 313 312 311 311
321 321 320 320 319 319 318 318 319 319 319 318 317 318 320 321 321 318 319 320 317 318 317 315 314 315 315 316 318 319 318 317 317 316 315 314 314 316 315 313 312 312 312
320 321 320 320 319 319 320 318 319 320 320 319 319 317 319 320 320 320 317 317 319 319 319 319 318 317 315 316 315 316 316 316 317 316 316 316 315 314 314 313 313 313 313
319 320 319 319 321 320 321 321 320 320 322 321 321 320 320 320 320 319 318 318 318 319 320 321 320 319 318 317 316 316 314 313 313 313 313 314 315 314 314 313 311 311 311
320 318 318 320 321 319 321 321 321 321 322 322 321 320 319 318 318 318 320 319 317 319 320 320 320 320 320 319 318 317 316 314 312 312 313 314 312 313 313 313 312 310 308
320 319 318 318 321 321 320 321 321 322 322 319 320 319 318 317 318 318 318 319 319 318 316 319 320 320 320 320 319 318 317 317 315 315 316 312 311 312 312 311 309 306 304
320 319 319 317 318 320 320 319 319 320 321 320 320 318 318 317 317 318 318 318 320 319 319 319 319 320 320 319 319 318 317 317 317 316 315 312 311 310 309 306 304 303 303
321 319 319 319 318 318 319 318 317 316 317 317 318 318 318 317 318 318 318 319 320 320 320 319 319 319 319 319 318 318 317 316 316 314 312 310 309 306 305 304 303 302 301
322 322 320 318 317 318 318 317 317 317 316 317 318 319 319 319 319 319 319 319 319 319 320 319 319 319 319 319 318 317 316 315 313 313 311 309 309 305 303 302 301 300 299
323 322 321 320 317 317 317 317 317 316 317 317 317 318 318 318 318 318 318 319 320 320 320 320 319 319 319 318 316 315 314 312 311 311 309 308 306 304 303 301 300 298 295
323 323 322 321 321 319 318 317 317 317 317 317 317 317 318 318 318 318 319 319 320 320 320 319 319 318 317 315 314 311 308 309 307 306 305 305 305 302 301 299 293 290 289
324 324 323 322 322 321 320 319 319 318 317 317 317 317 318 319 319 319 319 320 320 320 320 319 317 317 311 308 309 310 307 306 303 303 302 302 301 299 297 292 291 291 290
325 325 324 323 323 322 322 321 320 319 318 318 317 317 318 319 319 320 320 320 320 320 319 318 318 316 312 309 309 306 304 299 297 299 299 294 293 293 292 291 291 290 290
325 326 325 325 324 323 323 323 322 320 320 319 319 319 319 319 320 320 320 321 320 320 319 318 316 316 312 311 306 302 299 297 293 292 294 294 293 292 291 291 290 290 288
325 324 325 325 325 324 323 323 323 323 321 321 320 320 320 320 321 320 320 317 313 310 309 308 308 308 305 302 302 300 296 294 292 291 291 290 291 290 290 289 288 288 288
325 324 324 324 324 324 324 324 323 323 320 320 320 320 320 320 320 319 318 311 300 297 296 299 299 297 296 296 296 294 291 290 288 288 288 288 288 287 287 287 287 287 287
325 325 324 324 324 324 323 324 324 323 319 318 317 316 318 319 317 316 315 303 291 289 290 290 290 289 289 288 288 289 289 288 287 285 282 284 284 284 284 284 285 285 284

GFSMA_925_thetae_084.txt.gz
Theta_e
330 330 327 326 321 319 318 319 321 319 319 320 321 320 320 319 317 318 318 318 319 319 319 318 318 317 316 315 315 314 313 313 313 311 310 310 310 309 308 308 308 308 307
329 328 327 325 321 315 317 318 320 319 320 320 321 320 320 318 317 317 318 318 318 318 319 318 317 317 316 315 314 314 313 312 312 310 310 309 308 305 302 304 306 306 304
328 326 324 322 318 314 315 316 314 319 320 319 320 320 320 318 317 317 317 317 317 318 318 318 318 316 316 315 314 314 314 312 311 310 309 305 303 302 301 301 300 301 301
326 325 323 317 315 313 312 312 317 318 320 319 320 320 319 318 317 315 316 316 317 317 317 317 316 317 316 315 314 314 314 313 312 311 310 308 305 302 301 301 301 300 300
326 326 319 313 312 311 316 315 315 316 319 320 320 320 319 318 317 316 316 316 316 316 316 316 316 316 316 316 315 315 314 313 313 312 311 310 308 305 303 302 301 301 301
325 323 318 310 310 312 319 319 317 318 319 319 320 320 319 319 318 317 315 315 316 316 316 316 316 316 315 314 315 315 315 314 313 313 313 312 311 309 306 304 303 302 302
326 323 316 316 313 314 319 320 320 319 319 319 319 317 319 319 318 318 318 315 315 315 316 316 315 315 315 314 313 315 316 316 315 314 313 313 312 311 310 307 304 304 304
326 324 318 320 315 316 318 321 319 318 318 319 318 316 313 315 318 318 318 318 317 316 315 315 315 315 315 315 315 314 316 317 318 317 315 313 312 312 312 311 310 308 308
323 322 321 320 319 319 317 320 319 318 318 318 318 317 315 314 313 316 318 318 319 318 318 317 317 317 317 316 316 316 315 315 316 318 318 316 315 313 311 311 311 311 310
323 323 323 320 321 321 321 320 319 317 317 317 316 316 316 316 314 315 315 315 317 319 319 318 318 319 319 318 318 318 317 317 315 314 315 318 317 316 315 313 312 312 312
322 321 322 323 322 322 322 321 318 318 317 317 316 317 320 320 319 317 316 316 315 315 315 316 317 318 319 318 318 318 317 318 318 318 316 314 315 317 317 315 315 314 313
321 319 320 321 321 321 322 319 319 317 317 316 316 316 319 321 320 319 315 317 318 317 316 316 315 315 315 315 315 315 315 315 317 318 318 317 316 315 315 316 316 315 314
321 318 320 320 320 320 322 321 318 318 317 317 316 317 316 318 320 320 319 316 317 319 318 318 318 318 318 317 316 316 315 315 315 316 316 316 316 316 316 315 315 314 314
319 320 320 321 320 320 319 319 318 318 319 318 318 318 317 317 317 320 319 317 316 317 318 319 319 319 319 320 320 319 318 317 316 315 314 313 313 313 314 315 316 315 314
319 319 320 320 319 320 321 319 320 319 319 320 320 320 319 318 318 319 318 318 318 317 317 318 318 318 318 317 318 319 319 319 318 318 315 315 312 312 312 312 313 313 314
319 318 319 319 319 319 321 321 321 321 321 320 320 320 321 321 320 318 318 318 319 318 318 318 318 318 318 318 318 319 319 319 318 318 317 316 314 311 312 313 311 312 313
321 319 318 318 318 319 320 320 320 321 321 320 320 320 320 320 319 317 318 318 318 318 318 318 318 318 318 318 318 318 319 319 319 318 318 318 317 315 315 312 311 311 310
322 321 319 318 318 318 318 320 320 319 319 319 319 320 320 319 318 318 317 317 318 318 318 318 318 318 319 319 319 318 318 319 318 318 318 317 317 316 315 311 309 307 302
322 321 320 319 319 318 317 318 318 318 318 317 317 318 318 318 318 318 318 317 317 318 318 318 318 318 318 318 318 318 318 318 318 317 317 316 315 313 308 306 304 301 300
322 322 322 320 318 318 318 318 317 316 316 316 316 316 316 316 317 317 317 318 318 318 318 318 318 318 318 318 318 316 314 316 315 315 314 312 311 309 306 304 301 300 298
323 323 322 322 321 319 318 317 317 317 316 316 316 315 316 316 317 317 316 316 316 316 317 318 318 319 317 314 315 315 313 313 311 310 309 308 307 306 303 301 299 294 291
322 322 322 322 322 321 320 319 317 317 316 316 315 315 315 315 316 316 317 317 316 316 317 317 318 318 318 314 314 314 311 306 300 303 303 302 301 301 301 299 294 292 293
322 323 322 322 322 321 321 321 320 318 318 317 317 316 316 316 316 316 317 317 318 318 318 318 318 318 318 317 313 310 309 308 302 297 298 294 295 294 293 293 293 291 289
323 323 323 323 323 323 322 322 321 321 319 319 318 318 317 317 316 316 316 316 317 317 317 317 317 316 315 313 313 308 303 297 293 292 294 291 291 292 292 291 290 289 289
324 323 324 324 324 324 324 323 323 321 319 320 319 319 318 317 317 318 317 316 312 307 306 305 305 303 303 303 303 302 294 293 289 287 289 289 288 288 289 289 289 287 287
322 324 324 323 323 324 324 324 324 320 318 318 320 319 319 319 318 318 318 310 301 294 292 290 290 291 291 292 293 295 292 289 287 284 283 285 284 284 284 284 284 284 283

GFSMA_925_thetae_087.txt.gz
Theta_e
327 330 330 330 327 327 326 325 320 320 321 321 320 319 316 317 318 319 319 319 319 320 320 319 319 318 317 316 316 315 315 314 314 313 312 312 311 310 310 310 310 309 308
330 330 328 328 326 326 325 323 320 319 320 320 320 319 318 317 317 318 319 319 319 319 320 319 319 318 317 316 315 314 314 314 313 312 311 311 310 309 309 309 309 307 306
330 328 328 326 324 325 324 320 319 318 320 320 319 319 319 318 318 318 318 318 318 319 319 319 319 318 317 316 315 314 314 313 312 311 311 309 309 305 302 305 305 303 302
329 327 327 325 322 324 323 320 318 318 320 320 320 320 319 318 318 317 318 318 318 318 318 318 317 317 317 316 315 315 315 313 313 311 310 309 305 302 301 302 301 301 301
328 326 326 324 320 317 318 319 317 318 319 320 320 319 318 318 318 317 317 317 317 317 317 317 317 316 316 316 316 316 315 315 313 313 311 310 308 304 303 302 301 302 301
328 325 324 322 319 316 317 318 316 317 319 320 319 319 318 318 317 316 316 317 316 317 317 316 316 316 316 315 316 316 316 316 315 314 313 312 311 309 307 303 303 303 302
327 325 324 318 316 314 314 314 317 317 318 320 319 317 317 318 317 316 316 316 316 316 316 316 316 315 314 314 314 316 317 317 317 316 315 314 313 312 308 309 304 304 304
325 323 323 314 315 312 314 316 316 316 318 319 318 316 314 316 317 317 317 316 315 315 316 316 315 315 315 314 314 313 315 317 318 317 316 315 314 313 312 312 311 310 309
325 323 322 315 314 311 317 318 317 317 318 318 318 317 314 316 315 317 317 317 316 315 315 315 315 315 315 315 315 315 314 314 316 318 317 317 315 314 313 312 312 312 310
326 324 321 316 314 312 318 319 319 319 318 318 317 318 318 316 315 314 315 317 317 317 317 317 316 316 316 316 316 316 317 316 316 315 315 317 318 317 316 315 313 312 312
326 325 323 318 317 312 317 318 320 318 318 318 318 317 316 316 315 315 315 315 316 318 318 318 318 318 318 318 318 318 318 318 318 317 316 316 315 317 318 317 315 315 315
323 323 322 320 318 320 315 317 319 319 318 318 318 317 317 318 318 317 315 315 315 315 316 316 317 317 317 317 317 317 317 316 317 317 317 317 317 317 315 316 317 317 316
322 322 322 321 322 319 317 320 320 319 317 317 318 317 317 317 317 319 318 316 316 316 316 315 314 315 316 316 316 316 316 315 315 315 315 315 316 317 317 317 316 316 316
321 322 320 320 322 322 321 321 321 320 320 318 317 317 317 317 318 318 319 318 315 315 317 318 317 317 317 317 317 318 318 319 319 318 318 316 316 316 316 316 316 316 316
320 320 320 319 320 320 320 321 321 319 320 319 317 317 316 316 316 318 318 319 318 317 315 317 317 317 317 317 318 317 318 318 317 318 319 318 318 317 315 314 314 315 315
320 320 320 319 319 320 320 320 320 321 320 319 318 318 317 317 317 317 317 319 319 318 318 317 317 317 317 317 317 317 318 318 318 318 318 319 319 317 317 315 314 312 312
321 319 318 319 318 320 320 320 320 320 320 319 319 319 319 318 319 319 319 318 319 318 318 318 318 318 318 317 317 318 318 317 317 318 318 318 318 318 318 317 317 315 314
321 321 320 319 319 319 319 319 320 320 320 320 320 320 319 319 319 319 318 318 318 317 317 317 318 317 317 317 317 318 318 318 318 318 318 317 318 319 318 318 317 317 315
322 321 321 319 318 318 318 319 319 319 320 320 320 320 320 319 319 318 318 318 317 317 317 317 317 317 317 317 318 318 318 318 318 318 318 319 319 318 318 317 316 315 312
322 322 321 321 320 319 318 317 317 318 318 318 318 318 318 318 318 318 317 317 317 316 317 317 317 317 317 317 317 316 316 317 316 317 317 318 317 318 317 316 313 311 307
322 322 322 321 320 320 319 319 317 316 316 317 317 317 317 317 317 317 317 316 316 316 316 317 316 317 317 316 315 316 314 315 316 316 315 315 315 314 313 311 309 306 303
323 322 322 322 321 320 319 320 320 318 317 317 316 316 315 315 315 315 315 315 315 315 315 316 316 316 316 316 316 315 316 314 310 314 312 308 309 306 305 304 303 300 298
321 322 322 322 321 321 321 320 319 318 317 317 317 317 316 315 315 314 315 315 315 316 316 315 315 315 315 316 316 315 315 315 313 310 306 299 297 298 298 298 298 296 292
320 322 322 321 321 322 321 321 321 320 317 317 317 316 316 316 315 315 314 313 314 315 315 315 313 314 315 315 316 317 315 311 300 296 297 292 292 291 292 292 291 292 291
307 313 320 322 322 322 322 322 321 319 317 317 318 318 317 317 317 316 315 313 313 311 312 310 309 306 307 309 310 310 306 298 291 289 291 290 289 288 289 289 289 289 288
300 303 307 314 315 311 310 316 318 319 317 317 318 318 319 318 318 317 316 313 311 304 302 294 293 291 291 294 295 298 299 297 288 285 285 285 285 286 284 284 285 284 283

GFSMA_925_thetae_090.txt.gz
Theta_e
327 329 324 326 330 328 329 327 323 322 323 324 322 320 319 319 318 318 319 320 320 320 321 320 320 318 318 317 316 315 315 315 314 314 314 313 313 312 312 312 311 310 310
327 328 327 329 329 328 328 325 321 321 323 322 320 319 317 317 318 319 320 320 319 319 320 320 320 318 318 317 316 315 315 315 314 313 313 312 312 311 311 311 310 308 308
328 327 328 329 328 327 327 322 320 320 321 321 320 318 316 317 318 319 319 319 319 319 319 319 318 318 317 316 315 315 315 314 313 313 312 311 310 309 310 310 308 307 306
326 327 328 327 327 327 326 321 320 320 320 320 319 318 317 317 318 319 319 319 318 318 318 318 317 317 317 317 316 315 315 314 313 312 312 310 309 308 307 308 306 306 304
328 327 327 326 326 326 324 321 318 320 319 319 319 318 318 318 318 318 318 318 318 318 318 317 317 317 316 316 316 316 316 314 314 312 311 310 309 306 304 305 302 303 302
329 328 326 326 324 323 322 318 317 318 320 319 318 318 318 318 318 318 317 318 318 318 318 318 317 316 316 316 317 317 317 316 315 314 313 312 310 308 304 303 303 302 302
327 328 326 324 321 323 321 318 317 318 318 318 318 316 317 317 317 317 317 317 317 317 317 317 316 316 316 315 315 317 318 318 317 316 315 314 313 311 309 306 305 303 303
327 327 326 323 320 319 319 318 317 317 317 318 318 316 315 316 317 317 317 317 316 316 316 316 316 315 315 314 315 314 317 318 319 318 317 316 315 314 312 311 309 308 305
326 327 326 322 319 316 316 317 316 317 317 318 318 318 314 318 315 317 317 316 316 316 315 315 315 315 315 315 315 314 313 313 316 318 318 317 316 315 314 313 312 310 309
326 326 325 322 316 311 314 315 315 317 318 317 318 318 318 317 317 315 316 317 316 317 316 315 315 315 315 315 315 315 315 315 314 314 316 318 318 317 317 316 316 315 314
324 322 324 323 315 310 313 314 314 316 318 318 317 318 316 316 316 314 315 314 315 318 317 317 316 317 317 317 317 317 317 317 316 316 316 316 315 316 318 317 317 317 316
322 322 322 321 314 312 313 314 316 317 317 318 318 318 317 316 316 316 315 314 316 316 318 318 318 318 318 318 318 318 317 317 317 317 317 317 317 317 316 316 316 317 317
322 322 322 320 316 312 310 310 316 319 318 318 318 318 318 318 317 316 316 316 315 315 315 315 317 318 317 317 316 316 316 315 316 316 316 316 316 316 316 316 316 317 317
322 324 323 322 319 314 313 313 313 318 319 314 317 317 317 318 318 317 316 316 316 316 317 316 316 315 316 316 316 316 316 317 317 317 317 317 317 317 317 316 315 315 316
322 323 322 322 320 318 317 319 315 316 318 318 318 317 317 317 317 317 317 317 317 317 316 317 317 318 317 317 317 317 317 317 317 317 317 318 318 318 318 318 317 316 316
321 322 322 320 320 320 321 321 317 316 320 319 319 318 319 318 316 316 317 317 317 317 317 317 317 318 317 317 317 317 317 317 317 317 317 317 317 317 317 318 318 318 317
321 321 321 321 319 319 320 321 321 321 320 320 319 319 319 317 316 316 316 316 317 317 317 317 317 318 318 317 317 317 317 317 317 317 317 317 317 317 316 318 318 318 318
321 320 320 320 320 320 318 319 320 319 319 320 320 320 319 318 317 317 317 317 317 317 317 317 317 317 317 316 316 316 317 317 317 317 317 317 317 317 317 318 317 317 318
321 321 321 319 319 318 319 318 319 319 320 319 319 319 319 319 318 318 318 318 318 318 317 317 317 317 317 316 317 317 317 316 317 317 317 317 317 317 317 318 318 318 318
321 321 321 321 320 319 319 318 318 318 319 319 319 319 319 319 319 318 318 318 318 317 317 317 316 316 316 316 316 316 316 316 316 316 316 317 317 317 316 317 318 317 316
320 321 321 321 321 320 320 319 318 318 318 318 318 318 318 318 319 318 318 318 317 316 316 316 316 316 316 316 315 316 314 315 315 315 315 315 315 315 315 316 315 316 314
321 321 321 321 321 321 320 320 319 318 317 317 316 316 316 317 317 317 317 317 317 316 315 316 315 315 316 316 316 315 315 315 314 315 314 313 313 312 313 315 315 312 310
321 322 322 321 321 321 321 320 320 319 318 317 317 317 316 316 316 316 316 316 316 316 316 316 315 315 315 315 315 315 315 315 315 315 314 309 308 306 305 306 304 302 302
310 311 314 318 320 321 320 321 321 320 318 318 318 317 317 317 317 316 315 314 314 315 316 315 313 313 314 315 314 314 314 314 312 308 306 300 294 293 292 293 292 292 293
302 303 303 305 307 309 304 307 314 316 317 317 318 318 317 317 317 317 316 314 313 313 312 313 309 308 307 309 312 310 307 306 295 291 292 292 289 288 287 287 287 287 287
296 296 295 294 294 294 294 299 303 307 311 315 316 316 316 313 314 315 315 314 313 312 308 299 295 290 291 292 294 294 297 303 297 287 285 286 286 287 284 282 283 283 283

GFSMA_925_thetae_093.txt.gz
Theta_e
332 329 328 329 329 326 327 327 327 326 325 324 323 323 322 322 321 321 320 320 321 320 321 321 321 320 318 317 317 316 316 316 316 315 315 315 314 314 314 313 312 312 311
329 328 328 329 327 326 327 326 325 325 324 323 322 322 321 321 320 321 320 320 320 320 320 322 321 320 318 318 316 316 316 316 315 315 315 314 314 313 313 312 311 310 310
327 329 328 327 326 326 326 326 323 323 323 322 322 321 320 320 320 320 321 321 320 319 320 321 319 318 318 317 316 316 316 316 315 315 314 313 313 312 312 311 310 308 308
327 328 328 326 326 326 326 323 322 322 322 322 321 321 319 319 320 320 321 321 320 319 318 318 318 318 317 317 316 316 316 316 314 314 313 312 311 311 310 308 307 306 304
326 327 327 327 327 326 324 320 320 321 321 321 321 320 319 319 320 320 320 320 320 319 318 318 317 317 317 317 317 316 316 316 314 314 313 312 311 309 304 304 303 304 304
326 326 326 326 327 325 320 319 320 320 321 321 319 319 319 319 319 320 320 320 320 319 319 319 318 318 316 316 316 317 317 316 315 314 314 312 311 308 306 303 303 303 303
325 324 323 326 325 322 320 319 319 320 320 320 319 319 319 319 319 319 320 319 319 319 319 319 318 317 317 316 316 317 318 319 317 316 315 314 312 310 307 306 304 303 304
327 326 325 325 322 320 319 318 319 320 319 319 320 320 320 318 318 318 318 318 319 318 318 319 318 318 317 317 317 315 318 319 319 318 317 315 315 313 312 310 308 306 305
327 327 326 326 322 322 320 318 318 319 319 319 319 321 322 323 319 318 318 318 318 318 317 318 317 317 316 317 317 315 314 316 318 319 319 318 317 316 315 314 313 312 310
325 327 326 326 324 320 319 318 318 318 319 319 318 317 320 320 322 321 316 317 317 317 316 316 315 315 315 315 315 315 314 313 313 314 317 319 319 318 317 317 316 316 315
324 325 326 325 322 318 319 318 317 317 318 320 319 317 317 317 318 320 321 317 317 317 316 316 316 315 315 315 315 315 315 315 315 315 315 314 315 317 318 318 318 317 317
324 324 324 324 320 317 315 316 317 317 317 319 319 318 317 318 318 318 319 319 319 318 318 318 317 317 317 317 317 318 318 318 317 317 317 317 317 316 316 316 317 318 318
322 321 323 322 321 320 314 311 313 316 316 318 318 319 319 318 317 317 317 318 318 318 317 318 318 318 317 316 317 318 317 317 317 317 317 316 317 317 317 317 317 317 317
322 321 321 321 321 320 314 311 312 315 315 316 317 318 318 318 318 317 317 318 320 319 318 318 316 316 316 316 316 317 317 316 316 316 316 316 316 316 316 316 316 315 316
322 321 321 321 321 316 313 312 314 316 313 317 317 317 317 317 318 318 318 317 318 321 320 318 317 316 316 317 317 316 316 316 316 317 317 317 317 317 317 317 318 317 317
321 322 321 320 320 318 313 311 312 314 313 314 318 316 314 315 317 317 317 317 317 318 321 317 316 316 315 316 316 317 317 316 317 317 317 317 317 317 317 317 317 317 317
320 321 321 322 321 319 318 316 317 315 315 314 317 317 317 317 317 316 317 317 316 317 317 317 317 317 316 317 317 318 317 317 317 317 317 317 317 317 317 317 317 317 317
320 321 321 321 321 321 321 321 320 319 319 317 317 319 319 318 318 318 318 317 317 317 316 316 317 317 318 317 317 317 317 317 317 317 317 316 316 317 317 316 317 317 317
321 320 320 320 320 320 320 319 320 320 320 320 320 320 320 321 320 320 319 318 318 317 317 317 318 318 318 318 318 317 317 316 317 317 316 316 316 317 317 317 317 317 317
320 321 321 320 320 319 319 319 319 319 319 319 319 320 320 320 320 321 320 320 320 320 319 318 318 318 319 319 319 318 318 318 317 317 316 316 316 316 316 316 316 316 316
321 321 321 320 320 320 319 319 319 319 319 319 319 318 319 319 319 319 320 320 320 320 319 319 319 319 319 319 319 318 318 317 317 318 318 317 316 315 315 315 315 315 315
321 320 320 321 322 321 320 320 319 319 319 319 319 319 319 318 318 318 318 319 319 320 319 319 318 317 317 317 317 317 317 317 317 316 316 316 316 315 315 313 312 312 313
316 317 318 320 320 318 317 319 319 320 318 318 318 318 318 318 318 317 317 317 318 318 318 318 317 316 316 316 316 316 316 316 316 316 316 315 314 311 305 305 307 305 304
305 305 306 307 304 302 302 308 315 318 317 317 318 318 317 317 317 316 316 316 315 316 316 316 314 314 315 314 315 315 315 315 315 312 311 310 298 290 290 292 292 293 293
298 295 295 296 294 294 297 301 305 311 312 313 315 315 312 313 313 316 315 315 314 314 312 312 306 302 299 299 302 307 304 305 309 296 293 292 289 285 284 284 283 285 286
293 290 288 288 288 288 290 295 299 301 302 302 302 297 294 296 298 303 307 307 308 308 305 298 295 291 292 292 293 294 293 296 296 291 288 288 287 286 283 281 282 284 284

GFSMA_925_thetae_096.txt.gz
Theta_e
332 333 333 332 332 330 329 328 324 329 330 329 328 327 326 325 323 322 322 322 321 322 322 322 321 322 318 318 317 317 317 316 316 316 316 316 316 316 315 315 314 313 313
333 332 332 331 330 329 328 328 328 328 328 328 327 326 325 324 322 321 321 321 321 321 322 322 322 321 320 318 317 317 317 317 317 316 316 316 315 315 314 313 313 312 312
332 330 330 330 329 327 326 327 327 328 327 327 326 326 324 321 321 321 320 321 322 320 320 321 321 321 320 318 316 317 317 317 317 316 316 315 315 314 314 312 311 311 311
330 330 329 330 328 326 326 326 327 326 327 326 326 325 322 321 321 320 321 321 321 321 321 319 319 319 318 317 318 317 317 316 316 316 315 315 314 314 313 311 310 307 310
328 329 329 329 328 326 325 325 326 326 327 325 325 324 322 322 322 322 321 321 321 320 321 320 319 318 317 317 317 318 318 316 316 315 315 314 313 313 313 312 310 307 305
326 327 327 327 327 325 323 324 325 325 326 325 324 323 322 323 323 322 321 321 320 320 320 320 319 318 317 317 317 317 317 318 316 315 315 314 313 312 311 310 308 308 307
327 327 327 327 325 323 324 324 325 326 325 325 323 323 322 322 322 322 321 321 320 319 319 319 319 318 317 316 316 317 318 318 318 316 316 315 314 313 312 309 307 305 305
326 326 326 326 324 323 323 323 325 325 324 324 323 323 323 322 321 322 321 320 319 319 319 319 319 319 319 318 317 316 317 320 320 319 317 316 315 314 313 311 308 306 306
324 324 324 324 323 322 322 323 324 324 324 324 323 323 324 325 322 322 321 321 319 318 318 318 319 319 319 318 318 317 316 317 318 320 319 318 317 316 316 315 314 312 310
325 323 323 323 323 323 323 322 324 324 324 324 324 323 322 322 324 324 321 321 321 320 318 318 318 319 319 319 319 318 317 313 313 317 319 319 320 319 318 318 317 316 316
325 324 325 324 323 322 321 323 323 324 324 324 323 323 323 323 323 322 324 322 321 320 319 319 318 318 319 319 319 319 317 316 313 313 313 314 317 319 320 319 319 318 318
325 325 325 325 323 321 321 321 321 321 321 322 322 322 322 322 323 321 319 321 321 321 320 320 319 318 318 318 318 318 318 317 317 316 315 315 315 315 315 316 317 318 319
323 323 324 324 323 321 320 320 320 319 320 321 321 321 322 321 320 320 319 318 321 320 321 320 320 319 319 319 319 319 317 317 317 317 317 317 317 317 317 317 316 316 317
323 323 322 322 324 322 320 320 321 319 319 319 319 321 321 321 321 321 320 317 319 318 319 320 321 321 321 320 320 317 317 316 316 317 317 317 317 317 316 316 316 316 316
323 322 322 321 322 321 318 317 317 318 316 317 319 320 321 321 321 321 321 318 317 323 320 319 319 319 320 320 319 316 317 317 316 316 317 317 316 315 316 316 316 317 317
322 322 322 321 320 319 319 316 313 313 314 316 316 318 320 319 319 319 319 320 320 320 323 319 319 319 320 318 318 316 318 315 316 316 317 316 316 317 316 316 317 317 317
322 322 321 320 319 318 318 316 314 314 315 315 315 317 318 318 318 319 320 319 318 318 318 318 318 318 318 319 319 318 317 316 316 315 316 317 317 317 317 317 317 317 317
321 321 321 321 320 319 318 315 313 314 315 316 317 316 315 317 318 316 316 317 317 317 317 318 317 318 319 319 318 318 318 319 319 318 317 316 317 317 316 317 317 316 316
324 323 324 322 321 320 319 317 317 317 318 318 318 315 315 317 318 318 317 317 317 317 318 320 321 320 320 319 319 320 320 320 320 318 317 316 316 316 316 316 316 316 316
324 324 324 324 324 323 323 323 323 323 322 320 318 316 317 318 318 320 320 321 322 322 322 322 321 321 321 321 321 321 322 321 321 320 319 318 317 317 317 316 316 315 316
321 322 322 322 322 323 322 322 322 321 320 320 320 320 320 321 321 322 322 322 322 323 323 323 322 322 322 322 322 322 322 322 322 321 320 320 320 320 319 318 317 316 316
322 322 322 322 322 319 320 320 321 321 321 321 321 321 321 320 320 320 320 319 320 321 322 322 322 321 321 321 321 322 321 320 319 319 319 319 319 320 318 318 318 317 316
313 315 315 316 313 306 308 316 319 319 320 321 321 321 321 321 321 321 320 319 319 319 319 319 320 321 320 320 319 319 319 319 319 318 318 318 315 307 296 295 296 305 307
301 300 299 298 298 297 301 305 311 315 315 315 314 314 315 315 315 316 317 317 317 318 317 315 314 312 312 312 312 312 310 308 310 310 309 301 296 289 289 289 289 290 292
293 291 291 291 291 291 295 301 305 307 305 303 300 299 301 301 301 305 308 309 312 312 306 308 305 298 295 296 298 301 302 301 304 303 298 297 292 288 285 285 285 285 286
291 289 288 287 288 287 290 295 297 297 295 292 290 290 291 292 296 299 301 302 302 297 296 293 292 291 290 289 291 292 291 291 296 293 287 289 288 286 283 281 282 282 282

GFSMA_925_thetae_102.txt.gz
Theta_e
337 335 334 332 332 331 332 331 329 328 327 326 327 328 329 328 328 327 324 325 324 322 322 322 322 321 320 319 319 318 318 318 317 318 317 316 316 317 316 315 315 315 314
336 335 333 333 332 332 332 331 331 329 326 327 328 327 329 328 327 325 323 324 323 321 321 322 324 323 321 319 319 318 318 318 318 318 317 316 316 316 315 315 314 314 313
336 334 333 332 333 332 333 332 330 330 324 327 327 327 327 326 326 325 323 323 322 320 320 323 322 323 321 321 319 318 318 318 318 317 317 316 316 315 314 314 312 311 311
335 335 334 332 332 332 332 331 329 328 326 327 328 327 326 324 323 324 323 321 322 321 320 320 320 322 320 321 320 318 317 318 317 317 316 315 315 315 314 311 310 311 311
334 333 333 332 331 331 331 331 329 326 326 327 327 327 326 323 322 323 322 321 321 321 320 321 321 320 319 319 319 318 318 318 317 317 316 316 315 314 313 312 310 310 310
333 333 333 332 330 331 330 331 329 327 327 327 326 327 322 322 321 322 321 322 320 321 320 320 321 320 318 318 318 318 318 318 317 317 317 317 316 314 313 312 311 310 309
332 332 332 330 330 331 330 329 328 328 328 327 326 324 324 322 321 322 323 324 323 321 322 322 320 319 319 318 317 317 319 319 319 318 318 317 316 315 313 313 312 311 311
332 331 330 329 329 330 329 329 328 327 327 326 325 324 323 323 322 322 321 322 323 322 323 321 320 320 320 318 317 317 317 319 319 319 318 317 316 316 313 311 310 309 309
330 331 330 329 328 329 327 327 327 326 326 325 325 323 323 323 323 322 321 320 321 322 320 321 319 320 320 319 319 316 316 317 319 319 319 318 317 316 314 313 311 309 308
331 330 328 327 327 327 326 326 326 326 325 325 325 323 322 323 322 322 322 321 321 322 321 320 320 319 320 321 320 320 319 316 316 318 319 319 319 318 317 316 316 316 316
329 327 326 326 326 325 326 325 326 326 326 325 324 323 322 323 322 322 322 322 321 321 321 320 320 320 320 320 320 320 320 319 317 313 317 319 320 320 319 319 319 318 318
326 327 326 323 324 325 325 325 324 325 326 325 324 324 323 323 323 322 322 322 321 320 321 320 319 319 319 319 319 320 319 320 319 317 314 313 315 318 320 320 320 319 319
325 324 324 323 324 324 324 324 325 324 324 325 325 324 324 324 324 323 323 323 322 323 322 322 321 320 319 320 319 319 320 320 319 318 318 316 314 313 313 316 317 318 318
323 324 324 322 323 323 323 325 326 325 325 324 324 324 323 323 323 321 322 321 319 321 322 323 322 322 321 319 319 319 319 318 318 319 318 318 317 317 316 316 315 314 314
323 325 324 323 323 324 324 324 325 325 325 324 324 324 323 322 319 317 317 323 321 320 320 322 323 322 322 321 319 319 318 317 317 317 317 317 317 317 317 317 317 317 316
324 325 324 323 323 324 324 324 324 324 324 324 324 323 323 322 320 317 317 322 322 322 320 320 321 322 322 322 321 322 322 321 321 321 319 318 317 316 316 316 316 316 316
324 323 323 322 322 323 323 323 323 323 323 323 322 323 320 321 318 319 320 321 321 321 320 320 320 320 320 321 321 321 321 321 321 320 318 318 318 318 317 316 315 315 316
324 323 322 322 321 321 322 321 321 321 322 321 321 321 321 321 321 321 321 320 319 321 321 320 320 321 320 319 318 317 316 317 319 320 320 319 319 319 319 318 318 317 316
324 323 323 321 320 319 320 320 320 320 321 320 320 318 318 319 318 318 319 320 321 321 321 321 319 319 319 319 318 317 318 318 318 319 319 320 320 320 320 319 319 319 318
326 325 323 322 321 320 319 319 319 319 318 317 317 317 317 316 317 316 317 317 319 319 320 320 319 319 318 318 318 319 320 320 321 322 322 322 322 321 319 319 318 316 316
323 323 324 322 321 320 318 318 318 318 318 318 318 318 318 318 320 319 318 319 317 316 316 318 318 318 319 320 320 322 323 323 323 323 323 323 321 318 313 310 312 311 315
323 322 319 319 314 312 315 319 319 318 318 319 321 321 321 320 320 319 318 317 316 317 317 317 319 321 321 322 319 319 319 319 318 320 317 317 317 315 305 300 297 302 302
314 310 305 307 304 303 308 314 318 318 319 319 319 320 319 317 319 319 319 317 317 315 317 316 314 315 310 311 310 311 309 310 310 309 307 307 306 303 295 291 288 291 292
298 297 296 296 298 298 303 309 312 314 313 309 307 307 307 306 308 311 311 307 306 304 304 304 302 297 296 299 300 301 300 300 300 299 299 299 295 291 288 288 287 288 289
291 291 291 291 293 295 299 300 304 301 297 294 294 295 296 297 297 302 302 300 293 291 291 292 292 292 293 294 297 298 296 295 297 289 290 291 289 288 286 285 285 285 285
290 288 288 289 289 290 294 294 296 294 290 289 289 288 289 291 294 297 298 296 290 287 289 288 287 287 288 288 289 290 289 289 289 288 285 286 287 287 285 284 284 284 284

GFSMA_925_thetae_105.txt.gz
Theta_e
336 335 334 333 331 330 329 328 328 329 328 326 325 324 326 329 329 329 326 325 326 325 324 323 322 322 320 320 320 319 318 319 318 318 318 316 316 316 316 316 315 315 315
336 335 334 333 332 330 328 328 328 328 328 327 327 325 326 328 328 328 326 325 324 324 322 321 321 324 322 319 319 319 319 318 318 319 317 315 316 316 315 314 313 312 313
336 335 334 333 331 331 331 331 330 329 328 327 327 325 327 327 328 326 325 325 323 321 321 322 323 322 322 319 319 319 318 318 317 318 317 316 315 315 315 313 312 312 311
336 334 334 333 332 332 332 331 330 330 329 327 326 327 326 327 327 325 324 324 322 321 320 320 321 320 320 320 319 319 318 318 318 317 316 316 316 315 313 313 311 310 310
336 334 334 332 331 332 331 331 330 329 328 325 328 326 326 325 326 324 323 323 321 320 319 322 321 321 320 319 320 319 319 318 318 316 316 316 316 315 314 312 310 310 310
335 336 334 333 333 331 331 331 330 329 328 326 328 327 327 324 324 323 322 321 320 320 319 320 319 320 319 319 319 319 318 318 318 317 317 317 316 316 315 313 312 310 310
333 333 333 333 333 331 330 330 329 328 327 326 328 327 325 324 323 322 322 320 319 319 319 320 320 320 319 318 318 318 319 319 319 317 318 317 316 316 315 314 313 312 308
332 332 332 332 332 331 330 330 329 328 326 327 327 324 323 322 322 322 322 321 320 320 320 319 319 320 319 318 318 318 318 320 319 319 318 317 317 316 315 314 313 314 311
332 331 331 332 331 330 329 330 329 328 326 326 326 323 322 323 321 323 322 323 322 321 321 321 320 319 319 318 318 317 317 317 319 320 319 318 317 316 316 315 311 311 308
331 332 331 330 329 329 329 329 329 327 326 326 325 323 322 322 321 321 322 321 322 322 322 322 321 319 319 318 319 318 317 316 316 319 319 319 319 317 316 314 313 312 310
332 331 331 329 327 329 328 328 328 327 326 326 325 324 323 322 322 321 321 321 320 320 322 321 321 319 318 319 319 320 319 319 317 315 316 319 319 319 319 318 318 317 316
331 330 329 326 326 326 326 327 327 326 326 325 325 323 322 321 321 321 320 320 320 320 320 322 321 320 319 320 321 320 320 320 319 319 317 315 317 319 320 320 320 319 319
328 326 325 323 325 326 325 325 326 326 325 325 325 324 322 322 322 321 321 320 319 320 320 321 320 319 320 320 319 319 319 320 319 319 319 318 317 314 314 317 319 320 320
326 325 324 324 323 322 324 324 325 325 325 325 324 323 322 321 324 322 322 321 319 320 321 320 320 320 319 319 319 318 318 318 318 319 319 319 317 317 317 315 314 314 314
327 324 324 323 321 323 324 324 324 325 325 324 324 324 322 321 323 322 321 321 319 317 321 322 322 321 322 321 320 319 319 318 318 319 319 318 317 318 318 317 317 317 317
325 323 323 323 322 323 323 324 325 325 324 324 324 324 323 323 322 321 318 316 320 321 320 319 321 321 321 321 321 321 320 319 319 319 318 318 318 318 318 317 317 316 316
324 323 323 322 322 323 323 323 323 323 323 323 323 323 324 323 323 321 321 318 316 319 320 321 320 321 321 321 321 321 321 321 321 321 320 319 320 319 318 317 317 317 317
324 322 323 323 322 323 323 323 324 324 324 324 324 324 323 323 322 322 320 318 318 320 320 319 320 320 320 320 320 321 321 321 320 320 320 317 317 318 318 319 319 319 319
324 323 323 322 322 322 323 323 323 323 322 323 323 323 323 323 321 320 320 319 319 320 320 320 319 320 320 320 319 319 319 317 316 316 317 318 318 318 319 319 318 318 317
325 323 322 321 320 321 322 322 321 322 322 322 322 322 322 322 321 320 321 320 319 320 320 320 320 319 318 318 318 318 317 318 318 318 319 320 320 320 320 318 317 315 314
325 323 322 320 320 319 319 319 320 319 320 320 320 320 320 320 320 319 319 319 317 317 317 318 318 318 319 318 317 318 319 320 322 321 318 315 313 311 310 307 306 306 302
323 323 319 317 318 316 317 318 318 318 319 318 318 318 318 317 317 317 317 317 317 317 317 315 315 315 316 318 319 318 316 316 315 315 312 310 306 303 299 297 293 294 294
303 305 304 304 303 307 313 317 318 317 317 317 316 316 316 316 316 315 316 317 316 316 315 315 315 316 309 308 307 310 309 309 308 307 305 303 297 296 292 289 290 289 289
292 292 294 295 298 299 306 310 313 312 309 305 304 304 305 305 307 307 310 308 305 304 305 306 306 301 299 300 301 300 300 300 298 297 298 296 291 287 287 287 286 287 287
289 288 289 291 291 292 298 302 306 301 296 293 293 295 297 298 301 301 304 300 295 291 292 294 293 293 292 295 298 298 296 295 293 287 290 290 288 286 285 285 284 284 285
288 288 287 288 289 290 291 292 295 293 290 288 288 290 293 295 297 298 296 294 289 288 289 290 290 289 288 287 291 291 291 291 290 286 285 287 287 287 284 284 284 283 283

GFSMA_925_thetae_108.txt.gz
Theta_e
337 336 336 335 334 332 332 331 327 326 326 326 326 326 327 329 329 329 329 328 328 328 328 325 323 322 322 320 320 319 318 318 318 317 317 317 317 317 317 316 316 316 316
336 335 335 334 333 332 331 330 328 327 327 328 327 326 326 328 329 329 329 327 326 326 325 324 323 322 322 321 319 318 318 319 318 318 317 316 316 316 316 315 315 315 316
334 335 334 334 332 331 330 330 328 327 328 328 327 325 325 327 328 328 327 326 326 324 323 323 322 322 322 322 319 318 318 318 318 319 317 315 316 316 315 314 313 313 314
335 335 334 333 332 332 330 329 328 328 328 328 327 326 326 327 328 328 327 326 325 324 322 320 320 324 321 320 320 319 319 318 318 318 318 315 316 316 315 314 312 312 312
336 335 334 334 333 332 330 329 330 329 329 328 327 327 327 327 327 327 326 325 324 323 321 321 321 321 320 320 319 320 319 318 318 318 317 316 316 315 314 313 312 311 310
335 335 334 333 333 331 331 331 331 330 329 329 327 327 327 326 326 326 325 325 323 321 320 319 321 320 320 319 319 320 319 318 318 318 317 318 316 315 315 314 312 310 310
337 335 334 334 333 332 331 331 330 327 326 327 327 327 326 326 325 325 324 324 323 321 319 320 321 320 320 319 318 318 320 319 319 317 317 318 317 315 315 315 314 312 310
334 336 335 334 333 332 332 331 329 327 326 326 326 327 326 323 323 323 323 323 322 321 319 319 320 319 320 319 318 318 319 318 319 320 318 317 317 316 315 315 313 313 311
334 333 334 334 334 333 332 330 329 327 327 326 326 325 323 324 322 321 321 322 321 320 319 319 320 319 319 319 318 318 318 317 319 319 318 317 317 316 316 316 314 311 308
335 333 332 332 332 332 331 330 329 328 327 325 326 326 323 322 322 322 321 321 320 320 319 319 319 319 319 319 318 318 317 317 317 318 320 319 318 317 316 316 316 314 313
333 333 332 331 330 331 329 328 327 327 327 326 326 325 322 322 321 322 323 320 321 321 320 320 320 320 319 319 318 318 318 317 316 316 317 318 319 319 318 318 318 317 315
330 332 331 331 331 329 328 327 326 326 327 327 326 325 322 321 320 321 320 320 320 321 321 321 321 321 321 320 318 318 319 319 318 318 317 315 316 319 320 320 320 320 319
330 331 331 331 329 328 328 326 326 327 327 326 326 324 323 321 321 320 320 320 320 319 321 321 321 321 321 320 318 319 320 320 320 319 319 319 317 316 315 315 317 319 320
330 330 330 329 327 326 326 325 326 326 327 326 326 324 322 321 321 321 320 320 319 318 319 320 320 321 321 320 320 319 320 320 319 319 319 319 319 318 318 317 316 315 314
330 330 329 327 324 323 322 323 324 325 325 326 325 324 322 322 321 321 321 321 320 319 320 320 319 320 321 320 319 320 319 319 319 318 318 318 318 319 319 318 317 317 317
329 328 328 325 323 321 322 322 323 324 325 325 325 324 323 322 322 323 322 321 320 319 318 320 320 320 320 320 319 320 320 320 319 319 318 318 318 318 318 317 317 317 317
329 327 325 323 322 322 321 322 323 324 324 324 324 323 323 322 321 322 321 318 320 321 320 320 320 321 321 321 321 321 321 321 320 320 320 320 320 320 316 319 319 319 319
327 326 324 323 322 320 321 322 322 324 324 324 324 323 323 322 321 321 320 319 319 318 317 319 320 320 320 320 320 320 320 320 320 320 319 320 320 319 319 320 320 320 320
326 324 323 322 322 321 322 321 322 323 323 323 323 323 323 323 322 322 321 322 321 319 319 319 319 319 319 319 318 319 319 320 320 320 319 317 316 317 317 317 317 317 317
325 323 323 322 322 321 322 322 322 323 323 323 323 323 322 323 322 322 322 321 320 319 319 320 319 319 319 319 319 319 318 318 318 316 317 317 317 315 313 308 312 315 310
324 323 323 322 321 321 321 321 321 322 321 322 322 323 323 323 323 323 322 321 320 320 319 319 318 318 318 317 317 318 318 318 317 318 314 310 309 308 306 304 300 297 297
321 322 320 318 318 318 319 320 320 320 321 321 320 321 321 322 321 321 320 319 318 318 317 316 316 316 317 317 317 317 317 319 314 312 309 303 301 298 295 294 292 293 293
307 307 307 307 307 308 314 318 318 318 318 317 317 318 317 317 317 317 317 317 315 316 316 316 315 314 313 313 313 312 310 310 309 306 304 293 292 291 289 289 289 289 289
290 294 296 299 300 299 305 308 312 314 311 308 309 309 310 309 308 310 310 309 307 307 310 311 311 311 309 309 308 306 304 302 299 298 299 292 289 287 287 287 287 287 287
289 288 289 291 293 292 296 299 302 302 298 295 297 298 300 301 302 302 304 298 294 292 291 295 295 294 296 299 301 301 299 296 292 290 292 291 287 285 284 285 285 285 285
287 289 286 288 289 290 292 293 293 290 289 288 289 290 294 298 298 298 299 295 288 287 289 289 288 290 290 291 293 294 294 294 290 287 287 288 287 286 284 284 283 283 281

GFSMA_925_thetae_111.txt.gz
Theta_e
338 337 336 335 335 334 332 330 329 327 326 328 329 329 329 330 330 328 329 330 328 329 329 328 325 323 322 321 320 319 319 318 318 318 317 317 317 316 316 317 317 316 316
337 336 336 336 335 334 332 331 330 327 327 326 326 327 327 328 329 328 328 329 328 328 328 326 325 323 322 321 320 318 318 318 318 317 317 316 316 316 316 316 315 315 316
337 336 336 335 335 334 332 331 331 328 327 326 327 327 326 326 329 328 326 328 328 326 326 325 323 322 322 321 319 318 318 318 318 317 317 316 316 316 316 315 314 315 314
336 336 335 335 334 333 332 331 331 328 327 327 327 327 325 326 327 328 326 326 327 326 325 324 323 322 321 321 319 318 319 318 317 317 317 316 316 316 315 314 313 312 313
335 334 335 334 334 333 332 331 330 329 327 329 327 328 326 326 326 327 327 327 326 326 324 323 321 321 320 321 320 320 320 318 317 318 317 315 316 316 315 314 312 311 311
335 334 334 334 333 332 331 330 330 328 327 328 327 327 327 327 326 327 327 326 326 326 323 322 320 320 321 320 319 320 321 319 318 318 318 317 317 316 315 315 313 311 309
335 335 334 334 333 332 331 331 329 329 329 327 327 326 326 327 326 326 327 327 326 325 323 321 321 320 320 319 320 319 319 319 319 318 318 317 317 316 316 315 314 312 311
335 335 335 334 334 332 331 330 329 328 327 326 326 326 325 322 324 325 326 326 325 325 322 321 320 321 319 319 319 319 319 319 319 319 318 317 316 316 316 316 315 315 314
335 336 335 334 334 332 331 330 330 327 327 326 327 326 325 325 323 322 324 325 324 324 322 320 319 319 320 319 319 318 318 319 319 319 318 318 317 316 316 316 315 314 315
335 334 336 335 333 332 331 330 329 329 328 327 326 326 325 323 324 321 321 323 323 323 322 320 319 320 320 320 320 318 318 318 317 318 319 319 317 317 316 316 316 315 314
336 334 333 334 334 333 331 331 329 329 328 327 326 326 324 322 323 322 323 321 321 322 321 321 319 319 319 319 319 319 318 318 317 317 318 318 319 319 318 318 317 316 316
335 335 333 333 332 331 330 331 329 328 328 327 326 326 326 323 322 322 322 321 321 321 320 320 320 319 318 319 319 319 319 318 317 317 316 316 317 319 319 319 319 319 318
332 332 331 332 332 331 330 329 328 327 327 327 326 326 326 324 322 322 321 321 321 319 320 320 320 319 319 319 319 319 319 318 317 318 318 317 317 316 316 317 319 319 319
331 330 331 330 331 330 329 329 327 326 326 326 326 326 325 323 321 321 321 320 319 319 319 321 321 321 321 321 321 320 319 318 318 319 319 319 318 318 317 317 316 315 315
330 329 329 329 330 330 329 327 326 325 326 326 326 326 325 323 321 320 320 320 320 321 320 319 320 321 321 321 321 321 320 319 319 319 320 319 319 319 318 318 318 318 318
330 330 329 329 329 329 327 325 324 324 325 324 325 324 323 321 321 320 320 320 319 319 319 319 319 319 320 320 321 320 320 319 319 320 319 319 318 318 318 318 318 318 318
330 329 329 329 329 327 326 322 321 321 322 323 324 324 324 323 321 320 320 320 319 319 318 318 319 319 319 319 320 320 320 319 319 320 319 319 319 318 319 319 319 319 319
329 328 328 328 328 326 323 321 322 322 323 323 324 324 323 322 321 320 320 321 320 320 320 319 319 319 320 320 321 320 320 320 321 320 320 319 320 320 320 320 319 319 319
327 325 326 326 325 322 322 321 321 322 322 323 324 324 323 322 321 320 320 320 320 319 318 317 317 317 317 318 320 319 320 319 320 320 320 320 319 319 318 317 317 316 316
325 325 325 323 322 322 321 321 320 321 321 323 324 324 323 322 321 320 320 320 320 319 319 318 318 318 318 319 319 319 318 318 317 317 316 315 314 314 314 313 311 310 309
324 324 324 322 321 321 321 322 321 321 322 322 323 323 322 322 322 322 321 320 320 320 319 319 318 318 317 317 318 318 317 318 315 315 311 308 306 303 302 301 300 300 300
307 316 321 320 321 320 320 321 321 321 322 322 322 322 322 322 322 322 322 322 320 319 318 318 318 318 316 318 319 318 318 316 311 310 307 300 298 297 295 295 294 295 295
293 294 297 303 305 308 315 319 319 319 320 320 320 320 320 321 321 321 319 319 319 319 318 318 317 317 317 317 317 316 316 316 314 306 303 291 293 292 292 290 290 290 289
292 291 291 291 294 295 301 309 315 315 313 311 311 312 313 315 315 315 312 310 308 308 310 313 314 313 312 311 311 310 311 310 303 299 300 289 288 287 287 288 288 287 286
290 290 291 290 289 290 293 297 306 304 300 297 297 300 302 302 304 307 306 301 295 292 293 297 299 299 300 303 302 302 302 300 292 291 293 290 286 285 285 285 285 284 284
286 287 288 289 289 289 289 292 294 293 291 290 292 293 295 296 295 296 300 295 290 288 291 291 291 292 293 295 296 296 295 295 290 289 289 290 286 287 284 284 282 281 281

GFSMA_925_thetae_114.txt.gz
Theta_e
338 337 337 336 336 333 331 331 329 328 327 329 330 331 331 330 330 328 326 329 330 331 331 329 327 325 323 321 320 320 319 318 318 317 317 317 317 317 316 316 316 316 316
338 337 337 335 335 334 333 332 328 329 327 327 329 329 329 329 330 329 328 328 328 328 329 328 327 325 323 322 320 319 318 319 318 317 317 317 316 316 316 316 316 315 316
338 337 337 336 335 334 333 332 330 330 327 326 326 326 327 328 328 329 328 327 328 327 327 327 325 324 323 322 319 318 318 318 318 317 317 316 316 316 316 316 315 315 315
338 337 336 336 337 336 334 332 331 330 328 327 326 326 326 326 326 327 329 327 327 328 327 327 325 323 321 322 320 318 317 317 317 317 316 316 316 315 315 316 314 314 314
337 337 336 335 337 336 333 332 331 330 328 326 326 327 327 326 326 326 327 327 325 327 326 326 324 322 320 320 321 319 319 317 318 317 317 316 316 315 315 315 313 313 313
337 336 336 335 334 334 333 332 331 328 328 326 326 326 327 327 325 325 326 327 325 325 326 325 324 322 321 320 320 319 321 320 317 318 317 317 316 316 316 315 313 313 313
335 335 335 334 334 333 333 332 332 328 326 327 326 326 327 326 326 326 326 326 326 326 326 325 323 321 321 319 320 319 321 322 319 318 318 317 316 316 316 315 314 313 312
334 335 334 333 333 332 332 332 330 328 328 327 326 326 325 323 325 326 326 326 326 326 326 324 322 320 319 321 319 319 319 321 321 318 317 317 317 316 316 316 315 314 314
336 335 334 333 333 332 330 329 329 329 328 327 326 326 326 326 322 323 325 326 326 326 326 325 323 320 320 320 319 318 319 319 319 318 318 317 317 316 316 316 316 316 315
336 335 334 335 333 333 331 330 330 330 328 326 326 325 326 323 325 322 322 324 325 325 325 324 323 321 320 320 318 318 318 318 317 319 319 318 317 317 317 316 316 316 315
335 336 335 333 333 332 331 331 330 329 328 328 327 326 326 325 323 321 323 321 322 324 324 324 322 320 319 319 319 319 318 318 317 318 318 318 318 318 317 317 317 316 316
334 334 334 335 333 332 331 330 330 330 329 328 328 327 326 325 322 321 322 323 322 321 323 323 323 321 319 319 320 319 319 319 318 317 317 317 318 318 318 318 318 318 318
332 335 334 334 333 332 332 331 330 329 329 328 328 327 327 326 325 323 323 322 322 320 321 322 321 321 320 319 319 319 318 319 319 318 318 317 317 317 317 317 318 319 319
332 333 334 332 333 331 331 331 330 329 329 328 327 327 326 326 326 324 323 322 321 319 320 321 320 320 320 319 318 318 318 318 318 319 318 317 317 317 317 317 316 316 316
332 332 332 332 331 330 331 330 329 329 328 327 326 325 326 326 325 324 322 322 322 322 321 319 320 320 320 320 320 319 320 320 320 319 318 318 318 319 319 318 318 317 317
331 331 330 330 329 330 329 329 328 327 327 326 325 325 325 325 325 323 322 321 322 321 321 320 320 320 321 321 321 321 321 321 320 320 319 318 319 319 319 319 318 318 318
330 330 330 329 327 329 328 328 327 327 326 324 324 324 323 323 324 322 320 320 320 320 319 318 320 317 319 319 320 321 321 320 320 320 319 319 319 319 319 318 318 318 318
329 329 328 327 326 326 327 327 326 325 323 322 321 322 323 323 322 320 320 320 319 319 318 317 318 318 318 318 319 319 319 319 319 318 319 318 318 318 318 318 319 319 319
328 327 325 326 325 325 325 326 325 323 321 321 321 323 323 323 322 321 320 319 319 318 318 319 319 319 319 319 319 320 320 320 319 319 320 319 319 319 319 319 319 318 317
321 325 325 325 325 324 324 325 324 322 321 321 322 322 323 323 322 321 320 320 319 319 319 319 318 318 318 317 318 318 319 319 318 317 318 317 317 314 313 312 311 311 311
311 315 321 323 324 323 322 322 322 321 320 321 321 321 323 323 323 321 320 320 319 319 319 318 318 318 317 318 318 318 318 317 313 313 310 306 306 305 303 302 303 302 302
301 301 303 308 305 309 313 321 321 321 320 321 321 322 322 323 322 321 320 320 319 319 319 319 319 318 318 318 317 318 317 313 307 307 304 299 299 300 297 296 293 294 296
294 296 296 297 294 294 301 314 314 321 321 320 320 321 321 322 321 321 320 320 320 320 320 319 319 318 318 317 318 317 317 316 314 307 305 291 293 293 291 290 290 291 290
289 290 291 292 296 293 293 299 303 309 314 313 313 315 316 318 318 318 319 315 313 312 313 316 317 317 317 316 317 317 317 313 303 299 301 288 289 288 288 288 288 288 288
287 287 287 288 289 291 293 294 296 294 293 294 298 302 304 306 306 309 310 305 301 299 295 299 303 307 309 310 307 310 308 304 292 293 294 290 287 286 286 286 285 285 284
286 285 286 286 286 286 290 292 293 292 290 289 289 291 293 295 296 298 301 298 292 289 292 292 293 293 297 297 299 301 301 299 291 289 290 289 285 286 284 283 283 283 282

GFSMA_925_thetae_117.txt.gz
Theta_e
337 337 336 336 334 330 333 331 330 328 327 328 332 333 333 332 331 330 330 329 328 329 330 329 328 327 324 321 321 320 320 320 319 318 317 317 317 317 316 316 317 317 317
339 336 336 335 334 334 334 331 331 329 328 329 331 331 332 332 331 330 328 327 328 328 330 330 328 327 325 322 320 320 319 318 318 318 317 317 317 317 316 316 315 316 316
338 340 336 336 335 335 333 331 330 329 328 327 330 329 330 330 330 330 329 328 328 327 327 330 327 325 324 323 320 320 319 318 318 317 317 317 317 316 315 316 316 316 316
338 338 338 337 335 334 335 331 331 329 330 329 329 329 328 329 329 330 328 328 328 327 327 327 326 325 323 322 322 319 318 317 317 317 317 316 316 315 315 315 316 315 316
338 337 338 337 335 334 334 332 331 330 329 329 328 327 328 328 328 329 327 328 328 327 327 327 326 325 323 321 322 321 319 317 318 317 317 316 315 315 315 315 315 315 315
336 337 337 337 335 333 331 333 330 330 330 331 328 327 326 327 327 326 326 327 328 327 327 327 326 324 323 320 321 321 320 320 319 319 317 316 316 315 315 315 315 313 312
335 337 336 336 335 333 331 334 330 329 329 330 328 326 327 327 327 327 326 325 328 326 325 326 325 324 323 320 320 321 322 321 321 320 319 317 316 316 315 315 315 314 314
333 335 336 335 335 332 331 329 330 328 328 328 327 327 327 326 325 326 326 326 326 326 326 326 325 324 323 322 321 320 321 320 322 320 318 319 317 316 315 316 316 315 314
332 333 335 334 334 334 330 329 329 329 328 327 328 327 327 328 325 323 325 326 326 326 326 326 325 324 322 322 322 319 320 320 322 321 318 317 318 317 316 316 316 316 315
333 333 333 334 333 333 332 331 328 329 329 328 327 327 326 325 327 326 323 325 326 325 325 325 325 324 322 320 320 321 319 319 319 319 320 318 317 317 316 316 316 316 316
333 334 334 334 333 332 331 331 330 330 330 330 327 327 327 326 325 323 326 323 324 325 324 325 326 324 322 320 321 321 319 318 318 318 318 319 318 318 317 316 316 316 316
335 334 334 334 333 332 332 331 330 330 330 329 328 327 326 326 324 323 324 324 324 323 324 324 325 324 323 321 320 320 319 318 318 318 317 318 319 318 317 318 317 317 317
333 334 334 333 333 333 332 331 330 330 329 329 328 328 327 326 326 325 324 324 323 322 322 323 324 324 323 321 321 319 319 319 319 318 318 317 317 317 317 319 318 318 318
333 333 332 333 333 332 332 330 331 330 330 329 329 328 328 328 327 326 324 324 323 322 321 323 322 323 323 321 321 318 319 319 319 319 319 318 317 317 317 316 317 317 317
332 333 332 332 331 331 331 330 331 330 330 330 329 328 328 327 326 326 326 324 324 324 322 322 321 321 322 321 320 320 318 318 318 318 319 319 319 318 317 317 317 317 317
332 331 331 331 330 330 330 329 331 330 329 329 328 328 327 326 325 325 325 324 324 324 323 322 320 321 321 320 320 320 319 318 319 318 318 319 319 318 318 318 318 318 318
330 330 330 330 331 329 330 328 328 329 328 327 327 326 326 325 325 324 324 324 323 323 322 321 320 320 320 320 320 319 319 319 320 320 320 320 320 319 318 318 318 319 318
328 330 329 329 328 328 328 328 327 326 327 326 326 325 325 324 323 323 323 322 322 321 321 318 319 319 320 320 319 320 320 320 319 320 320 320 319 319 318 318 319 318 318
323 326 327 327 327 327 326 326 325 326 326 326 325 324 322 322 323 323 322 321 321 320 320 318 318 319 318 317 317 318 319 319 317 318 318 318 319 318 318 318 318 318 318
311 314 320 323 325 325 325 325 325 324 324 325 323 322 322 322 323 322 321 320 320 319 319 319 318 318 318 317 316 318 319 315 314 316 317 317 319 319 317 317 318 318 315
298 302 306 308 310 311 309 315 320 322 322 322 321 321 321 322 322 322 322 320 320 319 318 318 318 318 318 317 318 318 318 316 311 312 309 307 308 310 310 309 308 308 308
292 295 295 297 299 299 301 307 316 319 321 321 321 321 321 321 322 322 322 322 321 319 319 318 318 318 318 318 317 317 317 312 308 309 308 302 301 301 300 298 297 298 299
289 289 290 290 291 293 296 302 310 312 313 317 319 320 320 321 321 322 321 319 320 320 320 319 319 319 318 318 317 318 317 316 315 310 308 293 294 294 292 292 292 292 293
286 286 287 287 287 289 292 296 303 302 301 296 298 306 310 313 315 318 319 316 314 315 316 318 318 319 318 318 318 318 317 316 308 304 302 290 290 288 289 289 289 289 289
286 285 285 285 286 286 290 291 294 298 296 293 292 292 296 300 300 304 307 308 302 299 299 304 308 311 312 314 315 315 314 303 293 294 296 290 287 286 286 286 285 285 286
285 286 285 284 284 285 286 290 291 290 291 290 290 289 287 291 294 297 298 296 292 290 293 293 294 296 298 300 300 303 303 303 293 292 293 290 286 286 284 284 284 283 282

GFSMA_925_thetae_120.txt.gz
Theta_e
342 341 340 339 338 337 337 336 336 335 335 335 335 335 336 336 335 335 334 331 330 329 329 329 329 328 325 322 323 323 322 321 321 319 319 318 318 318 317 317 318 317 317
341 341 340 339 338 337 337 337 336 334 333 333 334 335 334 334 334 334 334 331 329 327 328 328 328 328 326 323 322 322 321 320 321 319 318 318 318 317 317 316 317 317 317
341 340 340 339 338 337 338 337 336 335 334 333 333 334 334 334 334 334 333 332 329 328 328 327 329 327 326 324 321 320 320 320 320 318 317 317 318 317 316 316 316 316 316
340 339 340 338 338 337 336 337 336 335 334 333 332 332 332 333 333 333 333 332 332 330 328 327 328 327 325 323 321 320 320 319 319 318 317 317 317 317 316 316 316 316 316
338 337 337 339 338 336 334 336 336 335 334 334 333 332 332 332 331 331 331 332 332 331 331 327 327 326 325 323 322 323 322 319 318 318 317 317 317 316 315 316 315 316 316
337 336 337 337 336 335 333 334 334 335 335 334 333 332 332 331 331 331 331 330 331 331 331 328 327 326 324 323 322 322 323 321 320 320 318 317 316 316 315 315 315 315 315
336 336 335 334 335 334 333 334 334 335 335 334 333 332 331 330 329 330 330 331 330 330 329 330 328 326 325 323 322 322 323 322 321 321 321 317 316 316 315 315 315 315 314
336 338 336 334 333 333 333 332 332 332 333 333 333 331 333 332 329 330 329 330 329 329 330 330 327 326 325 323 322 321 322 322 322 321 320 318 317 316 316 315 315 316 315
336 337 335 334 333 333 333 332 332 332 332 331 332 332 334 332 328 329 329 329 330 330 329 328 326 326 325 324 323 321 321 322 322 321 319 318 318 317 317 315 316 316 316
336 334 336 334 335 334 333 332 331 331 332 330 330 332 331 329 330 331 326 328 328 329 329 327 326 326 325 323 323 323 322 321 321 321 321 317 317 319 317 316 316 316 316
336 336 336 336 335 334 334 333 331 331 332 332 331 331 331 331 329 330 330 327 326 327 329 328 326 326 325 324 322 323 322 320 320 320 322 321 318 318 317 317 317 317 317
334 335 336 336 335 335 334 332 331 331 331 332 332 331 331 331 330 330 330 327 327 326 326 327 327 326 325 324 322 323 322 321 319 318 319 319 319 318 318 317 317 316 316
334 334 336 336 334 334 334 333 333 332 333 333 333 332 332 331 328 327 327 327 329 327 326 325 325 325 324 325 323 321 322 321 320 318 318 318 318 317 319 319 318 316 317
335 335 334 334 334 334 333 334 334 333 333 332 333 332 331 329 328 328 327 328 330 325 325 325 324 324 324 324 324 322 320 320 320 319 318 318 318 317 318 318 318 318 319
335 334 335 334 334 334 334 333 334 333 333 333 333 332 331 330 329 329 329 328 327 328 325 324 324 323 323 323 323 322 320 321 319 319 318 318 318 318 317 317 317 317 317
332 334 333 333 333 333 333 333 332 332 331 331 331 331 330 330 329 329 328 328 326 326 326 323 323 324 323 323 323 322 320 321 320 319 319 319 319 319 318 318 318 317 317
325 331 332 331 331 331 331 330 330 331 331 330 330 330 330 329 329 328 328 327 326 325 325 324 322 322 322 322 322 322 321 321 321 320 319 319 318 319 319 319 318 318 318
319 326 329 330 330 330 330 329 329 329 330 329 330 329 329 329 328 327 327 326 325 324 324 324 322 321 320 321 321 321 321 321 322 322 320 318 318 319 319 319 319 318 318
307 315 322 324 327 328 328 328 328 328 328 329 329 329 328 327 326 326 325 324 326 325 324 323 320 320 319 320 320 320 320 320 320 321 321 320 320 320 320 319 319 319 318
297 300 304 308 311 314 316 320 322 326 326 327 327 328 327 326 325 325 324 325 325 323 322 321 320 319 319 318 319 319 319 319 318 317 318 318 318 319 318 318 318 318 318
293 293 294 298 300 301 301 307 311 318 322 325 325 325 325 324 324 324 325 324 323 322 321 320 319 319 319 317 318 318 318 315 311 312 310 310 312 312 311 312 314 315 315
290 290 291 291 292 293 295 299 306 308 312 320 322 323 323 322 322 323 322 322 322 321 320 319 319 318 318 318 318 317 317 310 308 307 305 300 303 303 302 303 304 305 307
288 288 288 288 288 289 293 294 295 300 305 304 305 310 314 319 321 321 321 322 322 321 320 320 319 319 319 318 318 318 318 315 315 309 306 296 296 298 296 296 295 295 295
287 286 286 287 287 287 291 293 292 292 294 296 296 297 300 302 305 311 315 312 309 311 314 316 317 318 318 318 318 318 318 315 310 307 306 292 291 290 291 291 290 290 289
287 286 286 285 286 285 286 290 291 289 288 287 289 291 293 296 297 300 302 304 297 296 297 301 304 304 311 314 317 317 317 307 295 296 298 293 289 287 287 286 286 286 286
286 286 286 285 284 284 284 284 286 286 286 285 285 285 287 289 294 297 295 292 291 289 290 292 295 297 298 299 303 304 308 312 296 292 294 292 287 286 284 284 283 283 283

GFSMA_925_thetae_123.txt.gz
Theta_e
343 342 341 340 339 339 339 337 337 337 336 336 336 336 336 336 335 336 337 332 332 329 326 325 326 327 327 327 325 323 323 322 322 321 320 319 318 319 318 318 317 318 317
343 342 341 341 339 339 338 337 337 337 337 336 336 336 335 335 335 335 336 332 330 329 328 329 327 326 326 323 323 323 323 322 321 321 319 319 318 318 318 317 317 317 317
343 342 340 341 339 340 337 337 336 336 336 335 335 335 334 334 334 334 334 335 331 329 327 328 328 327 326 325 321 323 322 322 320 320 319 318 318 318 317 316 317 317 317
342 342 340 340 339 338 338 337 338 337 335 335 335 334 334 334 334 333 333 333 333 332 329 328 328 328 327 325 323 321 321 321 320 320 319 317 317 318 317 316 316 316 316
340 341 340 340 342 339 339 338 338 337 336 336 334 334 333 333 333 332 332 332 333 333 332 330 328 327 326 325 324 324 323 320 320 320 318 318 318 317 317 316 316 315 316
339 339 340 339 339 339 337 338 338 338 337 335 334 334 333 332 332 331 331 331 332 332 332 331 328 328 326 325 324 323 324 323 320 320 318 317 317 317 317 316 316 315 316
339 339 338 338 338 339 337 336 337 338 337 336 336 333 334 334 333 333 333 332 332 331 331 331 329 329 326 324 324 323 325 325 323 322 321 318 317 317 317 316 315 315 315
338 338 338 337 337 337 337 336 336 336 337 336 336 334 336 333 332 332 332 332 332 331 330 330 330 328 328 325 323 323 323 325 324 322 321 320 318 317 316 316 315 315 315
337 337 337 337 336 336 336 336 335 335 336 336 335 333 334 334 330 333 331 331 330 330 331 330 329 329 329 327 324 322 322 323 323 322 321 320 319 317 316 316 315 315 315
338 336 337 337 335 335 335 335 335 335 335 333 333 334 334 331 331 331 330 330 330 330 330 330 329 328 329 328 325 323 322 321 323 322 321 320 319 318 317 316 316 315 315
338 337 336 336 335 334 334 335 334 335 334 334 332 333 334 334 332 332 332 331 329 329 329 329 329 329 328 328 326 325 323 322 321 322 322 321 319 318 318 317 316 315 316
337 338 336 335 335 334 334 334 333 333 334 334 333 333 334 334 332 333 333 332 331 329 328 328 329 329 328 327 326 325 323 322 322 321 322 322 320 318 317 318 318 316 316
336 338 338 338 335 335 334 334 333 333 332 333 333 334 334 333 332 331 331 332 330 328 330 328 328 329 328 328 327 325 323 322 323 322 320 320 321 321 320 318 318 318 317
336 336 336 338 338 336 334 334 334 333 333 333 333 334 334 334 333 332 331 330 331 332 329 329 328 328 328 328 326 325 325 322 323 322 320 320 320 320 319 319 319 318 318
334 336 336 336 337 335 335 334 334 335 334 334 334 334 334 334 333 332 331 330 331 333 333 328 326 327 327 325 325 324 324 323 321 321 321 320 319 319 318 318 317 319 319
326 333 336 335 335 335 335 334 334 335 335 335 334 334 333 334 333 332 332 331 330 330 333 328 327 326 326 324 324 324 324 324 323 321 319 321 319 318 318 318 317 317 318
317 324 330 333 333 333 332 333 333 333 334 334 333 331 332 333 333 332 331 330 330 330 330 328 326 326 325 324 323 323 324 323 323 322 318 320 320 318 318 318 318 318 317
304 310 319 327 328 331 331 330 331 330 331 332 331 325 331 331 331 331 329 329 330 329 329 327 326 324 324 323 323 323 323 323 322 321 319 320 319 319 318 319 319 319 318
298 300 304 306 308 311 318 319 320 327 330 330 331 331 331 331 331 331 329 329 329 328 327 326 325 325 323 323 322 322 322 322 322 321 322 321 320 319 319 319 319 319 319
293 295 295 296 297 298 302 307 312 318 322 324 328 329 330 330 329 329 328 328 328 327 327 327 325 323 321 320 321 321 320 320 319 319 321 321 320 319 318 318 318 318 318
291 291 292 292 292 293 294 297 304 306 308 312 318 325 326 327 328 328 328 327 327 326 326 324 322 321 320 319 319 320 320 317 315 317 316 317 320 319 318 318 318 318 318
289 289 289 289 289 289 292 294 296 298 299 299 301 309 316 318 320 325 325 325 324 324 324 322 322 320 320 320 319 319 319 310 309 310 313 307 311 311 311 311 311 314 316
288 287 287 287 287 286 289 291 292 293 292 292 292 294 298 301 306 312 320 322 322 322 322 321 321 320 320 319 319 318 318 314 315 310 309 297 300 302 302 301 302 304 305
288 287 287 286 286 285 286 288 289 289 289 289 289 288 291 293 297 301 303 306 307 306 306 310 313 315 316 318 319 318 318 315 311 309 307 293 294 294 293 294 293 295 297
287 287 286 286 286 285 285 286 288 287 287 286 286 286 287 288 292 294 298 296 292 291 293 293 293 295 298 307 313 317 317 308 296 300 302 297 291 288 289 290 290 290 290
287 287 286 285 285 284 285 285 285 286 287 287 285 285 284 285 288 291 291 292 292 290 290 292 293 294 296 296 301 302 304 309 299 294 298 296 288 288 285 285 286 287 287